[[{"header":{"parameterUnit":"m.s-1","parameterCategory":1,"la1":30.6,"la2":29.2853,"lo1":-89.7004,"lo2":-87.6739,"dy":0.0162,"dx":0.0183,"nx":112,"ny":82,"refTime":"2025-08-04T12:00:00:Z","depth":0,"parameterNumber":2,"parameterNumberName":"U-component_of_WINDS"},"data":[0.0,0.0,0.0,0.0,0.0,0.0,0.0,0.0,0.0,0.0,0.0,0.0,0.0,0.0,0.0,0.0,0.0,0.0,0.0,0.0,0.0,0.0,0.0,0.0,0.0,0.0,0.0,0.0,0.0,0.0,0.0,0.0,0.0,0.0,0.0,0.0,0.0,0.0,0.0,0.0,0.0,0.0,0.0,0.0,0.0,0.0,0.0,0.0,0.0,0.0,0.0,0.0,0.0,0.0,0.0,0.0,0.0,0.0,0.0,0.0,0.0,0.0,0.0,0.0,0.0,0.0,0.0,0.0,0.0,0.0,0.0,0.0,0.0,0.0,0.0,0.0,0.0,0.0,0.0,0.0,0.0,0.0,0.0,0.0,0.0,0.0,0.0,0.0,0.0,0.0,1.2108,1.3966,1.6026,1.7564,1.8218,1.7145,1.5502,1.3346,0.0,0.0,0.0,0.0,0.0,0.0,0.0,0.0,0.0,0.0,0.0,0.0,0.0,0.0,0.0,0.0,0.0,0.0,0.0,0.0,0.0,0.0,0.0,0.0,0.0,0.0,0.0,0.0,0.0,0.0,0.0,0.0,0.0,0.0,0.0,0.0,0.0,0.0,0.0,0.0,0.0,0.0,0.0,0.0,0.0,0.0,0.0,0.0,0.0,0.0,0.0,0.0,0.0,0.0,0.0,0.0,0.0,0.0,0.0,0.0,0.0,0.0,0.0,0.0,0.0,0.0,0.0,0.0,0.0,0.0,0.0,0.0,0.0,0.0,0.0,0.0,0.0,0.0,0.0,0.0,0.0,0.0,0.0,0.0,0.0,0.0,0.0,0.0,0.0,0.0,0.0,0.0,0.0,0.0,0.0,0.0,0.0,0.0,0.0,0.0,0.0,0.0,0.0,0.0,1.2757,1.6271,1.8074,1.9055,1.9115,1.7501,1.5795,1.4196,0.0,0.0,0.0,0.0,0.0,0.0,0.0,0.0,0.0,0.0,0.0,0.0,0.0,0.0,0.0,0.0,0.0,0.0,0.0,0.0,0.0,0.0,0.0,0.0,0.0,0.0,0.0,0.0,0.0,0.0,0.0,0.0,0.0,0.0,0.0,0.0,0.0,0.0,0.0,0.0,0.0,0.0,0.0,0.0,0.0,0.0,0.0,0.0,0.0,0.0,0.0,0.0,0.0,0.0,0.0,0.0,0.0,0.0,0.0,0.0,0.0,0.0,0.0,0.0,0.0,0.0,0.0,0.0,0.0,0.0,0.0,0.0,0.0,0.0,0.0,0.0,0.0,0.0,0.0,0.0,0.0,0.0,0.0,0.0,0.0,0.0,0.0,0.0,0.0,0.0,0.0,0.0,0.0,0.0,0.0,0.0,0.0,0.0,0.0,0.0,0.0,0.0,0.0,1.2756,1.4459,1.7083,1.87,1.9536,1.9368,1.7738,1.6036,1.4415,1.2586,0.0,0.0,0.0,0.0,0.0,0.0,0.0,0.0,0.0,0.0,0.0,0.0,0.0,0.0,0.0,0.0,0.0,0.0,0.0,0.0,0.0,0.0,0.0,0.0,0.0,0.0,0.0,0.0,0.0,0.0,0.0,0.0,0.0,0.0,0.0,0.0,0.0,0.0,0.0,0.0,0.0,0.0,0.0,0.0,0.0,0.0,0.0,0.0,0.0,0.0,0.0,0.0,0.0,0.0,0.0,0.0,0.0,0.0,0.0,0.0,0.0,0.0,0.0,0.0,0.0,0.0,0.0,0.0,0.0,0.0,0.0,0.0,0.0,0.0,0.0,0.0,0.0,0.0,0.0,0.0,0.0,0.0,0.0,0.0,0.0,0.0,0.0,0.0,0.0,0.0,0.0,0.0,0.0,0.0,0.0,0.0,0.0,0.0,0.0,0.0,0.0,0.0,1.496,1.6243,1.7428,1.8904,1.9707,1.9481,1.7711,1.5958,1.4397,1.1861,0.0,0.0,0.0,0.0,0.0,0.0,0.0,0.0,0.0,0.0,0.0,0.0,0.0,0.0,0.0,0.0,0.0,0.0,0.0,0.0,0.0,0.0,0.0,0.0,0.0,0.0,0.0,0.0,0.0,0.0,0.0,0.0,0.0,0.0,0.0,0.0,0.0,0.0,0.0,0.0,0.0,0.0,0.0,0.0,0.0,0.0,0.0,0.0,0.0,0.0,0.0,0.0,0.0,0.0,0.0,0.0,0.0,0.0,0.0,0.0,0.0,0.0,0.0,0.0,0.0,0.0,0.0,0.0,0.0,0.0,0.0,0.0,0.0,0.0,0.0,0.0,0.0,0.0,0.0,0.0,0.0,0.0,0.0,0.0,0.0,0.0,0.0,0.0,0.0,0.0,0.0,0.0,0.0,0.0,0.0,0.0,0.0,0.0,0.0,0.0,0.0,0.0,1.5604,1.7566,1.7672,1.8945,1.9731,1.9612,1.7261,1.536,1.436,1.1334,0.0,0.0,0.0,0.0,0.0,0.0,0.0,0.0,0.0,0.0,0.0,0.0,0.0,0.0,0.0,0.0,0.0,0.0,0.0,0.0,0.0,0.0,0.0,0.0,0.0,0.0,0.0,0.0,0.0,0.0,0.0,0.0,0.0,0.0,0.0,0.0,0.0,0.0,0.0,0.0,0.0,0.0,0.0,0.0,0.0,0.0,0.0,0.0,0.0,0.0,0.0,0.0,0.0,0.0,0.0,0.0,0.0,0.0,0.0,0.0,0.0,0.0,0.0,0.0,0.0,0.0,0.0,0.0,0.0,0.0,0.0,0.0,0.0,0.0,0.0,0.0,0.0,0.0,0.0,0.0,0.0,0.0,0.0,0.0,0.0,0.0,0.0,0.0,0.0,0.0,0.0,0.0,0.0,0.0,0.0,0.0,0.0,0.0,0.0,0.0,0.0,0.0,1.5586,1.7407,0.0,1.947,2.002,1.9752,1.7821,1.6003,1.4532,0.0,0.0,0.0,0.0,0.0,0.0,0.0,0.0,0.0,0.0,0.0,0.0,0.0,0.0,0.0,0.0,0.0,0.0,0.0,0.0,0.0,0.0,0.0,0.0,0.0,0.0,0.0,0.0,0.0,0.0,0.0,0.0,0.0,0.0,0.0,0.0,0.0,0.0,0.0,0.0,0.0,0.0,0.0,0.0,0.0,0.0,0.0,0.0,0.0,0.0,0.0,0.0,0.0,0.0,0.0,0.0,0.0,0.0,0.0,0.0,0.0,0.0,0.0,0.0,0.0,0.0,0.0,0.0,0.0,0.0,0.0,0.0,0.0,0.0,0.0,0.0,0.0,0.0,0.0,0.0,0.0,0.0,0.0,0.0,0.0,0.0,0.0,0.0,0.0,0.0,0.0,0.0,0.0,0.0,0.0,0.0,0.0,0.0,0.0,0.0,0.0,0.0,1.3592,1.5732,1.7513,0.0,1.9815,2.0197,1.9922,1.8042,1.6223,1.4651,0.0,0.0,0.0,0.0,0.0,0.0,0.0,0.0,0.0,0.0,0.0,0.0,0.0,0.0,0.0,0.0,0.0,0.0,0.0,0.0,0.0,0.0,0.0,0.0,0.0,0.0,0.0,0.0,0.0,0.0,0.0,0.0,0.0,0.0,0.0,0.0,0.0,0.0,0.0,0.0,0.0,0.0,0.0,0.0,0.0,0.0,0.0,0.0,0.0,0.0,0.0,0.0,0.0,0.0,0.0,0.0,0.0,0.0,0.0,0.0,0.0,0.0,0.0,0.0,0.0,0.0,0.0,0.0,0.0,0.0,0.0,0.0,0.0,0.0,0.0,0.0,0.0,0.0,0.0,0.0,0.0,0.0,0.0,0.0,0.0,0.0,0.0,0.0,0.0,0.0,0.0,0.0,0.0,0.0,0.0,0.0,0.0,0.0,0.0,0.0,0.0,0.0,1.3679,1.6231,1.8163,1.9111,1.9861,2.024,2.0109,1.7708,1.5781,0.0,0.0,0.0,0.0,0.0,0.0,0.0,0.0,0.0,0.0,0.0,0.0,0.0,0.0,0.0,0.0,0.0,0.0,0.0,0.0,0.0,0.0,0.0,0.0,0.0,0.0,0.0,0.0,0.0,0.0,0.0,0.0,0.0,0.0,0.0,0.0,0.0,0.0,0.0,0.0,0.0,0.0,0.0,0.0,0.0,0.0,0.0,0.0,0.0,0.0,0.0,0.0,0.0,0.0,0.0,0.0,0.0,0.0,0.0,0.0,0.0,0.0,0.0,0.0,0.0,0.0,0.0,0.0,0.0,0.0,0.0,0.0,0.0,0.0,0.0,0.0,0.0,0.0,0.0,0.0,0.0,0.0,0.0,0.0,0.0,0.0,0.0,0.0,0.0,0.0,0.0,0.0,0.0,0.0,0.0,0.0,0.0,0.0,0.0,0.0,0.0,0.0,0.0,1.4171,1.6388,1.8216,1.967,2.0163,2.0348,2.0243,1.8402,1.6593,1.5014,0.0,0.0,0.0,0.0,0.0,0.0,0.0,0.0,0.0,0.0,0.0,0.0,0.0,0.0,0.0,0.0,0.0,0.0,0.0,0.0,0.0,0.0,0.0,0.0,0.0,0.0,0.0,0.0,0.0,0.0,0.0,0.0,0.0,0.0,0.0,0.0,0.0,0.0,0.0,0.0,0.0,0.0,0.0,0.0,0.0,0.0,0.0,0.0,0.0,0.0,0.0,0.0,0.0,0.0,0.0,0.0,0.0,0.0,0.0,0.0,0.0,0.0,0.0,0.0,0.0,0.0,0.0,0.0,0.0,0.0,0.0,0.0,0.0,0.0,0.0,0.0,0.0,0.0,0.0,0.0,0.0,0.0,0.0,0.0,0.0,0.0,0.0,0.0,0.0,0.0,0.0,0.0,0.0,0.0,0.0,0.0,0.0,0.0,0.0,0.0,0.0,0.0,1.4379,1.6371,1.8147,1.9915,2.0214,2.0314,2.0371,1.8759,1.6984,1.5232,0.0,0.0,0.0,0.0,0.0,0.0,0.0,0.0,0.0,0.0,0.0,0.0,0.0,0.0,0.0,0.0,0.0,0.0,0.0,0.0,0.0,0.0,0.0,0.0,0.0,0.0,0.0,0.0,0.0,0.0,0.0,0.0,0.0,0.0,0.0,0.0,0.0,0.0,0.0,0.0,0.0,0.0,0.0,0.0,0.0,0.0,0.0,0.0,0.0,0.0,0.0,0.0,0.0,0.0,0.0,0.0,0.0,0.0,0.0,0.0,0.0,0.0,0.0,0.0,0.0,0.0,0.0,0.0,0.0,0.0,0.0,0.0,0.0,0.0,0.0,0.0,0.0,0.0,0.0,0.0,0.0,0.0,0.0,0.0,0.0,0.0,0.0,0.0,0.0,0.0,0.0,0.0,0.0,0.0,0.0,0.0,0.0,0.0,0.0,0.0,0.0,0.0,1.4326,1.6231,1.7993,1.9828,2.0071,2.0199,2.0441,1.8905,1.7218,1.5524,0.0,0.0,0.0,0.0,0.0,0.0,0.0,0.0,0.0,0.0,0.0,0.0,0.0,0.0,0.0,0.0,0.0,0.0,0.0,0.0,0.0,0.0,0.0,0.0,0.0,0.0,0.0,0.0,0.0,0.0,0.0,0.0,0.0,0.0,0.0,0.0,0.0,0.0,0.0,0.0,0.0,0.0,0.0,0.0,0.0,0.0,0.0,0.0,0.0,0.0,0.0,0.0,0.0,0.0,0.0,0.0,0.0,0.0,0.0,0.0,1.2849,1.1911,0.0,0.0,0.0,0.0,0.0,0.0,0.0,0.0,0.0,0.0,0.0,0.0,0.0,0.0,0.0,0.0,0.0,0.0,0.0,0.0,0.0,0.0,0.0,0.0,0.0,0.0,0.0,0.0,0.0,0.0,0.0,0.0,0.0,0.0,0.0,0.0,0.0,0.0,0.0,0.0,1.3932,1.5986,1.78,1.9298,1.9848,2.013,2.0189,1.9409,1.8161,1.6424,1.3902,0.0,0.0,0.0,0.0,0.0,0.0,0.0,0.0,0.0,0.0,0.0,0.0,0.0,0.0,0.0,0.0,0.0,0.0,0.0,0.0,0.0,0.0,0.0,0.0,0.0,0.0,0.0,0.0,0.0,0.0,0.0,0.0,0.0,0.0,0.0,0.0,0.0,0.0,0.0,0.0,0.0,0.0,0.0,0.0,0.0,0.0,0.0,0.0,0.0,0.0,0.0,0.0,0.0,0.0,0.0,0.0,0.0,0.0,0.0,1.3953,1.3429,0.0,0.0,0.0,0.0,0.0,0.0,0.0,0.0,0.0,0.0,0.0,0.0,0.0,0.0,0.0,0.0,0.0,0.0,0.0,0.0,0.0,0.0,0.0,0.0,0.0,0.0,0.0,0.0,0.0,0.0,0.0,0.0,0.0,0.0,0.0,0.0,0.0,0.0,0.0,0.0,1.3832,1.599,1.7804,1.9026,1.95,1.9779,1.9945,1.9378,1.8319,1.6691,1.4961,0.0,0.0,0.0,0.0,0.0,0.0,0.0,0.0,0.0,0.0,0.0,0.0,0.0,0.0,0.0,0.0,0.0,0.0,0.0,0.0,0.0,0.0,0.0,0.0,0.0,0.0,0.0,0.0,0.0,0.0,0.0,0.0,0.0,0.0,0.0,0.0,0.0,0.0,0.0,0.0,0.0,0.0,0.0,0.0,0.0,0.0,0.0,0.0,0.0,0.0,0.0,0.0,0.0,1.4797,1.4504,1.4467,1.3907,1.3963,1.4515,1.4932,1.509,1.4997,1.4193,0.0,0.0,0.0,0.0,0.0,0.0,0.0,0.0,0.0,0.0,0.0,0.0,0.0,0.0,0.0,0.0,0.0,0.0,0.0,0.0,0.0,0.0,1.4605,1.4952,1.4994,1.4685,1.3599,0.0,0.0,0.0,0.0,0.0,0.0,0.0,0.0,0.0,0.0,0.0,1.3955,1.6104,1.7859,1.8802,1.9123,1.9379,1.9679,1.9237,1.839,1.7064,1.6033,1.4489,0.0,0.0,0.0,0.0,0.0,0.0,0.0,0.0,0.0,0.0,0.0,0.0,0.0,0.0,0.0,0.0,0.0,0.0,0.0,0.0,0.0,0.0,0.0,0.0,0.0,0.0,0.0,0.0,0.0,0.0,0.0,0.0,0.9027,1.0373,0.0,0.0,0.0,0.0,0.0,0.0,0.0,0.0,0.0,0.0,0.0,0.0,0.0,0.9974,0.871,1.4006,1.6758,1.6892,1.5624,1.4794,1.444,1.5389,1.603,1.648,1.7161,0.0,1.6515,1.65,0.0,0.0,0.0,0.0,0.0,0.0,0.0,0.0,0.0,0.0,0.0,0.0,0.0,0.0,0.0,0.0,0.0,0.0,0.0,0.0,0.0,0.0,1.8374,1.7343,1.7575,1.7741,1.6643,1.4591,1.2799,1.2403,1.1842,1.114,0.0,0.0,0.0,0.0,0.0,0.0,1.428,1.6203,1.7773,1.8495,1.8859,1.9136,1.936,1.9444,1.9201,1.8547,1.7037,1.576,1.4848,1.334,0.0,0.0,0.0,0.0,0.0,0.0,0.0,0.0,0.0,0.0,0.0,0.0,0.0,0.0,0.0,0.0,0.0,0.0,0.0,0.0,0.0,0.0,0.0,0.0,0.0,0.0,0.0,0.0,0.0,0.8738,1.0269,1.0941,1.0887,1.0606,0.0,0.0,0.0,0.0,0.0,0.0,0.0,0.0,0.0,1.2089,1.2706,1.2811,1.2306,1.4767,1.602,1.602,1.5412,1.5,1.4799,1.4755,1.5164,1.5864,1.6182,1.6156,1.5968,1.767,1.7593,1.6237,0.0,0.0,0.0,0.0,1.2267,1.6689,1.6689,1.9425,2.2832,2.2073,0.0,0.0,0.0,0.0,0.0,0.0,0.0,1.6177,1.6287,1.7209,1.8142,1.8207,1.8082,1.7893,1.7807,1.6502,1.5001,1.368,1.3615,1.3177,1.1217,1.1199,0.0,0.0,0.0,1.4272,1.4631,1.6363,1.7687,1.8005,1.8415,1.8735,1.8957,1.9261,1.9176,1.8552,1.8013,1.7157,1.59,1.4732,1.356,0.0,0.0,0.0,0.0,0.0,0.0,0.0,0.0,0.0,0.0,0.0,0.0,0.0,0.0,0.0,0.0,0.0,0.0,0.0,0.0,0.0,0.0,0.0,0.0,0.0,0.0,0.0,0.0,1.0072,1.1348,1.1381,1.1935,1.1972,0.0,0.0,0.0,0.0,0.0,0.0,1.1822,1.2807,1.3446,1.3602,1.448,1.4993,1.5096,1.5108,1.4823,1.4351,1.4351,1.4351,1.4305,1.3552,1.36,1.4384,1.4779,1.4936,1.5125,1.7387,1.804,1.7463,1.5713,1.4924,1.4403,1.194,1.5255,2.1022,2.1117,2.1274,2.1212,2.0243,1.9903,1.9515,1.7296,0.0,0.0,0.0,0.0,1.6514,1.7347,1.7531,1.7717,1.85,1.8139,1.7704,1.8057,1.787,1.7078,1.5173,1.5289,1.498,1.2685,1.244,0.0,0.0,0.0,1.4719,1.4897,1.6373,1.7415,1.7469,1.7915,1.8313,1.8499,1.8925,1.9,1.8553,1.8615,1.8047,1.6651,1.5883,1.5054,1.4123,0.0,0.0,0.0,0.0,0.0,0.0,0.0,0.0,0.0,0.0,0.0,0.0,0.0,0.0,0.0,0.0,0.0,0.0,0.0,0.0,0.0,0.0,0.0,0.0,0.0,0.0,0.0,0.0,0.0,1.2162,1.3563,0.0,0.0,0.0,0.0,1.2515,1.2543,1.2829,1.346,1.4008,1.4273,1.418,1.5447,1.5804,1.5108,1.5108,1.4165,1.2264,1.2264,1.2264,1.2274,1.2224,1.2224,1.2358,1.3877,1.4563,1.455,1.5083,1.5322,1.5311,1.5632,1.6777,1.811,1.7142,1.7075,1.753,1.7962,1.8447,1.8864,1.8803,1.7612,1.6279,1.6799,1.6667,0.0,0.0,1.6961,1.7943,1.7741,1.8141,1.8574,1.8352,1.8274,1.8104,1.7504,1.7826,1.8035,1.7374,1.6693,1.6034,1.5316,0.0,1.436,1.3517,1.4516,1.5265,1.5011,1.607,1.6837,1.6846,1.7382,1.7822,1.8027,1.8529,1.8929,1.9143,1.8615,1.8054,1.7458,1.6673,1.5564,1.4121,1.3168,0.0,0.0,0.0,0.0,0.0,0.0,0.0,0.0,0.0,0.0,0.0,0.0,0.0,0.0,0.0,0.0,0.0,0.0,0.0,0.0,0.0,0.0,0.0,0.0,0.0,0.0,0.0,0.0,1.3994,1.4761,0.0,1.368,1.3967,1.4013,1.3534,1.4219,1.4486,1.4105,1.4664,1.494,1.4762,1.4971,1.4686,1.3873,1.3054,1.2286,1.1586,1.2525,1.2998,1.2998,1.2998,1.2998,1.3024,1.3584,1.407,1.4529,1.4644,1.5269,1.6015,1.5544,1.5756,1.6343,1.6708,1.672,1.6577,1.6748,1.7214,1.7814,1.8224,1.8087,1.7768,1.802,1.7841,1.7547,1.7452,1.7637,1.7768,1.7499,1.7637,1.772,1.7409,1.734,1.7258,1.705,1.7175,1.7248,1.7074,1.701,1.6703,1.5748,1.5705,1.5656,1.5358,1.5948,1.6469,1.6515,1.6828,1.7058,1.7113,1.7245,1.7462,1.7783,1.809,1.8415,1.8735,1.8346,1.7792,1.7086,1.6536,1.5765,1.4757,1.3931,1.2973,0.0,0.0,0.0,0.0,0.0,0.0,0.0,0.0,0.0,0.0,0.0,0.0,0.0,0.0,0.0,0.0,0.0,0.0,0.0,0.0,0.0,0.0,0.0,0.0,0.0,0.0,1.4314,1.4692,1.5462,1.5564,1.4457,1.4829,1.4891,1.4371,1.5057,1.5203,1.4429,1.4741,1.4898,1.4765,1.4828,1.4355,1.3314,1.2486,1.2029,1.2038,1.3031,1.3511,1.3442,1.2581,1.2642,1.3511,1.326,1.3571,1.4267,1.4327,1.5011,1.5987,1.5664,1.5274,1.5017,1.6199,1.6495,1.6359,1.663,1.686,1.7162,1.7631,1.7814,1.7867,1.7867,1.7693,1.7518,1.7518,1.7382,1.7164,1.6995,1.6925,1.6883,1.6642,1.6612,1.6557,1.6416,1.6514,1.6557,1.6416,1.6914,1.7071,1.6107,1.6322,1.6556,1.6336,1.6655,1.6976,1.7146,1.7134,1.7181,1.7319,1.7235,1.7316,1.7683,1.7879,1.8086,1.8328,1.8287,1.7821,1.6771,1.6518,1.5978,1.5057,1.4299,1.352,1.2681,0.0,0.0,0.0,0.0,0.0,0.0,0.0,0.0,0.0,0.0,0.0,0.0,0.0,0.0,0.0,0.0,0.0,0.0,0.0,0.0,0.0,0.0,0.0,1.2899,1.4511,1.5272,1.4172,1.5722,1.623,1.4575,1.4981,1.522,1.488,1.488,1.4722,1.4383,1.4293,1.4215,1.4031,1.5038,1.4967,1.3655,1.3438,1.3381,1.3381,1.3381,1.3381,1.326,1.0661,1.0912,1.3381,1.2757,1.2956,1.3847,1.389,1.4282,1.4904,1.5881,1.5555,1.4709,1.6041,1.6595,1.6706,1.7398,1.7335,1.6895,1.6941,1.661,1.6237,1.6225,1.6225,1.6212,1.62,1.6156,1.6156,1.6156,1.6156,1.6156,1.6156,1.6156,1.6057,1.568,1.5869,1.6057,1.568,1.6471,1.7086,1.6494,1.691,1.7088,1.6468,1.6577,0.0,1.6747,1.6915,1.7146,1.7401,1.738,1.7436,1.7674,1.7885,1.7997,1.8001,1.8454,1.809,1.6667,1.6721,1.6205,1.4954,1.4367,1.3573,1.2579,0.0,0.0,0.0,0.0,0.0,0.0,0.0,0.0,0.0,0.0,0.0,0.0,0.0,0.0,0.0,0.0,0.0,0.0,0.0,0.0,0.0,1.231,1.3377,1.365,1.454,1.5158,1.502,1.5489,1.5413,1.4405,1.4507,1.4449,1.4143,1.4125,1.3902,1.3383,1.3349,1.3176,1.2789,1.3052,1.3589,1.454,1.1943,1.0604,1.0604,1.0604,1.0604,1.0598,0.9856,1.0295,1.1586,1.1406,1.171,1.2397,1.2389,1.2687,1.3262,1.4352,1.4875,1.5137,1.5509,1.6042,1.653,1.6615,1.6842,1.7159,1.741,1.7407,1.7223,1.6831,1.6526,1.626,1.5888,1.5603,1.5379,1.5379,1.5379,1.5379,1.5379,1.5379,1.5379,1.5232,1.5334,1.5379,1.5244,1.5668,1.6219,1.6744,1.7088,1.737,1.7628,1.7845,1.8026,1.8026,1.8007,1.8036,1.8106,1.8029,1.788,1.7721,1.7754,1.7748,1.7721,1.747,1.7265,1.7047,1.6729,1.6232,1.5494,1.5559,1.5171,0.0,0.0,0.0,0.0,0.0,0.0,0.0,0.0,0.0,0.0,0.0,0.0,0.0,0.0,0.0,0.0,0.0,0.0,0.0,0.0,0.0,0.0,1.3167,1.3943,1.3982,1.4646,1.5109,1.4982,1.4824,1.4492,1.3737,1.3724,1.356,1.3103,1.319,1.3039,1.2431,1.2392,1.2217,1.1759,1.1705,1.1978,1.2618,1.0534,0.9484,0.9484,0.9484,0.9484,0.9484,0.9484,0.9977,1.0905,1.0787,1.1094,1.164,1.164,1.1826,1.2181,0.0,0.0,0.0,0.0,1.5751,1.6383,1.6288,1.6345,1.6564,1.6746,1.6688,1.6459,1.6101,1.5886,1.5733,1.5654,1.5344,1.5139,1.5394,1.5142,1.488,1.5062,1.4971,1.488,1.5062,1.5108,1.5108,1.5108,1.5232,0.0,1.6312,1.6782,1.7201,1.776,1.8055,1.8268,1.8478,1.846,1.8491,1.8586,1.8283,1.8085,1.8161,1.7749,0.0,0.0,0.0,1.6987,1.7043,1.6639,0.0,0.0,0.0,0.0,0.0,0.0,0.0,0.0,1.4973,1.5289,0.0,0.0,0.0,0.0,0.0,0.0,0.0,0.0,0.0,0.0,0.0,0.0,0.0,0.0,0.0,0.0,1.3801,1.4282,1.3799,1.4503,1.4824,1.4168,1.3899,1.3494,1.2832,1.278,1.2568,1.2052,1.2272,1.2125,1.1502,0.0,0.0,0.0,0.0,1.0288,0.9484,0.9484,0.9484,0.942,0.942,0.9438,0.9473,0.9473,0.9988,1.0755,1.0481,1.0771,1.1317,1.1281,1.1329,1.1516,1.2512,1.2757,1.2749,1.4323,1.5449,1.613,1.613,0.0,0.0,1.5622,1.528,1.4932,1.4881,1.486,1.4955,1.5455,1.5286,1.5099,1.5672,1.5121,1.4578,1.4937,1.4743,1.4558,1.4926,1.5062,1.5108,1.5108,1.5108,1.5187,1.5501,1.6151,1.6752,1.7146,1.7503,1.7882,1.8347,1.8439,1.8581,1.8874,1.8409,0.0,1.8717,1.7975,1.755,1.7745,1.7575,1.7389,1.7181,1.694,1.6743,1.6657,1.7223,1.742,1.7215,1.8354,1.8906,1.8863,1.6812,1.7061,0.0,0.0,0.0,0.0,0.0,0.0,0.0,0.0,0.0,0.0,0.0,0.0,0.0,0.0,0.0,1.1881,1.2889,1.3449,1.2832,1.2939,1.2987,1.2852,1.2803,1.2683,1.2489,1.2018,1.1785,1.1987,1.1569,1.1159,1.0753,1.0628,1.0279,0.9652,0.946,0.9338,0.9227,0.9227,0.9221,0.9087,0.9087,0.0,0.9355,0.9355,0.9632,1.0158,0.988,0.9922,1.0161,1.0007,1.0231,1.0787,1.171,1.2328,1.2826,1.3252,1.4195,1.5148,1.5148,1.5438,1.578,1.578,1.5662,1.5578,1.5269,1.5222,0.0,1.4996,1.4935,1.4892,1.5132,1.5017,1.4843,1.46,1.4743,1.488,1.4605,1.4834,1.5108,1.5108,1.5108,1.5108,1.5198,1.5724,1.625,1.6595,1.6964,1.7325,1.7801,1.8121,1.8475,1.886,1.9037,1.8943,1.8519,1.8512,1.84,1.8114,1.8755,1.9252,1.9529,1.9685,1.9472,1.8798,2.0065,2.0374,1.9703,2.0848,2.1414,2.1381,2.0337,2.0205,0.0,0.0,0.0,0.0,0.0,0.0,0.0,0.0,0.0,0.0,0.0,1.0443,1.1131,0.0,1.2088,1.2073,1.2559,1.2754,1.2274,1.2175,1.2175,1.2175,1.2175,1.2022,1.1659,1.1494,1.1263,1.1019,1.0777,1.0436,0.9901,0.9709,0.9518,0.9145,0.9081,0.9022,0.9092,0.9092,0.915,0.9199,0.9199,0.9292,0.9513,0.9637,0.974,0.9846,0.9846,0.984,0.9775,0.9591,0.9728,1.0047,1.0478,1.1344,1.2328,1.2389,1.2862,1.352,1.3837,1.4136,1.4433,1.4805,1.4874,1.4895,1.4677,1.4678,1.4687,1.4795,1.47,1.4592,1.4945,1.4563,1.4121,1.4188,1.4301,1.4362,1.4373,1.4789,1.5108,1.5108,1.5108,1.5108,1.5108,1.5334,1.5724,1.6175,1.6398,1.6727,1.7284,1.753,1.7814,1.8305,1.85,1.8693,1.8884,1.8981,1.8799,1.8222,1.8952,1.9497,1.9684,2.0142,2.0228,1.9849,2.0675,2.092,2.0564,2.135,2.1961,2.2331,2.211,2.2106,0.0,0.0,0.0,0.0,0.0,0.0,0.0,0.0,0.9205,1.0256,1.0754,1.1175,1.1631,1.2086,1.2355,1.2267,1.2283,1.2175,1.1778,1.1569,1.151,1.151,1.156,1.1328,1.0748,1.086,1.0661,1.0038,1.0026,0.9837,0.9274,0.9081,0.8958,0.8958,0.9003,0.8984,0.9029,0.9079,0.9231,0.9473,0.9473,0.9603,0.979,1.0059,1.0064,0.9929,1.0103,0.9979,0.9689,0.9695,0.9597,0.9491,0.9562,1.034,1.1337,1.1524,1.171,1.195,1.2512,1.2696,1.2818,1.3321,1.3571,1.37,1.3761,1.3881,1.4061,1.4569,1.4455,1.4308,1.4821,1.4184,1.3474,1.376,1.3748,1.3809,1.4161,1.4651,1.5017,1.5108,1.5108,1.5108,1.5108,1.5108,1.5289,1.5768,1.5876,1.617,1.674,1.6879,1.716,1.7707,1.7841,1.8279,1.9213,1.9316,1.9124,1.8654,1.9178,1.9573,1.9687,2.024,2.0594,2.0712,2.0928,2.1074,2.1161,2.1619,2.22,2.2833,2.3104,2.3359,0.6125,0.7075,0.8105,0.8375,0.8683,0.9371,0.0,0.0,1.1132,1.2229,1.2082,1.1859,1.2069,1.2046,1.1864,1.151,1.1519,1.1469,1.1074,1.0438,1.002,1.002,1.0269,1.0362,1.0377,0.9735,0.9517,0.9995,0.9442,0.9145,0.9017,0.8894,0.8835,0.8835,0.8915,0.8988,0.9194,0.9417,0.9645,0.9873,0.9873,1.0008,1.0252,1.0279,1.0466,1.0767,1.0585,1.0137,0.9706,0.9881,0.9793,0.9632,0.9765,0.9813,0.9856,1.0421,1.1031,1.1571,1.1633,1.1695,1.1703,1.1764,1.2197,1.2696,1.2887,1.3329,1.389,1.4061,1.4034,1.4096,1.4241,1.4185,1.394,1.329,1.3681,1.4086,1.3597,1.4176,1.4834,1.5062,1.5108,1.5108,1.5108,1.5108,1.5108,1.5198,1.53,1.5558,1.6032,1.6466,1.6964,1.7625,1.7975,1.8372,1.8898,1.9229,1.9561,2.003,2.0395,2.0894,2.1474,2.1649,2.1866,2.215,2.2488,2.2673,2.274,2.3222,2.3518,2.3668,2.3946,2.4155,0.7224,0.7843,0.0,0.0,0.9673,1.0197,1.1011,1.1036,1.1051,1.1791,1.1719,1.1519,1.1451,1.136,1.1217,0.0,1.0651,1.0438,1.0285,0.9814,0.934,0.904,0.8974,0.9146,0.9579,0.9298,0.9178,0.9418,0.9081,0.8894,0.8894,0.8705,0.8706,0.8843,0.901,0.9179,0.9421,0.9658,0.99,1.0137,1.0137,1.0261,1.0498,1.0632,1.067,1.0697,1.0512,1.0162,0.9779,0.985,0.9845,0.981,0.9732,0.9764,0.9831,0.991,1.0104,1.0408,1.0787,1.0912,1.0968,1.1392,1.1695,1.195,1.2012,1.2512,1.3078,1.313,1.339,1.3717,1.3788,1.37,1.3516,1.3175,1.3365,1.3469,1.3242,1.3679,1.4212,1.434,1.4547,1.4743,1.4834,1.488,1.4926,1.5062,1.5165,1.5289,1.557,1.5913,1.6509,1.731,1.8002,1.8528,1.8707,1.9139,1.9566,1.9984,2.033,2.0714,2.1198,2.1631,2.1945,2.2118,2.2426,2.2659,2.2712,2.3067,2.3335,2.3513,2.3774,2.4018,0.7642,0.0,0.0,0.9384,0.9979,1.0426,1.0581,1.0573,1.0648,1.1116,1.1124,1.0964,1.0659,1.0608,1.0506,1.0198,0.9844,0.9626,0.9626,0.9203,0.8731,0.8369,0.8026,0.8075,0.8673,0.8721,0.8764,0.8854,0.877,0.8705,0.8705,0.8576,0.8624,0.8923,0.9152,0.9459,0.9771,1.0067,1.0342,1.0584,1.0584,1.0676,1.0837,1.1009,1.0955,1.0719,1.0487,1.0231,0.9914,0.9917,0.9957,0.9932,0.9817,0.9817,0.9869,0.9638,0.9568,0.9676,1.0104,1.0289,1.0399,1.0807,1.1087,1.1212,1.1212,1.1703,1.2197,1.2197,1.2696,1.3199,1.3199,1.3254,1.3275,1.318,1.3157,1.314,1.3114,1.3422,1.3734,1.3952,1.4118,1.4316,1.4651,1.4708,1.4789,1.5062,1.5108,1.5153,1.521,1.5703,1.6306,1.7199,1.7962,1.8436,1.8475,1.8912,1.9273,1.9551,1.9949,2.0296,2.063,2.1308,2.1721,2.1869,2.2192,2.2422,2.2487,2.2712,2.295,2.3206,2.345,2.3671,0.0,0.0,0.9077,0.8656,0.9089,0.9755,1.0277,1.0218,1.021,1.0812,1.0726,1.036,0.9925,0.9814,0.971,0.9287,0.916,0.913,0.913,0.8528,0.8149,0.8093,0.7548,0.7328,0.0,0.7855,0.7995,0.8479,0.8517,0.8517,0.8517,0.8517,0.8624,0.8923,0.9319,0.9793,1.0266,1.0724,1.1074,1.1235,1.1235,1.1235,1.1241,1.1251,1.1209,1.0961,1.0724,1.0492,1.0256,1.0236,1.0068,0.9846,0.998,0.991,0.9706,0.9689,0.9823,0.9961,0.9658,0.9711,0.9886,0.9627,0.9983,1.0548,1.0548,1.0968,1.1516,1.1516,1.2012,1.2512,1.2512,1.3,1.3408,1.3057,1.331,1.3532,1.3403,1.3416,1.3581,1.4273,1.4071,1.4014,1.4605,1.4708,1.4789,1.5062,1.5108,1.5108,1.5108,1.5901,1.6723,1.7434,1.7747,1.8003,1.8202,1.8489,1.8707,1.8898,1.95,1.9949,2.0314,2.0959,2.1462,2.1797,2.2135,2.2338,2.2405,2.2616,2.2781,2.2917,2.3111,2.3212,0.6082,0.0,0.8358,0.8377,0.9137,0.9909,0.9811,0.9714,0.9703,0.9747,0.971,0.9555,0.919,0.9138,0.9033,0.8725,0.853,0.8435,0.8435,0.8137,0.7849,0.7632,0.7567,0.0,0.0,0.0,0.0,0.8479,0.8517,0.8651,0.8958,0.8969,0.9233,0.9798,1.0116,1.0358,1.0519,1.0826,1.0945,1.0875,1.0875,1.0955,1.1106,1.1106,1.0977,1.0751,1.067,1.0412,1.004,1.003,1.0024,1.0079,0.9918,0.998,1.0008,0.9755,0.9916,1.0053,0.9771,0.9719,0.9748,0.9626,0.9736,0.9896,0.9848,1.0295,1.085,1.085,1.1337,1.195,1.2389,1.2696,1.2915,1.3237,1.3269,1.3191,1.3144,1.2932,1.2805,1.302,1.3204,1.3399,1.3752,1.4046,1.4384,1.4789,1.4971,1.5198,1.5412,1.5957,1.6479,1.6934,1.7352,1.7652,1.7733,1.7975,1.8293,1.8669,1.9124,1.9515,1.9949,2.0614,2.1007,2.1135,2.1479,2.1751,2.2003,2.2084,2.2337,2.2773,2.2832,2.2972,0.5841,0.6794,0.761,0.8143,0.8832,0.94,0.9223,0.9157,0.9077,0.9042,0.8892,0.8669,0.8365,0.8229,0.8088,0.7838,0.7827,0.7864,0.8006,0.7709,0.7506,0.7308,0.7156,0.7101,0.0,0.0,0.0,0.8091,0.8456,0.8534,0.8338,0.9004,0.9479,0.9787,1.0349,1.0638,1.0638,1.0869,1.0869,1.0638,1.0638,1.0713,1.0864,1.0945,1.0853,1.0638,1.0638,1.0417,1.0046,0.996,0.9992,1.0051,0.9903,0.9936,1.0034,0.9868,0.9878,1.0077,0.9805,0.9763,0.9797,0.9685,0.9609,0.9504,0.9539,0.9808,1.0104,1.011,1.0604,1.1212,1.1648,1.195,1.232,1.3009,1.2964,1.289,1.318,1.2923,1.2672,1.2795,1.3067,1.3332,1.3577,1.3915,1.4291,1.4662,1.4834,1.5096,1.5546,1.5969,1.6318,1.668,1.7102,1.7434,1.7475,1.7652,1.7935,1.845,1.8745,1.9087,1.9464,2.0208,2.063,2.063,2.1071,2.1462,2.1797,2.1797,2.2061,2.2569,2.2554,2.2669,0.6005,0.6556,0.7014,0.7951,0.8184,0.8287,0.8583,0.8459,0.8312,0.8639,0.8268,0.7778,0.0,0.0,0.6878,0.6726,0.703,0.7433,0.7704,0.7338,0.7038,0.0,0.0,0.0,0.0,0.0,0.0,0.7339,0.0,0.8211,0.6889,0.852,0.928,0.8857,0.9948,1.0471,1.0557,1.0832,1.0821,1.06,1.06,1.0606,1.0622,1.0848,1.0826,1.0616,1.0616,1.0487,1.0256,1.0019,0.9922,0.9922,0.9922,0.9922,0.9922,0.9922,0.9922,0.9857,0.9768,0.9899,1.0052,0.9808,0.9553,0.9405,0.9539,0.9485,0.9338,0.9478,0.9919,1.0485,1.0485,1.0968,1.164,1.2266,1.2512,1.2668,1.3366,1.3278,1.3098,1.3497,1.3666,1.3772,1.3972,1.4253,1.4496,1.4729,1.4764,1.496,1.5501,1.5913,1.6275,1.6595,1.6947,1.724,1.7434,1.7475,1.7639,1.8109,1.8411,1.8669,1.886,1.9758,2.028,2.028,2.0926,2.1432,2.1751,2.1751,2.1961,2.231,2.231,2.231,0.5315,0.6164,0.6903,0.7633,0.8074,0.8309,0.8052,0.7799,0.75,0.7092,0.6915,0.6659,0.0,0.0,0.0,0.6416,0.6339,0.0,0.6937,0.6764,0.0,0.6278,0.0,0.6028,0.614,0.6058,0.0,0.0,0.6575,0.6925,0.6772,0.745,0.7939,0.8188,0.8621,0.9068,0.9562,0.9943,1.0159,1.0105,1.0105,1.0202,1.0385,1.0444,1.0439,1.0385,1.0385,1.0239,1.0008,0.9943,0.9922,0.9922,0.9922,0.9922,0.9922,0.9922,0.9922,0.9906,0.9856,0.9925,0.9936,0.9846,0.9602,0.9444,0.9451,0.9414,0.9338,0.9338,0.9536,0.9862,1.0358,1.0611,1.0912,1.1578,1.2135,1.2549,1.2772,1.2915,1.3003,1.3129,1.3479,1.3825,1.4143,1.4759,1.5142,1.5193,1.5246,1.5216,1.5245,1.5546,1.578,1.5844,1.6219,1.6565,1.6892,1.6879,1.7144,1.7652,1.8002,1.8305,1.8669,1.9317,1.9788,1.9914,2.0326,2.0828,2.1432,2.1432,2.1721,2.231,2.231,2.231,0.5365,0.6116,0.6788,0.7827,0.8207,0.8193,0.7725,0.733,0.686,0.6261,0.5975,0.0,0.0,0.0,0.0,0.0,0.0,0.0,0.6134,0.5915,0.5693,0.0,0.5229,0.0,0.5153,0.5077,0.5005,0.0,0.5769,0.6186,0.5752,0.6684,0.7278,0.7377,0.7797,0.8204,0.8617,0.8777,0.8922,0.9079,0.9079,0.9377,0.9828,1.0006,1.0073,1.0137,1.0245,1.0153,0.9922,0.9922,0.9922,0.9922,0.9922,0.9922,0.9922,0.9922,0.9922,0.9922,0.9922,0.9922,0.99,0.984,0.9635,0.9399,0.9399,0.9241,0.9087,0.9274,0.928,0.9408,0.9919,1.0047,1.0161,1.0905,1.1337,1.1772,1.2389,1.2671,1.2906,1.3456,1.3591,1.382,1.4205,1.4473,1.4704,1.5018,1.5209,1.5351,1.557,1.58,1.6017,1.6266,1.666,1.6913,1.7017,1.6992,1.7149,1.7488,1.7679,1.7922,1.8293,1.8974,1.9384,1.9479,2.001,2.0561,2.1087,2.1087,2.1448,2.2077,2.2077,2.2152,0.5763,0.6322,0.6724,0.814,0.8285,0.7978,0.7453,0.6876,0.6292,0.5723,0.0,0.4999,0.4911,0.4734,0.4736,0.4974,0.0,0.5121,0.5393,0.5026,0.4733,0.4668,0.4156,0.377,0.3864,0.3816,0.3845,0.3814,0.5306,0.5645,0.438,0.5887,0.6649,0.6204,0.7126,0.7627,0.7545,0.7463,0.7617,0.8003,0.7927,0.8313,0.9099,0.9359,0.9648,0.9857,1.0153,1.0121,0.9922,0.9922,0.9922,0.9922,0.9922,0.9922,0.9922,0.9922,0.9922,0.9922,0.9922,0.9922,0.9922,0.9922,0.9599,0.9206,0.9432,0.9158,0.8835,0.9145,0.9145,0.9087,0.935,0.9344,0.9466,1.0168,1.0421,1.0793,1.1958,1.2389,1.2818,1.3881,1.3861,1.3802,1.4203,1.396,1.3914,1.46,1.4923,1.5289,1.6005,1.6267,1.661,1.7083,1.74,1.7494,1.7397,1.7405,1.7505,1.7615,1.7673,1.7797,1.8072,1.8807,1.9233,1.931,2.0053,2.062,2.1029,2.0984,2.1247,2.187,2.1831,2.1961,0.5763,0.6322,0.6689,0.7939,0.8032,0.7677,0.6981,0.6468,0.0,0.0,0.4568,0.4354,0.3863,0.3738,0.3933,0.4499,0.0,0.0,0.0,0.0,0.3838,0.0,0.0,0.0,0.0,0.0,0.0,0.0,0.4194,0.4133,0.3917,0.4403,0.4656,0.4749,0.5713,0.6179,0.6193,0.6703,0.7076,0.7318,0.7153,0.7387,0.8093,0.8426,0.8885,0.9397,0.9818,0.996,0.9922,0.9922,0.9922,0.9922,0.9922,0.9922,0.9922,0.9922,0.9922,0.9922,0.9922,0.9922,0.9922,0.9922,0.9599,0.9206,0.9206,0.9018,0.8835,0.8899,0.8958,0.9017,0.9087,0.9081,0.9145,0.946,0.9901,1.0401,1.0793,1.171,1.2696,1.3511,1.3888,1.415,1.4209,1.4211,1.4392,1.4792,1.4855,1.5005,1.5484,1.6122,1.6619,1.6673,1.6773,1.6936,1.7195,1.752,1.785,1.8142,1.8462,1.8803,1.9039,1.9394,1.9894,2.0491,2.0976,2.1584,2.2305,2.1846,2.1836,2.22,2.1941,2.1827,0.5763,0.6322,0.6681,0.7887,0.7973,0.7549,0.6613,0.0,0.0,0.0,0.0,0.3451,0.3177,0.0,0.0,0.0,0.0,0.0,0.0,0.0,0.0,0.0,0.0,0.0,0.0,0.0,0.0,0.3759,0.3814,0.3763,0.3763,0.3999,0.4157,0.4231,0.4744,0.5056,0.5154,0.5384,0.5693,0.6083,0.5925,0.6311,0.7161,0.731,0.777,0.8389,0.8537,0.8613,0.8613,0.8613,0.8613,0.8613,0.8613,0.8922,0.9311,0.9311,0.9539,0.9922,0.9922,0.9922,0.9922,0.9922,0.9599,0.9206,0.9206,0.8945,0.8641,0.877,0.877,0.8765,0.8952,0.8958,0.8958,0.9081,0.9709,1.0338,1.0408,1.1524,1.2573,1.2948,1.3442,1.3821,1.3821,1.3901,1.4064,1.4451,1.4668,1.4985,1.57,1.6199,1.6607,1.6791,1.7151,1.7416,1.7556,1.7908,1.8178,1.8308,1.8668,1.8957,1.9106,1.9724,2.0231,2.057,2.134,2.1925,2.2308,2.2022,2.192,2.1911,2.1777,2.1728,0.5696,0.6169,0.6557,0.769,0.7875,0.7365,0.6226,0.54,0.0,0.0,0.2989,0.2633,0.2616,0.0,0.0,0.0,0.0,0.0,0.0,0.0,0.0,0.0,0.0,0.0,0.0,0.0,0.0,0.3571,0.3722,0.3763,0.3763,0.3921,0.4001,0.4001,0.4153,0.4307,0.4307,0.4307,0.446,0.4771,0.4771,0.5234,0.6079,0.6234,0.6615,0.7306,0.7306,0.7383,0.7464,0.7383,0.7383,0.7383,0.7383,0.777,0.8313,0.847,0.8927,0.9463,0.9695,0.9771,0.9771,0.9846,0.9631,0.9276,0.9222,0.8915,0.8581,0.8722,0.8641,0.8582,0.8829,0.8829,0.877,0.8894,0.9524,1.0085,1.0205,1.1142,1.2012,1.2197,1.2757,1.326,1.326,1.3322,1.3545,1.3992,1.4287,1.4751,1.5446,1.6042,1.6493,1.6633,1.7452,1.7978,1.788,1.8298,1.8572,1.8543,1.8887,1.917,1.9277,2.0048,2.0566,2.0783,2.163,2.2164,2.2379,2.2267,2.211,2.189,2.1842,2.1931,0.5366,0.5776,0.5998,0.7099,0.7389,0.7032,0.5746,0.0,0.0,0.3079,0.2604,0.2342,0.2109,0.2159,0.0,0.0,0.0,0.2625,0.0,0.0,0.0,0.0,0.0,0.0,0.0,0.0,0.0,0.3738,0.3759,0.3763,0.3763,0.3841,0.3841,0.3841,0.3841,0.3921,0.4157,0.3921,0.3999,0.4155,0.3997,0.4231,0.4854,0.5231,0.5848,0.6619,0.6765,0.7,0.7238,0.7,0.6842,0.6842,0.6842,0.6919,0.7076,0.7621,0.7936,0.8089,0.9013,0.9322,0.9397,0.9771,0.975,0.9502,0.9276,0.9028,0.8786,0.8576,0.8517,0.8517,0.8511,0.8517,0.8576,0.877,0.8958,0.9268,0.9894,1.0142,1.0458,1.1267,1.1958,1.2451,1.2573,1.2812,1.3134,1.352,1.3691,1.3823,1.3832,1.5176,1.5987,1.5591,1.6852,1.7744,1.7699,1.834,1.8903,1.9273,1.9699,2.0104,2.0492,2.0641,2.1089,2.1913,2.2144,2.2745,2.3643,2.3152,2.2899,2.2863,2.263,2.2726,0.5218,0.5654,0.6055,0.6881,0.7007,0.6607,0.5474,0.0,0.4094,0.2804,0.2205,0.1887,0.1783,0.1693,0.1784,0.0,0.0,0.0,0.0,0.0,0.0,0.0,0.0,0.0,0.0,0.0,0.2825,0.3748,0.3763,0.3763,0.3763,0.3763,0.3763,0.3763,0.3763,0.3841,0.3921,0.3841,0.3841,0.3921,0.3841,0.3999,0.4311,0.454,0.4849,0.5231,0.5306,0.5386,0.5541,0.5386,0.5384,0.5384,0.5384,0.5616,0.6157,0.6773,0.7318,0.7936,0.8703,0.9089,0.9322,0.9473,0.9637,0.9712,0.9324,0.9044,0.8813,0.8581,0.8517,0.8517,0.8517,0.8517,0.8511,0.8582,0.877,0.8958,0.921,0.9646,1.0078,1.0458,1.1454,1.2328,1.2389,1.2893,1.3348,1.3485,1.3562,1.3652,1.3956,1.4554,1.5119,1.5538,1.669,1.7423,1.7434,1.8084,1.8667,1.9146,1.9695,2.0207,2.0699,2.0997,2.1326,2.1684,2.2002,2.2558,2.3246,2.3039,2.2927,2.2884,2.2757,2.2778,0.4952,0.5362,0.5762,0.6568,0.6601,0.6234,0.0,0.4522,0.3756,0.2546,0.1938,0.1591,0.1523,0.1399,0.1423,0.0,0.0,0.2005,0.0,0.0,0.0,0.0,0.0,0.0,0.0,0.213,0.272,0.3363,0.3684,0.3684,0.345,0.3684,0.3763,0.3763,0.3763,0.3763,0.3763,0.3763,0.3763,0.3763,0.3763,0.3843,0.3999,0.3999,0.4155,0.4309,0.4229,0.4229,0.4309,0.4229,0.4229,0.4229,0.4229,0.4538,0.5157,0.5774,0.6391,0.7011,0.7931,0.847,0.8784,0.917,0.9473,0.9697,0.9366,0.9152,0.8915,0.8684,0.8565,0.8517,0.8517,0.8517,0.8517,0.8517,0.8576,0.8705,0.8705,0.9145,0.9582,0.9646,1.0766,1.1834,1.1958,1.2765,1.339,1.3511,1.3511,1.3631,1.3941,1.413,1.4547,1.5371,1.6228,1.6864,1.7099,1.7634,1.8224,1.8774,1.9384,1.9952,2.0485,2.0934,2.1277,2.1423,2.1732,2.2142,2.2649,2.2844,2.2878,2.2837,2.3005,2.3117,0.4599,0.4907,0.5089,0.59,0.6146,0.5939,0.0,0.4288,0.3551,0.2352,0.1843,0.1544,0.1338,0.129,0.1374,0.1667,0.1859,0.0,0.0,0.0,0.0,0.0,0.0,0.0,0.0,0.1577,0.251,0.2511,0.3294,0.0,0.2589,0.3294,0.3763,0.3763,0.3763,0.3763,0.3763,0.3763,0.3763,0.3763,0.3763,0.3763,0.3841,0.3841,0.3921,0.4079,0.3921,0.3921,0.4079,0.3921,0.3841,0.3841,0.3841,0.3841,0.3919,0.4465,0.4698,0.4932,0.6626,0.7242,0.7472,0.8861,0.9322,0.9357,0.9574,0.94,0.9152,0.8921,0.8694,0.8517,0.8517,0.8517,0.8517,0.8517,0.8517,0.8517,0.8517,0.8517,0.8576,0.877,0.9703,1.0703,1.1205,1.222,1.3103,1.345,1.3511,1.3511,1.3511,1.3941,1.4369,1.4834,1.5371,1.6019,1.6761,1.7032,1.7512,1.8278,1.8774,1.9291,1.9991,2.0485,2.0947,2.1375,2.141,2.1636,2.2128,2.2649,2.2889,2.292,2.3508,2.4048,0.408,0.4402,0.4703,0.5066,0.5035,0.4809,0.4427,0.3769,0.3005,0.2249,0.1722,0.1386,0.1311,0.129,0.1443,0.1829,0.1939,0.0,0.0,0.0,0.0,0.0,0.0,0.0,0.0,0.0,0.1646,0.1646,0.1959,0.1959,0.1724,0.243,0.3215,0.3763,0.3763,0.3763,0.3763,0.3763,0.3763,0.3763,0.3763,0.3763,0.3763,0.3763,0.3841,0.3921,0.3841,0.3841,0.3921,0.3841,0.3763,0.3763,0.3763,0.3763,0.3841,0.4465,0.4701,0.4854,0.5777,0.6318,0.6703,0.7548,0.8237,0.8732,0.9122,0.9185,0.9125,0.8732,0.8571,0.8517,0.8517,0.8517,0.8517,0.8517,0.8517,0.8517,0.8517,0.8517,0.8511,0.8576,0.9396,1.0212,1.064,1.1524,1.2405,1.3033,1.3164,1.3216,1.345,1.3631,1.3881,1.4369,1.4834,1.5546,1.6431,1.6761,1.7134,1.7667,1.8061,1.8548,1.9291,1.9747,2.0093,2.0459,2.0785,2.1131,2.1636,2.1779,2.2249,2.2889,2.3216,2.3551,0.0,0.3987,0.4288,0.4504,0.4384,0.4201,0.3978,0.3348,0.268,0.2143,0.1687,0.1384,0.1311,0.129,0.1427,0.1807,0.1921,0.0,0.0,0.0,0.0,0.0,0.0,0.0,0.0,0.0833,0.0784,0.0784,0.1097,0.1175,0.0862,0.1882,0.2744,0.3294,0.3606,0.3763,0.3763,0.3763,0.3763,0.3763,0.3763,0.3763,0.3763,0.3763,0.3763,0.3763,0.3763,0.3763,0.0,0.3763,0.3763,0.3763,0.3763,0.3763,0.3841,0.4231,0.4387,0.4465,0.5082,0.5392,0.578,0.6549,0.7468,0.8197,0.837,0.8684,0.9001,0.8619,0.8517,0.8517,0.8517,0.8517,0.8517,0.8517,0.8517,0.8517,0.8517,0.8517,0.8517,0.8517,0.9081,0.9773,1.0142,1.0829,1.1586,1.2413,1.2658,1.2903,1.3277,1.339,1.3692,1.413,1.4597,1.5245,1.6087,1.642,1.6807,1.7123,1.7501,1.8007,1.8721,1.9319,1.9722,1.9991,2.0485,2.0848,2.1131,2.1326,2.1921,2.2889,2.2979,2.3304,0.0,0.3668,0.3804,0.4122,0.4151,0.3993,0.3539,0.3029,0.0,0.201,0.1719,0.1527,0.1355,0.1329,0.1391,0.1623,0.1761,0.0,0.0,0.0,0.0,0.0,0.0,0.0,-0.007,-0.0075,-0.0078,-0.0078,0.0627,0.0784,-0.0078,0.1489,0.2431,0.2431,0.3292,0.3763,0.3763,0.3763,0.3763,0.3763,0.3763,0.3763,0.3763,0.3763,0.3763,0.3763,0.3763,0.3763,0.3763,0.3763,0.3763,0.3763,0.3763,0.3763,0.3763,0.3763,0.3763,0.3841,0.4465,0.4623,0.4776,0.5777,0.685,0.7651,0.7397,0.8028,0.8772,0.8543,0.8463,0.8452,0.8517,0.8517,0.8517,0.8517,0.8517,0.8517,0.8517,0.8517,0.8517,0.8517,0.8894,0.9338,0.9709,1.0148,1.0703,1.1586,1.202,1.2397,1.292,1.3277,1.3631,1.413,1.4538,1.5079,1.5614,1.6087,1.6488,1.6761,1.7123,1.7611,1.817,1.9044,1.9619,1.9888,2.0385,2.0649,2.0699,2.1131,2.1827,2.2799,2.2844,2.3113,0.2928,0.0,0.3098,0.3074,0.305,0.3039,0.0,0.2554,0.2182,0.0,0.0,0.0,0.0,0.1494,0.1599,0.205,0.0,0.1362,0.0,0.0,0.0,0.0,0.0,-0.1083,-0.0939,-0.0988,-0.1021,-0.1021,-0.0785,-0.0785,-0.1021,0.0627,0.1568,0.1568,0.3056,0.3763,0.3763,0.3763,0.3763,0.3763,0.3763,0.3763,0.3763,0.3763,0.3763,0.3763,0.3763,0.3763,0.3763,0.3763,0.3763,0.3763,0.3763,0.3763,0.3763,0.3763,0.3763,0.3841,0.3997,0.3997,0.4151,0.5154,0.5927,0.6357,0.6615,0.7479,0.8314,0.831,0.8256,0.8182,0.8447,0.8517,0.8517,0.8517,0.8517,0.8517,0.8517,0.8517,0.8517,0.8517,0.8576,0.8829,0.9332,0.9524,0.9837,1.0703,1.1219,1.1732,1.2397,1.2842,1.3277,1.3631,1.4061,1.4547,1.5079,1.5904,1.6441,1.6488,1.6591,1.6807,1.7145,1.7886,1.8429,1.8697,1.9683,2.0321,2.0699,2.0799,2.118,2.1732,2.2142,2.2558,0.265,0.2785,0.2902,0.2924,0.2859,0.2818,0.2903,0.0,0.0,0.0,0.0,0.0,0.0,0.0,0.0,0.0,0.1859,0.0,0.0,0.0,0.0,0.0,0.0,-0.1295,0.0,-0.1436,-0.1475,-0.1335,-0.1415,-0.1415,-0.1335,-0.0,0.0862,0.1254,0.2508,0.3372,0.3763,0.3763,0.3763,0.3763,0.3763,0.3763,0.3763,0.3763,0.3763,0.3763,0.3763,0.3763,0.3763,0.3763,0.3763,0.3763,0.3763,0.3763,0.3763,0.3763,0.3763,0.3763,0.3763,0.3763,0.3919,0.4457,0.4955,0.5363,0.5588,0.6334,0.7191,0.755,0.7821,0.8052,0.8252,0.8382,0.8517,0.8517,0.8517,0.8517,0.8517,0.8517,0.8517,0.8517,0.8517,0.8582,0.8894,0.8958,0.9145,0.9831,1.0345,1.0968,1.1958,1.2397,1.2903,1.345,1.3941,1.4309,1.4547,1.5488,1.6144,1.6384,1.6384,1.6545,1.6818,1.7346,1.805,1.8898,1.9515,2.0105,2.0699,2.0699,2.0947,2.1423,2.1636,2.2049,0.266,0.2798,0.2998,0.3074,0.2998,0.2978,0.3135,0.0,0.0,0.0,0.0,0.0,0.0,0.0,0.0,0.0,0.0,0.0,0.0,0.0,0.0,0.0,-0.1378,0.0,-0.1455,-0.1643,-0.1684,-0.1412,-0.1572,-0.1572,-0.1336,-0.0549,0.0313,0.1097,0.1959,0.2823,0.3606,0.3763,0.3763,0.3763,0.3763,0.3763,0.3763,0.3763,0.3763,0.3763,0.3763,0.3763,0.3763,0.3763,0.3763,0.3763,0.3763,0.3763,0.3763,0.3763,0.3763,0.3763,0.3763,0.3763,0.3763,0.3763,0.4153,0.4545,0.4545,0.5142,0.5847,0.626,0.7096,0.7857,0.7922,0.8187,0.8452,0.8452,0.8452,0.8517,0.8517,0.8517,0.8517,0.8517,0.8517,0.8517,0.8517,0.8517,0.8641,0.9081,0.946,1.0148,1.1454,1.1958,1.252,1.3329,1.3821,1.413,1.4189,1.502,1.5788,1.6259,1.6374,1.6545,1.6818,1.7123,1.7972,1.9359,1.9463,1.9888,2.0599,2.0649,2.0898,2.1277,2.1375,2.1589,0.3175,0.3321,0.3261,0.2672,0.2847,0.3131,0.0,0.0,0.0,0.0,0.0,0.0,0.0,0.0,0.0,0.0,0.0,0.0,0.0,0.0,0.0,-0.1542,0.0,-0.1629,-0.1673,-0.1717,-0.1837,-0.1804,-0.1808,-0.1729,-0.1572,-0.0863,-0.0313,0.0157,0.1565,0.2427,0.2666,0.345,0.3763,0.3763,0.3763,0.3763,0.3763,0.3763,0.3763,0.3763,0.3763,0.3763,0.3763,0.3763,0.3763,0.3763,0.3763,0.3763,0.3763,0.3763,0.3763,0.3763,0.3763,0.3763,0.3763,0.3763,0.3841,0.3919,0.3919,0.4237,0.4568,0.4693,0.5837,0.7138,0.7461,0.7852,0.8052,0.8052,0.8317,0.8517,0.8517,0.8517,0.8517,0.8517,0.8517,0.8517,0.8517,0.8517,0.8517,0.8576,0.9081,0.9709,1.0577,1.1392,1.2212,1.2972,1.3398,1.3761,1.4189,1.4725,1.5254,1.5798,1.6202,1.6545,1.6818,1.6864,1.7401,1.8483,1.8869,1.9448,2.0105,2.0485,2.0749,2.0799,2.1229,2.1423,0.303,0.3119,0.3131,0.2895,0.3143,0.3409,0.3293,0.0,0.0,0.0,0.0,0.0,0.0,0.0,0.0,0.0,0.0,0.0,-0.0834,-0.1306,-0.1657,0.0,0.0,-0.1803,-0.178,-0.195,-0.1996,-0.1845,-0.1904,-0.1911,-0.1805,-0.1473,-0.0928,-0.0313,0.0313,0.1252,0.2349,0.274,0.321,0.3763,0.3763,0.3763,0.3763,0.3763,0.3763,0.3763,0.3763,0.3763,0.3763,0.3763,0.3763,0.3763,0.3763,0.3763,0.3763,0.3763,0.3763,0.3763,0.3763,0.3763,0.3763,0.3763,0.3763,0.3754,0.3703,0.3968,0.4272,0.4288,0.5108,0.6141,0.6601,0.6999,0.7396,0.7657,0.7852,0.7987,0.8182,0.8247,0.8317,0.8452,0.8517,0.8517,0.8517,0.8517,0.8517,0.8517,0.8705,0.9145,1.0021,1.0703,1.1461,1.2528,1.2972,1.3398,1.3821,1.424,1.4961,1.6029,1.6259,1.6431,1.6602,1.6591,1.6976,1.7776,1.8224,1.8857,1.9773,2.0156,2.0435,2.0699,2.0947,2.1033,0.2904,0.2945,0.301,0.3228,0.0,0.3616,0.3681,0.0,0.0,0.0,0.0,0.0,0.0,0.0,0.0,0.0,0.0,0.0258,-0.078,-0.1393,-0.1817,-0.1951,-0.1951,-0.1973,-0.1959,-0.2104,-0.2146,-0.1947,-0.1993,-0.2004,-0.1928,-0.1897,-0.1594,-0.0932,-0.0777,0.0078,0.1564,0.1799,0.2506,0.3763,0.3763,0.3763,0.3763,0.3763,0.3763,0.3763,0.3763,0.3763,0.3763,0.3763,0.3763,0.3763,0.3763,0.3763,0.3763,0.3763,0.3763,0.3763,0.3763,0.3763,0.3763,0.3763,0.3763,0.375,0.3679,0.3878,0.4128,0.405,0.4404,0.4948,0.5609,0.6145,0.6671,0.7064,0.7326,0.7591,0.7852,0.7922,0.8052,0.8317,0.8447,0.8517,0.8517,0.8517,0.8517,0.8517,0.8517,0.8765,0.9588,1.0142,1.0892,1.1965,1.2605,1.3164,1.3631,1.4121,1.4902,1.6144,1.6316,1.6384,1.6384,1.6384,1.6637,1.7234,1.7623,1.8255,1.9307,1.9722,2.0105,2.0549,2.0649,2.0699,0.3247,0.326,0.3236,0.3419,0.0,0.0,0.3865,0.3705,0.0,0.0,0.0,0.0,0.0,0.0,0.0,0.0,0.0,0.0195,-0.0467,0.0,-0.2154,-0.2154,-0.2154,-0.2177,-0.2169,-0.2174,-0.22,-0.2264,-0.2265,-0.2192,-0.198,-0.2197,-0.2072,-0.1746,-0.1137,-0.0612,-0.0157,0.0627,0.1958,0.3763,0.3763,0.3763,0.3763,0.3763,0.3763,0.3763,0.3763,0.3763,0.3763,0.3763,0.3763,0.3763,0.3763,0.3763,0.3763,0.3763,0.3763,0.3763,0.3763,0.3763,0.3763,0.3763,0.3763,0.3763,0.3756,0.3709,0.357,0.3566,0.3432,0.3558,0.4616,0.5543,0.6145,0.6207,0.6868,0.7521,0.7521,0.7787,0.7987,0.8052,0.8317,0.8517,0.8517,0.8517,0.8517,0.8517,0.8517,0.8705,0.9274,1.0021,1.071,1.1296,1.2367,1.3285,1.407,1.4597,1.5137,1.573,1.6144,1.6384,1.6384,1.6384,1.6545,1.6807,1.7224,1.7776,1.8387,1.9202,1.9773,2.0055,2.0485,2.0699,0.3029,0.3246,0.3453,0.3475,0.0,0.0,0.0,0.0,0.0,0.0,0.0,0.0,0.0,0.0,0.0,0.0,0.0316,-0.026,-0.1406,-0.1951,-0.2221,-0.2221,-0.2221,-0.2231,-0.2185,-0.2188,-0.2213,-0.2203,-0.2244,-0.2256,-0.2186,-0.2228,-0.2235,-0.2145,-0.1553,-0.0897,-0.0077,0.0842,0.1852,0.2979,0.2743,0.2586,0.2429,0.3059,0.3374,0.3374,0.3686,0.3763,0.3763,0.3763,0.3763,0.3763,0.3763,0.3763,0.3763,0.3763,0.3763,0.3763,0.3763,0.3763,0.3763,0.3763,0.3763,0.3742,0.3632,0.3552,0.3477,0.3362,0.3281,0.336,0.409,0.4556,0.4954,0.5613,0.6075,0.6474,0.7003,0.7204,0.7466,0.7922,0.8117,0.8252,0.8452,0.8517,0.8517,0.8517,0.8517,0.8576,0.877,0.9332,1.0021,1.0717,1.2104,1.3224,1.37,1.4181,1.4775,1.5478,1.6077,1.6384,1.6384,1.6384,1.6431,1.6545,1.6864,1.7234,1.7722,1.8738,1.9436,1.9773,2.0372,2.0699,0.2945,0.3122,0.3408,0.0,0.0,0.0,0.0,0.0,0.0,0.0,0.0,0.0,0.0,0.0,0.0,0.0,-0.0127,-0.065,-0.1742,-0.2087,-0.2221,-0.2221,-0.2221,-0.2221,-0.2221,-0.2221,-0.2172,-0.2213,-0.2177,-0.2191,-0.2274,-0.2238,-0.2244,-0.2233,-0.1945,-0.1239,-0.0299,0.0299,0.0979,0.1609,0.1533,0.1623,0.1881,0.2413,0.2727,0.2746,0.3215,0.3214,0.3056,0.3292,0.3372,0.3372,0.3372,0.3528,0.3763,0.3763,0.3763,0.3763,0.3763,0.3763,0.3763,0.3763,0.3763,0.374,0.362,0.3544,0.3473,0.3348,0.3271,0.3293,0.3627,0.3894,0.4161,0.4888,0.5216,0.5481,0.6079,0.6478,0.6806,0.7326,0.7657,0.7922,0.8317,0.8317,0.8382,0.8511,0.8517,0.8517,0.8517,0.8958,0.9652,1.0647,1.1911,1.2972,1.345,1.3812,1.4291,1.5059,1.5778,1.6259,1.6374,1.6384,1.6384,1.6384,1.6591,1.6864,1.7234,1.8321,1.9016,1.9423,2.0283,2.0699,0.3104,0.3014,0.0,0.0,0.0,0.0,0.0,0.0,0.0,0.0,0.0,0.0,0.0,0.0,0.0,0.0765,-0.0193,-0.0976,-0.1272,-0.1817,-0.2221,-0.2221,-0.2221,-0.2221,-0.2221,-0.2221,-0.2221,-0.2221,-0.2221,-0.2221,-0.2221,-0.2221,-0.2181,-0.2171,-0.2174,-0.1846,-0.1166,-0.1166,-0.0874,-0.0364,0.0219,0.1196,0.2429,0.1986,0.1838,0.1881,0.2352,0.2038,0.1332,0.2195,0.251,0.251,0.251,0.3059,0.3763,0.3763,0.3763,0.3763,0.3763,0.3763,0.3763,0.3763,0.3763,0.3763,0.3761,0.3638,0.3499,0.3497,0.3367,0.3226,0.3226,0.3627,0.3961,0.4028,0.4422,0.4815,0.4815,0.5481,0.6075,0.6075,0.6868,0.7591,0.7917,0.7987,0.8117,0.8447,0.8517,0.8517,0.8517,0.8958,0.9779,1.1038,1.1787,1.2536,1.345,1.3511,1.3812,1.4469,1.5254,1.5914,1.6374,1.6384,1.6384,1.6384,1.6384,1.6545,1.6818,1.7941,1.8643,1.904,2.0182,2.0699,0.3152,0.0,0.0,0.0,0.0,0.0,0.0,0.0,0.0,0.0,0.0,0.0,0.0445,0.0,0.0,-0.0384,-0.0901,-0.1431,-0.1877,-0.2087,-0.2221,-0.2221,-0.2221,-0.2221,-0.2221,-0.2221,-0.2221,-0.2221,-0.2221,-0.2221,-0.2221,-0.2221,-0.223,-0.218,-0.143,-0.0897,-0.0709,0.0355,0.0787,0.0729,0.1144,0.1155,0.0894,0.1772,0.1922,0.1492,0.2125,0.1986,0.13,0.1556,0.1646,0.1646,0.1646,0.2195,0.2901,0.2901,0.3294,0.3763,0.3763,0.3763,0.3763,0.3763,0.372,0.3656,0.3595,0.3497,0.3391,0.3326,0.3269,0.3226,0.3226,0.3293,0.356,0.3894,0.4092,0.4356,0.4749,0.5014,0.5345,0.6009,0.6338,0.6798,0.7857,0.7987,0.8117,0.8447,0.8517,0.8517,0.8517,0.8641,0.9145,1.0212,1.1233,1.2228,1.339,1.3511,1.3571,1.3812,1.4883,1.5778,1.6374,1.6384,1.6384,1.6384,1.6384,1.6431,1.6545,1.7567,1.8267,1.8697,1.9747,2.0372,0.3336,0.0,0.0,0.0,0.0,0.0,0.0,0.0,0.0,0.0,0.0,0.0,-0.0131,-0.0511,0.0,-0.1043,-0.1442,-0.1847,-0.2149,-0.2221,-0.2221,-0.2221,-0.2221,-0.2221,-0.2221,-0.2221,-0.2221,-0.2221,-0.2221,-0.2221,-0.2221,-0.2221,-0.2221,-0.2221,-0.1277,-0.0745,-0.0482,0.062,0.1043,0.0847,0.1042,0.0695,-0.0071,0.0856,0.0937,0.0365,0.0666,0.0674,0.0529,0.0307,0.0388,0.0627,0.0627,0.1175,0.1882,0.1882,0.2194,0.2741,0.3136,0.3294,0.3366,0.3643,0.3671,0.3609,0.3526,0.3436,0.3352,0.3297,0.3254,0.3226,0.3226,0.3226,0.3293,0.3627,0.3694,0.3761,0.409,0.4353,0.4686,0.5415,0.5745,0.6276,0.74,0.7596,0.7787,0.8177,0.8382,0.8517,0.8517,0.8517,0.8705,0.9326,1.073,1.1926,1.2658,1.3208,1.3511,1.3511,1.4222,1.5177,1.6374,1.6384,1.6384,1.6384,1.6384,1.6384,1.6384,1.7412,1.8007,1.8267,1.9279,2.0016,0.0,0.0,0.0,0.0,0.0,0.0,0.0,0.0,0.0,0.0,0.0,0.0715,-0.0468,-0.0855,-0.1109,-0.1339,-0.1817,-0.2221,-0.2221,-0.2221,-0.2221,-0.2221,-0.2221,-0.2221,-0.2221,-0.2221,-0.2221,-0.2221,-0.2221,-0.2221,-0.2221,-0.2221,-0.2154,-0.2154,-0.1547,-0.0941,-0.0403,0.0067,0.0336,0.0403,0.0269,-0.0,-0.0471,-0.0345,-0.0567,-0.109,-0.1526,-0.1252,-0.0678,-0.1285,-0.1074,-0.0469,-0.047,0.0078,0.0783,0.0783,0.0784,0.1018,0.2033,0.2345,0.2492,0.3264,0.3458,0.3513,0.3509,0.3424,0.335,0.335,0.3291,0.3226,0.3226,0.3226,0.3226,0.3226,0.3226,0.3226,0.3226,0.356,0.4092,0.455,0.5147,0.5815,0.6679,0.6942,0.7195,0.7777,0.8247,0.8517,0.8517,0.8517,0.8517,0.8517,1.0358,1.1622,1.1622,1.2781,1.3511,1.3511,1.3511,1.4282,1.6077,1.6259,1.6316,1.6384,1.6374,1.6374,1.6384,1.7357,1.7843,1.7897,1.8881,1.9552,0.0,0.0,0.0,0.0,0.0,0.0,0.0,0.0,0.0,0.0,0.0,-0.0519,-0.1606,-0.1874,-0.1938,-0.2017,-0.2087,-0.2221,-0.2221,-0.2221,-0.2221,-0.2221,-0.2221,-0.2221,-0.2221,-0.2221,-0.2221,-0.2221,-0.2221,-0.2221,-0.2221,-0.2221,-0.1951,-0.148,-0.0941,-0.0403,0.0134,0.0269,0.0538,0.0941,0.0067,-0.0403,-0.0471,-0.0203,-0.0275,-0.0777,-0.1413,-0.1579,-0.1472,-0.1653,-0.1672,-0.1453,-0.1559,-0.102,-0.0313,-0.0313,0.0157,0.0703,0.115,0.1294,0.1441,0.2367,0.2605,0.2701,0.3256,0.3328,0.3256,0.3256,0.3242,0.3226,0.3226,0.3226,0.3226,0.3226,0.3226,0.3226,0.3226,0.3293,0.3426,0.3491,0.4287,0.5282,0.635,0.6548,0.6942,0.8187,0.8447,0.8517,0.8517,0.8517,0.8517,0.8517,1.0358,1.1622,1.1622,1.2781,1.3511,1.3511,1.3511,1.3683,1.4112,1.5059,1.5836,1.6384,1.6029,1.6029,1.6384,1.6818,1.7357,1.7897,1.8333,1.8869,0.0,0.0,0.0,0.0,0.0,0.0,0.0,0.0,0.0,0.0,0.0,-0.0888,-0.1933,-0.2157,-0.2176,-0.2176,-0.2202,-0.2221,-0.2221,-0.2221,-0.2221,-0.2221,-0.2221,-0.2221,-0.2221,-0.2221,-0.2221,-0.2221,-0.2221,-0.2087,-0.1817,-0.2018,-0.1951,-0.1344,-0.0806,-0.0336,-0.0067,0.0403,0.0538,0.0336,-0.0202,-0.0806,-0.1277,-0.1143,-0.1152,-0.1374,-0.1787,-0.1955,-0.1935,-0.1889,-0.1854,-0.1973,-0.1999,-0.1709,-0.1332,-0.1332,-0.1097,-0.0624,0.0076,0.0302,0.0525,0.1807,0.2192,0.2303,0.3101,0.3264,0.3226,0.3226,0.3226,0.3226,0.3226,0.3226,0.3226,0.3226,0.3226,0.3226,0.3226,0.3226,0.3226,0.3226,0.3625,0.4553,0.6152,0.642,0.6876,0.8317,0.8517,0.8517,0.8517,0.8517,0.8517,0.8517,0.9466,1.0548,1.1498,1.2236,1.2842,1.345,1.3511,1.3511,1.3511,1.4163,1.4824,1.5488,1.5614,1.5798,1.6087,1.6534,1.6976,1.7357,1.7799,1.8344,0.0,0.0,0.0,0.0,0.0,0.0,0.0,0.0,0.0,0.0,-0.0,-0.0858,-0.1786,-0.2014,-0.2112,-0.2112,-0.2155,-0.2192,-0.2203,-0.2206,-0.2209,-0.222,-0.2221,-0.2221,-0.2221,-0.2221,-0.2221,-0.2221,-0.2221,-0.1951,-0.1344,-0.1749,-0.1748,-0.1076,-0.0605,-0.0336,-0.0202,0.0538,0.0538,-0.0336,-0.0538,-0.1143,-0.2018,-0.2154,-0.2221,-0.2221,-0.2221,-0.2183,-0.2161,-0.203,-0.2015,-0.2096,-0.2114,-0.2223,-0.226,-0.226,-0.226,-0.2095,-0.113,-0.0746,-0.0518,0.1058,0.1597,0.1867,0.2639,0.2958,0.3092,0.3092,0.3159,0.3226,0.3226,0.3226,0.3226,0.3226,0.3226,0.3226,0.3226,0.3226,0.3226,0.3226,0.3491,0.4292,0.6086,0.642,0.6811,0.7992,0.8317,0.8517,0.8517,0.8517,0.8517,0.8517,0.8517,0.9338,1.1435,1.1622,1.205,1.3086,1.339,1.3511,1.3511,1.3511,1.3752,1.435,1.5137,1.5614,1.5672,1.642,1.6761,1.6807,1.7368,1.7799,0.0,0.0,0.0,0.0,0.0,0.0,0.0,0.0,0.0,0.0,-0.0174,-0.1076,-0.1656,-0.1917,-0.1984,-0.1984,-0.1991,-0.2078,-0.2133,-0.214,-0.2159,-0.2214,-0.2221,-0.2221,-0.2221,-0.2221,-0.2221,-0.2221,-0.2221,-0.1951,-0.1344,-0.1345,-0.0941,0.0067,0.0134,0.0403,0.0874,0.0538,0.0336,0.0202,-0.0739,-0.1277,-0.1412,-0.1951,-0.2221,-0.2221,-0.2221,-0.2227,-0.217,-0.2153,-0.2183,-0.2207,-0.2306,-0.2349,-0.2355,-0.2355,-0.2355,-0.234,-0.1944,-0.1771,-0.162,-0.0546,0.0135,0.0675,0.1345,0.215,0.2753,0.2619,0.2889,0.3226,0.3226,0.3226,0.3226,0.3226,0.3226,0.3226,0.3226,0.3226,0.3226,0.3226,0.4691,0.6086,0.6354,0.642,0.6482,0.6679,0.7731,0.8517,0.8517,0.8517,0.8517,0.8517,0.8517,0.9338,1.1435,1.1622,1.1685,1.1864,1.2903,1.3511,1.3511,1.3511,1.3571,1.3623,1.4529,1.5254,1.5672,1.6202,1.6602,1.6807,1.7145,1.7468,0.0,0.0,0.0,0.0,0.0,0.0,0.0,0.0,0.0,0.1175,0.0113,-0.0806,-0.1284,-0.1662,-0.1921,-0.1921,-0.195,-0.1981,-0.2071,-0.2105,-0.2124,-0.2117,-0.2147,-0.2155,-0.212,-0.2148,-0.2037,-0.1707,-0.2,-0.1681,-0.047,-0.1277,-0.1143,0.0269,-0.0,-0.0067,0.0202,0.0538,0.0605,0.0269,-0.047,-0.1008,-0.1277,-0.1547,-0.1884,-0.2221,-0.2221,-0.2221,-0.2224,-0.2183,-0.2214,-0.2179,-0.2229,-0.2342,-0.2372,-0.2372,-0.2372,-0.2286,-0.2132,-0.2104,-0.1954,-0.095,-0.0538,-0.0134,0.1007,0.1677,0.208,0.2686,0.3025,0.3226,0.3226,0.2621,0.2016,0.2016,0.2621,0.3226,0.3226,0.3226,0.3226,0.3226,0.4954,0.642,0.642,0.642,0.642,0.642,0.6942,0.7596,0.8382,0.8517,0.8517,0.8517,0.8517,0.8899,0.9786,1.0926,1.1622,1.1622,1.2781,1.3511,1.3511,1.3511,1.3511,1.3511,1.4181,1.4775,1.5254,1.5788,1.6202,1.6602,1.7032,1.7301,0.0,0.0,0.0,0.0,0.0,0.0,0.0,0.0,0.0,0.0,0.0615,-0.0336,-0.0729,-0.1373,-0.186,-0.186,-0.1839,-0.1811,-0.1947,-0.1926,-0.1882,-0.1976,-0.2075,-0.2085,-0.1977,-0.195,-0.179,-0.1545,-0.171,-0.1268,-0.0134,-0.1143,-0.1143,0.0269,-0.0067,-0.0202,-0.0067,0.0538,0.0739,0.047,-0.0202,-0.0739,-0.1076,-0.121,-0.1614,-0.2221,-0.2221,-0.2221,-0.2221,-0.2221,-0.218,-0.2223,-0.2169,-0.2202,-0.224,-0.224,-0.224,-0.2232,-0.2243,-0.2222,-0.2076,-0.1354,-0.1143,-0.0941,0.0134,0.0872,0.1543,0.2418,0.2956,0.3092,0.2755,0.1882,0.1076,0.1076,0.215,0.3226,0.3226,0.3226,0.3226,0.3226,0.4489,0.5752,0.6284,0.642,0.642,0.642,0.642,0.6811,0.7862,0.8252,0.8517,0.8517,0.8517,0.8517,0.8517,1.0421,1.1622,1.1622,1.2781,1.3511,1.3511,1.3511,1.3511,1.3511,1.3821,1.43,1.4893,1.543,1.5972,1.6431,1.6864,1.7088,0.0,0.0,0.0,0.0,0.0,0.0,0.0,0.0,0.0,0.2225,0.1174,0.028,-0.0,-0.1011,-0.1801,-0.1801,-0.1409,-0.1311,-0.1819,-0.1537,-0.1436,-0.1966,-0.1976,-0.1976,-0.1971,-0.1603,-0.1562,-0.1994,-0.1225,-0.0849,-0.1208,-0.0807,-0.0336,0.0269,0.0269,0.047,0.1008,0.0538,0.0605,0.1076,-0.0,-0.0538,-0.0538,-0.1076,-0.1614,-0.2221,-0.2221,-0.2221,-0.2221,-0.2221,-0.2224,-0.2232,-0.2222,-0.2177,-0.2179,-0.2179,-0.2179,-0.217,-0.218,-0.2227,-0.2225,-0.2154,-0.2154,-0.2087,-0.2018,-0.0538,0.1143,0.121,0.215,0.2889,0.1546,0.1143,0.1076,0.1076,0.215,0.3226,0.3226,0.3226,0.3226,0.3226,0.3293,0.4025,0.6017,0.642,0.642,0.642,0.642,0.6416,0.6486,0.7661,0.8517,0.8517,0.8517,0.8517,0.8517,1.0421,1.1622,1.1622,1.2781,1.3511,1.3511,1.3511,1.3511,1.3511,1.3511,1.3992,1.4893,1.543,1.5972,1.6431,1.6705,1.6807,0.0,0.0,0.0,0.0,0.0,0.0,0.0,0.0,0.2509,0.2216,0.1432,0.0671,0.0112,-0.101,-0.1685,-0.1403,-0.1459,-0.1409,-0.0968,-0.1336,-0.1583,-0.1453,-0.1714,-0.1899,-0.1864,-0.148,-0.1324,-0.1461,-0.0929,-0.0629,-0.07,-0.0891,-0.0578,0.0327,-0.0327,-0.0462,0.0067,-0.047,-0.0269,0.0605,-0.0134,-0.047,-0.0538,-0.1076,-0.1614,-0.2221,-0.2221,-0.2221,-0.2221,-0.2221,-0.2221,-0.2224,-0.2177,-0.2187,-0.2187,-0.2187,-0.2187,-0.2183,-0.223,-0.2221,-0.2221,-0.2221,-0.2221,-0.2221,-0.2221,-0.1614,-0.0739,0.0672,0.1479,0.1747,0.121,0.1076,0.1143,0.1345,0.2083,0.2753,0.2889,0.3025,0.3226,0.3226,0.3226,0.3892,0.602,0.642,0.642,0.642,0.642,0.642,0.642,0.6811,0.7138,0.7138,0.7992,0.8517,0.8517,1.0421,1.1622,1.1622,1.205,1.2536,1.3086,1.3086,1.3268,1.3502,1.3511,1.3812,1.4428,1.4961,1.543,1.5972,1.6524,1.6818,0.2436,0.0,0.0,0.0,0.0,0.0,0.0,0.0,0.2307,0.2263,0.1624,0.0883,0.0223,-0.0784,-0.1515,-0.1347,-0.1459,-0.1347,-0.0729,-0.1085,-0.1321,-0.1125,-0.1257,-0.1435,-0.1575,-0.1088,-0.0757,-0.0883,-0.042,-0.0183,-0.0432,-0.0678,-0.0563,0.0064,-0.0644,-0.0849,-0.047,-0.0874,-0.0672,-0.0,-0.0336,-0.0605,-0.0806,-0.1143,-0.1614,-0.2221,-0.2221,-0.2221,-0.2221,-0.2221,-0.2221,-0.2221,-0.2221,-0.2221,-0.2221,-0.2221,-0.2221,-0.2221,-0.2221,-0.2221,-0.2221,-0.2221,-0.2221,-0.2221,-0.2221,-0.2221,-0.1748,0.047,0.1076,0.1076,0.1076,0.1076,0.121,0.1547,0.195,0.2351,0.2551,0.2956,0.3226,0.3226,0.3226,0.3892,0.602,0.642,0.642,0.642,0.642,0.642,0.642,0.642,0.642,0.642,0.7269,0.7992,0.8452,1.0421,1.1622,1.1622,1.1747,1.205,1.2658,1.2728,1.2964,1.3329,1.3338,1.3519,1.3941,1.4597,1.5196,1.574,1.6363,1.6705,0.0,0.0,0.0,0.0,0.0,0.0,0.0,0.0,0.1934,0.2464,0.1746,0.091,0.0498,-0.0391,-0.1232,-0.1682,-0.1402,-0.1122,-0.1066,-0.0729,-0.0617,-0.1066,-0.0673,-0.0617,-0.1066,-0.0336,-0.0,-0.0469,0.0353,0.0477,-0.0551,-0.0123,-0.0062,-0.0642,-0.0514,-0.0457,-0.0537,-0.0538,-0.0538,-0.0538,-0.0538,-0.0807,-0.1277,-0.1344,-0.1614,-0.2221,-0.2221,-0.2221,-0.2221,-0.2221,-0.2221,-0.2221,-0.2221,-0.2221,-0.2221,-0.2221,-0.2221,-0.2221,-0.2221,-0.2221,-0.2221,-0.2221,-0.2221,-0.2221,-0.2221,-0.2221,-0.1749,0.0403,0.1076,0.1076,0.1076,0.1076,0.121,0.148,0.1681,0.1883,0.235,0.2822,0.3226,0.3226,0.3226,0.3892,0.5951,0.6354,0.642,0.642,0.642,0.642,0.642,0.642,0.642,0.642,0.642,0.6942,0.8382,1.0421,1.156,1.156,1.1926,1.2166,1.2228,1.2359,1.2674,1.2981,1.2989,1.3155,1.3511,1.441,1.5128,1.5682,1.6144,1.6545,0.2016,0.0,0.0,0.0,0.0,0.0,0.0,0.0,0.0,0.1985,0.1663,0.1251,0.0821,0.0371,-0.027,-0.1189,-0.1491,-0.1347,-0.0673,-0.1066,-0.1347,-0.1122,-0.101,-0.0954,-0.1066,-0.0336,-0.0,-0.0398,0.0398,0.0514,-0.0403,-0.0295,-0.0658,-0.1508,-0.1196,-0.1229,-0.163,-0.1731,-0.148,-0.1076,-0.1547,-0.1547,-0.1344,-0.1749,-0.2018,-0.2221,-0.2221,-0.2221,-0.2221,-0.2221,-0.2221,-0.2221,-0.2221,-0.2221,-0.2221,-0.2221,-0.2221,-0.2221,-0.2221,-0.2221,-0.2221,-0.2221,-0.2221,-0.2221,-0.2221,-0.2221,-0.2087,-0.148,-0.0134,0.1076,0.1076,0.1076,0.1143,0.121,0.1277,0.1344,0.1479,0.2418,0.3226,0.3226,0.3226,0.336,0.3959,0.5355,0.642,0.642,0.642,0.642,0.642,0.642,0.642,0.642,0.642,0.6942,0.8382,1.0421,1.1373,1.0863,1.1428,1.1864,1.212,1.2182,1.2428,1.2981,1.2989,1.3155,1.3511,1.4121,1.4656,1.5137,1.6019,1.6431,0.0,0.0,0.0,0.0,0.0,0.0,0.1588,0.1536,0.0,0.0,0.1714,0.1389,0.0923,0.0652,0.0153,-0.0779,-0.1127,-0.1104,-0.0728,-0.1178,-0.1403,-0.1122,-0.0954,-0.0785,-0.0785,-0.0224,0.0168,0.0168,0.0617,0.0673,0.0168,-0.0228,-0.0697,-0.1293,-0.1462,-0.1696,-0.2127,-0.2164,-0.1995,-0.1681,-0.2018,-0.2018,-0.1681,-0.2018,-0.2221,-0.2221,-0.2221,-0.2221,-0.2221,-0.2221,-0.2221,-0.2221,-0.2221,-0.2221,-0.2221,-0.2221,-0.2221,-0.2221,-0.2221,-0.2221,-0.2221,-0.2221,-0.2221,-0.2221,-0.2221,-0.2221,-0.2221,-0.2221,-0.0605,0.1076,0.1076,0.1076,0.1076,0.1076,0.1076,0.1076,0.1076,0.2217,0.3226,0.3226,0.3226,0.3226,0.3226,0.4225,0.5355,0.6284,0.642,0.642,0.642,0.642,0.642,0.642,0.642,0.6876,0.7987,0.9837,1.073,1.0345,1.1115,1.1685,1.1872,1.1872,1.2182,1.2797,1.2797,1.3033,1.3511,1.3941,1.4547,1.5254,1.572,1.6134,0.0,0.0,0.0,0.0,0.0,0.0,0.1721,0.1528,0.1394,0.0,0.17,0.1414,0.0953,0.0649,0.0283,-0.0342,-0.0409,-0.0587,-0.1055,-0.1119,-0.1122,-0.1178,-0.0785,-0.0505,-0.0505,-0.0056,0.0393,0.0785,0.0898,0.0898,0.0842,0.0112,-0.0398,-0.0585,-0.141,-0.1933,-0.2106,-0.2113,-0.2148,-0.2211,-0.2211,-0.2214,-0.2221,-0.2221,-0.2221,-0.2221,-0.2221,-0.2221,-0.2221,-0.2221,-0.2221,-0.2221,-0.2221,-0.2221,-0.2221,-0.2221,-0.2221,-0.2221,-0.2221,-0.2221,-0.2221,-0.2221,-0.2221,-0.2221,-0.2221,-0.2221,-0.2154,-0.2018,-0.0538,0.1076,0.1076,0.1076,0.1076,0.1076,0.1076,0.1076,0.1076,0.2083,0.3025,0.3159,0.3226,0.3226,0.3226,0.3426,0.4223,0.6086,0.642,0.642,0.642,0.642,0.642,0.642,0.642,0.6679,0.733,0.8865,0.9894,0.9952,1.0919,1.156,1.1622,1.1622,1.1872,1.2421,1.2482,1.2826,1.3425,1.3974,1.4666,1.543,1.5409,1.5736,0.0,0.0,0.0,0.0,0.0,0.0,0.1169,0.1158,0.1217,0.0,0.1229,0.1275,0.1213,0.1202,0.094,0.0124,0.0137,-0.01,-0.1067,-0.1158,-0.1234,-0.1628,-0.1234,-0.0954,-0.0954,-0.028,0.0224,0.0336,0.0673,0.0729,0.0336,0.0168,-0.0225,-0.0963,-0.122,-0.154,-0.1916,-0.1965,-0.2084,-0.2145,-0.2145,-0.2172,-0.2221,-0.2221,-0.2221,-0.2221,-0.2221,-0.2221,-0.2221,-0.2221,-0.2221,-0.2221,-0.2221,-0.2221,-0.2221,-0.2221,-0.2221,-0.2221,-0.2221,-0.2221,-0.2221,-0.2221,-0.2221,-0.2221,-0.2221,-0.2221,-0.2018,-0.1076,0.0134,0.1076,0.1076,0.1076,0.1076,0.1076,0.1076,0.1076,0.1076,0.1344,0.1814,0.2958,0.3226,0.3226,0.3226,0.4622,0.5888,0.635,0.642,0.642,0.642,0.642,0.642,0.642,0.642,0.6482,0.6613,0.7982,0.9017,0.9582,1.0478,1.1122,1.156,1.1622,1.1809,1.2182,1.2605,1.2844,1.292,1.3974,1.4291,1.3983,1.4922,1.5499,0.0,0.0,0.0,0.1342,0.0,0.0,0.0,0.1264,0.1348,0.1335,0.1352,0.1346,0.1341,0.136,0.1176,0.0641,0.0723,0.0558,-0.0332,-0.0814,-0.1172,-0.1438,-0.1226,-0.1019,-0.0764,-0.0164,0.0275,0.0504,0.0785,0.0785,0.0561,0.0112,-0.028,-0.0729,-0.1255,-0.1623,-0.1882,-0.1911,-0.1958,-0.2081,-0.2081,-0.2113,-0.2175,-0.2175,-0.2192,-0.2221,-0.2221,-0.2221,-0.2221,-0.2221,-0.2221,-0.2221,-0.2221,-0.2221,-0.2221,-0.2221,-0.2221,-0.2221,-0.2221,-0.2221,-0.2221,-0.2221,-0.2221,-0.2221,-0.2221,-0.2221,-0.2018,-0.1076,-0.0269,0.0403,0.0941,0.1076,0.1076,0.1076,0.1076,0.1076,0.1076,0.1076,0.1277,0.2016,0.2688,0.3226,0.3226,0.4954,0.642,0.642,0.642,0.642,0.642,0.642,0.642,0.642,0.642,0.642,0.642,0.7396,0.8436,0.9454,1.0151,1.0759,1.1319,1.1165,1.1368,1.1835,1.2305,1.2721,1.3143,1.3362,1.3487,1.3544,1.421,1.4643,0.0,0.0,0.0,0.0,0.0,0.1323,0.0,0.0,0.0,0.0,0.0,0.0,0.0,0.0,0.0,0.0,0.0,0.0,0.0,-0.0269,0.0,-0.0985,-0.105,-0.0865,-0.0416,-0.0,0.042,0.0822,0.082,0.0767,0.0777,-0.0,-0.0449,-0.0505,-0.129,-0.1762,-0.1864,-0.1865,-0.1895,-0.1955,-0.1955,-0.1992,-0.2127,-0.2127,-0.2162,-0.2221,-0.2221,-0.2221,-0.2221,-0.2221,-0.2221,-0.2221,-0.2221,-0.2221,-0.2221,-0.2221,-0.2221,-0.2221,-0.2221,-0.2221,-0.2221,-0.2221,-0.2221,-0.2221,-0.2221,-0.2221,-0.2018,-0.1277,-0.0807,-0.0269,0.0807,0.1076,0.1076,0.1076,0.1076,0.1076,0.1076,0.1076,0.1076,0.1076,0.2218,0.3226,0.3226,0.4625,0.5951,0.635,0.642,0.642,0.642,0.642,0.642,0.642,0.642,0.642,0.642,0.7068,0.7977,0.9134,0.9773,1.0409,1.0898,1.0741,1.092,1.1422,1.1876,1.243,1.3074,1.28,1.2987,1.3588,1.3462,1.376,0.0,0.0,0.0,0.0,0.1327,0.0,0.0,0.0,0.1104,0.1005,0.0,0.0,0.0,0.0,0.0,0.0,0.0,0.0,0.0975,0.0607,0.0125,-0.0585,-0.0822,-0.0748,-0.029,0.014,0.0519,0.0813,0.0445,0.02,0.0267,-0.0165,-0.0617,-0.101,-0.1122,-0.1405,-0.1807,-0.1807,-0.1835,-0.1891,-0.1891,-0.1952,-0.2127,-0.2127,-0.2162,-0.2221,-0.2221,-0.2221,-0.2221,-0.2221,-0.2221,-0.2221,-0.2221,-0.2221,-0.2221,-0.2221,-0.2221,-0.2221,-0.2221,-0.2221,-0.2221,-0.2221,-0.2221,-0.2221,-0.2221,-0.2221,-0.2018,-0.1277,-0.0807,-0.0269,0.0807,0.1076,0.1076,0.1076,0.1076,0.1076,0.1076,0.1076,0.1076,0.1076,0.2218,0.3226,0.3226,0.3426,0.4223,0.6086,0.642,0.642,0.642,0.642,0.642,0.642,0.642,0.642,0.642,0.7068,0.7652,0.7972,0.9027,0.9877,1.0349,1.0709,1.0877,1.0902,1.1391,1.1643,1.1524,1.283,1.3486,1.3575,1.3135,1.3203,0.0,0.0,0.0,0.0,0.0,0.0,0.0815,0.0,0.1106,0.0,0.0,0.0,0.0,0.0,0.0,0.0,0.1363,0.0,0.0,0.0,0.0783,0.0,0.0,0.0,0.0502,0.0723,0.088,0.1003,0.0668,0.0385,0.0212,-0.0216,-0.066,-0.1065,-0.1347,-0.1628,-0.1797,-0.1797,-0.1809,-0.1832,-0.1832,-0.1895,-0.2074,-0.2074,-0.2127,-0.2221,-0.2421,-0.2487,-0.2487,-0.269,-0.269,-0.2487,-0.2487,-0.2354,-0.2221,-0.2221,-0.2221,-0.2221,-0.2221,-0.2221,-0.2221,-0.2221,-0.2221,-0.2221,-0.2221,-0.2221,-0.2018,-0.1277,-0.1277,-0.1076,0.0672,0.1076,0.1076,0.1076,0.1076,0.1076,0.1076,0.1076,0.1076,0.1076,0.1546,0.2218,0.3092,0.4225,0.5352,0.6284,0.642,0.642,0.642,0.642,0.642,0.642,0.642,0.642,0.642,0.6679,0.7068,0.7587,0.9242,1.0105,0.991,1.0075,1.0122,1.0105,1.0298,1.0382,1.0336,1.1392,1.2089,1.2374,1.2967,1.3362,0.0269,0.0,0.0,0.0,0.0,0.0,0.0,0.0,0.0,0.0,0.0,0.0,0.0,0.0,0.0,0.0,0.0,0.1445,0.0,0.1246,0.0,0.0,0.0,0.0,0.0,0.1088,0.1117,0.1099,0.0716,0.0362,0.0051,-0.0421,-0.0862,-0.1272,-0.162,-0.1797,-0.1797,-0.1797,-0.1797,-0.1797,-0.1797,-0.185,-0.1947,-0.1947,-0.2076,-0.2196,-0.2525,-0.2669,-0.2753,-0.3092,-0.3023,-0.2686,-0.2686,-0.2554,-0.2354,-0.2221,-0.2221,-0.2221,-0.2221,-0.2221,-0.2221,-0.2221,-0.2221,-0.2221,-0.2221,-0.2221,-0.2087,-0.1547,-0.1817,-0.1681,0.0538,0.1076,0.1076,0.1076,0.1076,0.1076,0.1076,0.1076,0.1076,0.1076,0.1412,0.2016,0.3025,0.4954,0.642,0.642,0.642,0.642,0.642,0.642,0.642,0.642,0.642,0.642,0.642,0.642,0.6937,0.8096,0.9433,1.0016,0.9643,0.9614,0.9614,0.9614,0.9614,0.9769,1.0028,1.0744,1.1351,1.1981,1.288,1.3324,0.0,-0.0369,0.0,0.0081,0.0,0.0,0.0,0.0,0.0656,0.0,0.0,0.0,0.0,0.0,0.0,0.0,0.0,0.0,0.0,0.0,0.0,0.0,0.0,0.0,0.0,0.1,0.1031,0.092,0.0311,-0.016,-0.0379,-0.0871,-0.1333,-0.1655,-0.1766,-0.1797,-0.1797,-0.1797,-0.1797,-0.1797,-0.1797,-0.1828,-0.1884,-0.1884,-0.1951,-0.213,-0.2455,-0.2623,-0.2753,-0.3092,-0.3023,-0.2686,-0.2686,-0.2686,-0.2619,-0.2287,-0.2221,-0.2221,-0.2221,-0.2221,-0.2221,-0.2221,-0.2221,-0.2221,-0.2221,-0.2221,-0.2221,-0.2154,-0.2154,-0.1681,0.0538,0.1076,0.1076,0.1076,0.1076,0.1076,0.1076,0.1076,0.1076,0.1076,0.2217,0.3159,0.3159,0.4954,0.642,0.642,0.642,0.642,0.642,0.642,0.642,0.642,0.642,0.642,0.642,0.642,0.7386,0.9761,0.9452,0.9293,0.9591,0.9614,0.9614,0.9614,0.9614,1.0131,1.115,1.1674,1.2316,1.3035,1.2715,1.2706,-0.1108,-0.1341,-0.1402,-0.0747,-0.078,-0.0846,-0.022,-0.0075,0.0,0.0,0.0,0.0,0.0,0.0,0.0,0.0,0.0,0.0,0.0,0.0,0.0,0.0,0.0,0.0,0.0,0.0,0.1097,0.0915,0.0557,0.0117,-0.0454,-0.0641,-0.1039,-0.1704,-0.1766,-0.1797,-0.1797,-0.1797,-0.1797,-0.1797,-0.1797,-0.1827,-0.1882,-0.1882,-0.2047,-0.232,-0.2748,-0.3043,-0.3331,-0.3732,-0.3761,-0.3422,-0.3422,-0.3155,-0.2686,-0.2354,-0.2354,-0.2487,-0.2287,-0.2221,-0.2221,-0.2221,-0.2221,-0.2221,-0.2221,-0.1681,-0.1076,-0.1076,-0.0538,0.0134,0.0874,0.1076,0.1076,0.1076,0.1076,0.1076,0.1076,0.1076,0.1076,0.1076,0.2218,0.3226,0.3226,0.3825,0.4758,0.6218,0.642,0.642,0.642,0.642,0.642,0.642,0.642,0.642,0.642,0.642,0.7517,1.0225,0.9799,0.9475,0.9569,0.9614,0.9614,0.9614,0.9614,0.9769,1.0123,1.0482,1.0998,1.166,1.1968,1.251,-0.1969,-0.2078,-0.2097,-0.1436,-0.1506,-0.1552,-0.079,-0.0606,-0.0583,-0.0597,0.0,0.0,0.0,0.0,0.0,0.0,0.0,0.0,0.0,0.0874,0.0,0.0,0.0,0.0,0.0,0.0,0.0935,0.0723,0.0609,0.0265,0.0,-0.048,-0.0867,-0.1621,-0.1753,-0.1797,-0.1797,-0.1797,-0.1797,-0.1797,-0.1797,-0.1816,-0.1852,-0.1966,-0.2118,-0.237,-0.3005,-0.3378,-0.3606,-0.4114,-0.4097,-0.3825,-0.3825,-0.3491,-0.3021,-0.2554,-0.242,-0.2487,-0.2288,-0.2221,-0.2221,-0.2221,-0.2221,-0.2221,-0.2221,-0.1412,-0.047,-0.047,0.0269,0.1076,0.1076,0.1076,0.1076,0.1076,0.1076,0.1076,0.1076,0.121,0.1344,0.1344,0.2151,0.2891,0.3159,0.3226,0.3959,0.6086,0.642,0.642,0.642,0.642,0.642,0.642,0.642,0.642,0.642,0.642,0.7587,1.0428,1.01,0.9767,0.9695,0.9649,0.9614,0.9614,0.9614,0.9718,0.9873,1.0241,1.0761,1.1326,1.2026,1.2706]},{"header":{"parameterUnit":"m.s-1","parameterCategory":1,"la1":30.6,"la2":29.2853,"lo1":-89.7004,"lo2":-87.6739,"dy":0.0162,"dx":0.0183,"nx":112,"ny":82,"refTime":"2025-08-04T12:00:00:Z","depth":0,"parameterNumber":3,"parameterNumberName":"V-component_of_WINDS"},"data":[0.0,0.0,0.0,0.0,0.0,0.0,0.0,0.0,0.0,0.0,0.0,0.0,0.0,0.0,0.0,0.0,0.0,0.0,0.0,0.0,0.0,0.0,0.0,0.0,0.0,0.0,0.0,0.0,0.0,0.0,0.0,0.0,0.0,0.0,0.0,0.0,0.0,0.0,0.0,0.0,0.0,0.0,0.0,0.0,0.0,0.0,0.0,0.0,0.0,0.0,0.0,0.0,0.0,0.0,0.0,0.0,0.0,0.0,0.0,0.0,0.0,0.0,0.0,0.0,0.0,0.0,0.0,0.0,0.0,0.0,0.0,0.0,0.0,0.0,0.0,0.0,0.0,0.0,0.0,0.0,0.0,0.0,0.0,0.0,0.0,0.0,0.0,0.0,0.0,0.0,0.208,0.3644,0.5285,0.6393,0.6766,0.7145,0.6862,0.5699,0.0,0.0,0.0,0.0,0.0,0.0,0.0,0.0,0.0,0.0,0.0,0.0,0.0,0.0,0.0,0.0,0.0,0.0,0.0,0.0,0.0,0.0,0.0,0.0,0.0,0.0,0.0,0.0,0.0,0.0,0.0,0.0,0.0,0.0,0.0,0.0,0.0,0.0,0.0,0.0,0.0,0.0,0.0,0.0,0.0,0.0,0.0,0.0,0.0,0.0,0.0,0.0,0.0,0.0,0.0,0.0,0.0,0.0,0.0,0.0,0.0,0.0,0.0,0.0,0.0,0.0,0.0,0.0,0.0,0.0,0.0,0.0,0.0,0.0,0.0,0.0,0.0,0.0,0.0,0.0,0.0,0.0,0.0,0.0,0.0,0.0,0.0,0.0,0.0,0.0,0.0,0.0,0.0,0.0,0.0,0.0,0.0,0.0,0.0,0.0,0.0,0.0,0.0,0.0,0.2336,0.4474,0.5873,0.6748,0.7099,0.7204,0.6827,0.5844,0.0,0.0,0.0,0.0,0.0,0.0,0.0,0.0,0.0,0.0,0.0,0.0,0.0,0.0,0.0,0.0,0.0,0.0,0.0,0.0,0.0,0.0,0.0,0.0,0.0,0.0,0.0,0.0,0.0,0.0,0.0,0.0,0.0,0.0,0.0,0.0,0.0,0.0,0.0,0.0,0.0,0.0,0.0,0.0,0.0,0.0,0.0,0.0,0.0,0.0,0.0,0.0,0.0,0.0,0.0,0.0,0.0,0.0,0.0,0.0,0.0,0.0,0.0,0.0,0.0,0.0,0.0,0.0,0.0,0.0,0.0,0.0,0.0,0.0,0.0,0.0,0.0,0.0,0.0,0.0,0.0,0.0,0.0,0.0,0.0,0.0,0.0,0.0,0.0,0.0,0.0,0.0,0.0,0.0,0.0,0.0,0.0,0.0,0.0,0.0,0.0,0.0,0.0,0.1397,0.2582,0.4141,0.5362,0.6301,0.6859,0.6765,0.6398,0.5824,0.544,0.0,0.0,0.0,0.0,0.0,0.0,0.0,0.0,0.0,0.0,0.0,0.0,0.0,0.0,0.0,0.0,0.0,0.0,0.0,0.0,0.0,0.0,0.0,0.0,0.0,0.0,0.0,0.0,0.0,0.0,0.0,0.0,0.0,0.0,0.0,0.0,0.0,0.0,0.0,0.0,0.0,0.0,0.0,0.0,0.0,0.0,0.0,0.0,0.0,0.0,0.0,0.0,0.0,0.0,0.0,0.0,0.0,0.0,0.0,0.0,0.0,0.0,0.0,0.0,0.0,0.0,0.0,0.0,0.0,0.0,0.0,0.0,0.0,0.0,0.0,0.0,0.0,0.0,0.0,0.0,0.0,0.0,0.0,0.0,0.0,0.0,0.0,0.0,0.0,0.0,0.0,0.0,0.0,0.0,0.0,0.0,0.0,0.0,0.0,0.0,0.0,0.0,0.1539,0.2573,0.3388,0.467,0.5744,0.6471,0.6272,0.6006,0.5817,0.4792,0.0,0.0,0.0,0.0,0.0,0.0,0.0,0.0,0.0,0.0,0.0,0.0,0.0,0.0,0.0,0.0,0.0,0.0,0.0,0.0,0.0,0.0,0.0,0.0,0.0,0.0,0.0,0.0,0.0,0.0,0.0,0.0,0.0,0.0,0.0,0.0,0.0,0.0,0.0,0.0,0.0,0.0,0.0,0.0,0.0,0.0,0.0,0.0,0.0,0.0,0.0,0.0,0.0,0.0,0.0,0.0,0.0,0.0,0.0,0.0,0.0,0.0,0.0,0.0,0.0,0.0,0.0,0.0,0.0,0.0,0.0,0.0,0.0,0.0,0.0,0.0,0.0,0.0,0.0,0.0,0.0,0.0,0.0,0.0,0.0,0.0,0.0,0.0,0.0,0.0,0.0,0.0,0.0,0.0,0.0,0.0,0.0,0.0,0.0,0.0,0.0,0.0,0.1125,0.1963,0.2523,0.4243,0.5518,0.5996,0.5901,0.5819,0.5802,0.4637,0.0,0.0,0.0,0.0,0.0,0.0,0.0,0.0,0.0,0.0,0.0,0.0,0.0,0.0,0.0,0.0,0.0,0.0,0.0,0.0,0.0,0.0,0.0,0.0,0.0,0.0,0.0,0.0,0.0,0.0,0.0,0.0,0.0,0.0,0.0,0.0,0.0,0.0,0.0,0.0,0.0,0.0,0.0,0.0,0.0,0.0,0.0,0.0,0.0,0.0,0.0,0.0,0.0,0.0,0.0,0.0,0.0,0.0,0.0,0.0,0.0,0.0,0.0,0.0,0.0,0.0,0.0,0.0,0.0,0.0,0.0,0.0,0.0,0.0,0.0,0.0,0.0,0.0,0.0,0.0,0.0,0.0,0.0,0.0,0.0,0.0,0.0,0.0,0.0,0.0,0.0,0.0,0.0,0.0,0.0,0.0,0.0,0.0,0.0,0.0,0.0,0.0,0.0034,0.0722,0.0,0.278,0.4073,0.5062,0.5236,0.5355,0.5469,0.0,0.0,0.0,0.0,0.0,0.0,0.0,0.0,0.0,0.0,0.0,0.0,0.0,0.0,0.0,0.0,0.0,0.0,0.0,0.0,0.0,0.0,0.0,0.0,0.0,0.0,0.0,0.0,0.0,0.0,0.0,0.0,0.0,0.0,0.0,0.0,0.0,0.0,0.0,0.0,0.0,0.0,0.0,0.0,0.0,0.0,0.0,0.0,0.0,0.0,0.0,0.0,0.0,0.0,0.0,0.0,0.0,0.0,0.0,0.0,0.0,0.0,0.0,0.0,0.0,0.0,0.0,0.0,0.0,0.0,0.0,0.0,0.0,0.0,0.0,0.0,0.0,0.0,0.0,0.0,0.0,0.0,0.0,0.0,0.0,0.0,0.0,0.0,0.0,0.0,0.0,0.0,0.0,0.0,0.0,0.0,0.0,0.0,0.0,0.0,0.0,0.0,-0.1279,-0.0962,-0.0459,0.0,0.1386,0.2659,0.3963,0.4331,0.4575,0.4902,0.0,0.0,0.0,0.0,0.0,0.0,0.0,0.0,0.0,0.0,0.0,0.0,0.0,0.0,0.0,0.0,0.0,0.0,0.0,0.0,0.0,0.0,0.0,0.0,0.0,0.0,0.0,0.0,0.0,0.0,0.0,0.0,0.0,0.0,0.0,0.0,0.0,0.0,0.0,0.0,0.0,0.0,0.0,0.0,0.0,0.0,0.0,0.0,0.0,0.0,0.0,0.0,0.0,0.0,0.0,0.0,0.0,0.0,0.0,0.0,0.0,0.0,0.0,0.0,0.0,0.0,0.0,0.0,0.0,0.0,0.0,0.0,0.0,0.0,0.0,0.0,0.0,0.0,0.0,0.0,0.0,0.0,0.0,0.0,0.0,0.0,0.0,0.0,0.0,0.0,0.0,0.0,0.0,0.0,0.0,0.0,0.0,0.0,0.0,0.0,0.0,0.0,-0.174,-0.1778,-0.1469,-0.0626,0.0303,0.146,0.2871,0.3162,0.3535,0.0,0.0,0.0,0.0,0.0,0.0,0.0,0.0,0.0,0.0,0.0,0.0,0.0,0.0,0.0,0.0,0.0,0.0,0.0,0.0,0.0,0.0,0.0,0.0,0.0,0.0,0.0,0.0,0.0,0.0,0.0,0.0,0.0,0.0,0.0,0.0,0.0,0.0,0.0,0.0,0.0,0.0,0.0,0.0,0.0,0.0,0.0,0.0,0.0,0.0,0.0,0.0,0.0,0.0,0.0,0.0,0.0,0.0,0.0,0.0,0.0,0.0,0.0,0.0,0.0,0.0,0.0,0.0,0.0,0.0,0.0,0.0,0.0,0.0,0.0,0.0,0.0,0.0,0.0,0.0,0.0,0.0,0.0,0.0,0.0,0.0,0.0,0.0,0.0,0.0,0.0,0.0,0.0,0.0,0.0,0.0,0.0,0.0,0.0,0.0,0.0,0.0,0.0,-0.3304,-0.3,-0.2722,-0.2764,-0.1145,0.0355,0.1416,0.2219,0.2963,0.3639,0.0,0.0,0.0,0.0,0.0,0.0,0.0,0.0,0.0,0.0,0.0,0.0,0.0,0.0,0.0,0.0,0.0,0.0,0.0,0.0,0.0,0.0,0.0,0.0,0.0,0.0,0.0,0.0,0.0,0.0,0.0,0.0,0.0,0.0,0.0,0.0,0.0,0.0,0.0,0.0,0.0,0.0,0.0,0.0,0.0,0.0,0.0,0.0,0.0,0.0,0.0,0.0,0.0,0.0,0.0,0.0,0.0,0.0,0.0,0.0,0.0,0.0,0.0,0.0,0.0,0.0,0.0,0.0,0.0,0.0,0.0,0.0,0.0,0.0,0.0,0.0,0.0,0.0,0.0,0.0,0.0,0.0,0.0,0.0,0.0,0.0,0.0,0.0,0.0,0.0,0.0,0.0,0.0,0.0,0.0,0.0,0.0,0.0,0.0,0.0,0.0,0.0,-0.3988,-0.393,-0.3775,-0.3691,-0.2527,-0.1242,0.0133,0.1065,0.1898,0.2583,0.0,0.0,0.0,0.0,0.0,0.0,0.0,0.0,0.0,0.0,0.0,0.0,0.0,0.0,0.0,0.0,0.0,0.0,0.0,0.0,0.0,0.0,0.0,0.0,0.0,0.0,0.0,0.0,0.0,0.0,0.0,0.0,0.0,0.0,0.0,0.0,0.0,0.0,0.0,0.0,0.0,0.0,0.0,0.0,0.0,0.0,0.0,0.0,0.0,0.0,0.0,0.0,0.0,0.0,0.0,0.0,0.0,0.0,0.0,0.0,0.0,0.0,0.0,0.0,0.0,0.0,0.0,0.0,0.0,0.0,0.0,0.0,0.0,0.0,0.0,0.0,0.0,0.0,0.0,0.0,0.0,0.0,0.0,0.0,0.0,0.0,0.0,0.0,0.0,0.0,0.0,0.0,0.0,0.0,0.0,0.0,0.0,0.0,0.0,0.0,0.0,0.0,-0.4176,-0.4616,-0.4611,-0.4034,-0.3811,-0.2929,-0.1071,-0.0165,0.0526,0.1154,0.0,0.0,0.0,0.0,0.0,0.0,0.0,0.0,0.0,0.0,0.0,0.0,0.0,0.0,0.0,0.0,0.0,0.0,0.0,0.0,0.0,0.0,0.0,0.0,0.0,0.0,0.0,0.0,0.0,0.0,0.0,0.0,0.0,0.0,0.0,0.0,0.0,0.0,0.0,0.0,0.0,0.0,0.0,0.0,0.0,0.0,0.0,0.0,0.0,0.0,0.0,0.0,0.0,0.0,0.0,0.0,0.0,0.0,0.0,0.0,-0.6618,-0.5179,0.0,0.0,0.0,0.0,0.0,0.0,0.0,0.0,0.0,0.0,0.0,0.0,0.0,0.0,0.0,0.0,0.0,0.0,0.0,0.0,0.0,0.0,0.0,0.0,0.0,0.0,0.0,0.0,0.0,0.0,0.0,0.0,0.0,0.0,0.0,0.0,0.0,0.0,0.0,0.0,-0.5664,-0.5465,-0.5442,-0.6085,-0.4674,-0.3369,-0.2568,-0.1315,-0.0317,0.0251,0.082,0.0,0.0,0.0,0.0,0.0,0.0,0.0,0.0,0.0,0.0,0.0,0.0,0.0,0.0,0.0,0.0,0.0,0.0,0.0,0.0,0.0,0.0,0.0,0.0,0.0,0.0,0.0,0.0,0.0,0.0,0.0,0.0,0.0,0.0,0.0,0.0,0.0,0.0,0.0,0.0,0.0,0.0,0.0,0.0,0.0,0.0,0.0,0.0,0.0,0.0,0.0,0.0,0.0,0.0,0.0,0.0,0.0,0.0,0.0,-0.9104,-0.7598,0.0,0.0,0.0,0.0,0.0,0.0,0.0,0.0,0.0,0.0,0.0,0.0,0.0,0.0,0.0,0.0,0.0,0.0,0.0,0.0,0.0,0.0,0.0,0.0,0.0,0.0,0.0,0.0,0.0,0.0,0.0,0.0,0.0,0.0,0.0,0.0,0.0,0.0,0.0,0.0,-0.6195,-0.646,-0.6701,-0.7114,-0.5962,-0.4794,-0.3742,-0.2594,-0.1482,-0.051,0.0065,0.0,0.0,0.0,0.0,0.0,0.0,0.0,0.0,0.0,0.0,0.0,0.0,0.0,0.0,0.0,0.0,0.0,0.0,0.0,0.0,0.0,0.0,0.0,0.0,0.0,0.0,0.0,0.0,0.0,0.0,0.0,0.0,0.0,0.0,0.0,0.0,0.0,0.0,0.0,0.0,0.0,0.0,0.0,0.0,0.0,0.0,0.0,0.0,0.0,0.0,0.0,0.0,0.0,-1.9197,-1.7911,-1.6642,-1.531,-1.4209,-1.3301,-1.2254,-1.0763,-0.9056,-0.8612,0.0,0.0,0.0,0.0,0.0,0.0,0.0,0.0,0.0,0.0,0.0,0.0,0.0,0.0,0.0,0.0,0.0,0.0,0.0,0.0,0.0,0.0,-0.8096,-0.8633,-0.9099,-0.9043,-0.7812,0.0,0.0,0.0,0.0,0.0,0.0,0.0,0.0,0.0,0.0,0.0,-0.6582,-0.7381,-0.7858,-0.7788,-0.7245,-0.6343,-0.4952,-0.4001,-0.2872,-0.1493,-0.084,-0.0316,0.0,0.0,0.0,0.0,0.0,0.0,0.0,0.0,0.0,0.0,0.0,0.0,0.0,0.0,0.0,0.0,0.0,0.0,0.0,0.0,0.0,0.0,0.0,0.0,0.0,0.0,0.0,0.0,0.0,0.0,0.0,0.0,-0.5107,-0.6171,0.0,0.0,0.0,0.0,0.0,0.0,0.0,0.0,0.0,0.0,0.0,0.0,0.0,-0.8258,-0.5522,-1.3585,-1.8208,-1.9347,-2.0088,-1.9544,-1.7912,-1.8751,-1.8852,-1.8303,-1.7693,0.0,-1.135,-1.1129,0.0,0.0,0.0,0.0,0.0,0.0,0.0,0.0,0.0,0.0,0.0,0.0,0.0,0.0,0.0,0.0,0.0,0.0,0.0,0.0,0.0,0.0,-1.1762,-1.2144,-1.2594,-1.2831,-1.2542,-1.0217,-0.8154,-0.794,-0.7764,-0.7479,0.0,0.0,0.0,0.0,0.0,0.0,-0.7997,-0.7991,-0.8146,-0.8723,-0.7957,-0.7155,-0.6525,-0.553,-0.4521,-0.3563,-0.2546,-0.1587,-0.0681,-0.0087,0.0,0.0,0.0,0.0,0.0,0.0,0.0,0.0,0.0,0.0,0.0,0.0,0.0,0.0,0.0,0.0,0.0,0.0,0.0,0.0,0.0,0.0,0.0,0.0,0.0,0.0,0.0,0.0,0.0,-0.4943,-0.6079,-0.6477,-0.6902,-0.7154,0.0,0.0,0.0,0.0,0.0,0.0,0.0,0.0,0.0,-1.2518,-1.265,-1.3151,-1.4094,-1.8074,-2.005,-2.005,-2.0545,-2.0365,-1.9638,-2.0591,-2.0681,-2.0124,-1.9894,-1.8667,-1.6754,-1.5159,-1.3932,-1.2686,0.0,0.0,0.0,0.0,-0.6591,-0.8967,-0.8967,-1.0058,-1.1633,-1.2744,0.0,0.0,0.0,0.0,0.0,0.0,0.0,-1.0556,-1.1404,-1.2332,-1.3242,-1.4161,-1.4447,-1.4619,-1.4876,-1.3543,-1.1826,-1.0308,-0.9937,-0.9442,-0.8187,-0.8211,0.0,0.0,0.0,-0.9005,-0.9276,-0.9352,-0.9503,-0.9776,-0.8981,-0.8195,-0.7563,-0.6632,-0.568,-0.4712,-0.3747,-0.2794,-0.1917,-0.1256,-0.0622,0.0,0.0,0.0,0.0,0.0,0.0,0.0,0.0,0.0,0.0,0.0,0.0,0.0,0.0,0.0,0.0,0.0,0.0,0.0,0.0,0.0,0.0,0.0,0.0,0.0,0.0,0.0,0.0,-0.6142,-0.716,-0.7181,-0.8357,-0.894,0.0,0.0,0.0,0.0,0.0,0.0,-1.348,-1.4539,-1.5536,-1.6428,-1.6082,-1.7477,-2.0778,-2.0794,-2.0974,-2.1276,-2.1276,-2.1276,-2.1308,-2.1794,-2.1764,-2.1325,-2.2118,-2.246,-2.2215,-1.9142,-1.8198,-1.8242,-1.4335,-1.1765,-1.0179,-0.9079,-1.1135,-1.4448,-1.4378,-1.4215,-1.4307,-1.5744,-1.548,-1.4375,-1.3392,0.0,0.0,0.0,0.0,-1.2615,-1.3614,-1.4197,-1.4801,-1.5871,-1.6048,-1.6152,-1.6692,-1.6375,-1.5242,-1.2788,-1.2216,-1.1599,-1.0,-1.0118,0.0,0.0,0.0,-1.0743,-1.0528,-1.0684,-1.0829,-1.0705,-0.9981,-0.9231,-0.8577,-0.7694,-0.6728,-0.5717,-0.4857,-0.396,-0.2973,-0.2338,-0.1582,-0.0709,0.0,0.0,0.0,0.0,0.0,0.0,0.0,0.0,0.0,0.0,0.0,0.0,0.0,0.0,0.0,0.0,0.0,0.0,0.0,0.0,0.0,0.0,0.0,0.0,0.0,0.0,0.0,0.0,0.0,-0.9207,-1.0934,0.0,0.0,0.0,0.0,-1.4145,-1.4303,-1.5088,-1.6771,-1.7532,-1.8269,-1.9076,-1.9507,-2.0047,-2.0794,-2.0794,-2.1401,-2.2588,-2.2588,-2.2588,-2.2605,-2.2632,-2.2632,-2.276,-2.5691,-2.6963,-2.6659,-2.2361,-2.0613,-2.0597,-2.0008,-1.8797,-1.7489,-1.8143,-1.8553,-1.8717,-1.8358,-1.7814,-1.7286,-1.7381,-1.6424,-1.5247,-1.526,-1.4616,0.0,0.0,-1.5138,-1.5945,-1.64,-1.6917,-1.7397,-1.78,-1.788,-1.8025,-1.8608,-1.8299,-1.7341,-1.5439,-1.4704,-1.4123,-1.3432,0.0,-1.1996,-1.175,-1.1495,-1.1451,-1.1781,-1.1675,-1.1571,-1.1524,-1.0809,-1.0186,-0.9737,-0.8788,-0.7841,-0.6967,-0.6228,-0.5134,-0.3631,-0.3279,-0.2361,-0.074,-0.0633,0.0,0.0,0.0,0.0,0.0,0.0,0.0,0.0,0.0,0.0,0.0,0.0,0.0,0.0,0.0,0.0,0.0,0.0,0.0,0.0,0.0,0.0,0.0,0.0,0.0,0.0,0.0,0.0,-1.2005,-1.3349,0.0,-1.3443,-1.4151,-1.5027,-1.5847,-1.6649,-1.7573,-1.8718,-1.9372,-2.0191,-2.1279,-2.0989,-2.1071,-2.1568,-2.2051,-2.251,-2.2987,-2.4985,-2.5928,-2.5928,-2.5928,-2.5928,-2.5981,-2.7098,-2.7465,-2.7181,-2.5622,-2.3852,-2.2043,-2.1007,-2.0258,-1.9914,-2.11,-2.074,-1.9669,-1.9523,-1.9035,-1.8447,-1.7987,-1.7315,-1.6715,-1.6731,-1.6637,-1.6579,-1.6707,-1.7106,-1.7614,-1.7963,-1.8184,-1.843,-1.875,-1.8841,-1.8916,-1.9103,-1.8991,-1.8659,-1.7993,-1.6936,-1.5851,-1.4814,-1.4774,-1.4599,-1.3708,-1.3925,-1.4128,-1.4105,-1.3325,-1.2738,-1.2663,-1.1632,-1.0753,-1.0215,-0.9619,-0.8981,-0.8341,-0.7088,-0.604,-0.5305,-0.4238,-0.3136,-0.2074,-0.1772,-0.1192,0.0,0.0,0.0,0.0,0.0,0.0,0.0,0.0,0.0,0.0,0.0,0.0,0.0,0.0,0.0,0.0,0.0,0.0,0.0,0.0,0.0,0.0,0.0,0.0,0.0,0.0,-1.3231,-1.3942,-1.5529,-1.6329,-1.5708,-1.6688,-1.759,-1.8067,-1.8845,-1.9723,-2.0702,-2.1151,-2.1778,-2.2736,-2.2297,-2.2,-2.194,-2.3732,-2.4664,-2.4682,-2.6718,-2.7701,-2.7713,-2.8093,-2.8065,-2.7701,-2.78,-2.7672,-2.7407,-2.7376,-2.6132,-2.4153,-2.3006,-2.2751,-2.3014,-2.3135,-2.2393,-2.1224,-2.0813,-2.0272,-1.9656,-1.9157,-1.8691,-1.8341,-1.8341,-1.8482,-1.8622,-1.8622,-1.8722,-1.8896,-1.9126,-1.9214,-1.9251,-1.9485,-1.9536,-1.9558,-1.9651,-1.9594,-1.9558,-1.9651,-1.8621,-1.7372,-1.6319,-1.6465,-1.634,-1.5301,-1.5531,-1.5761,-1.5575,-1.4764,-1.41,-1.39,-1.2695,-1.1735,-1.1211,-1.0322,-0.9667,-0.9288,-0.7952,-0.693,-0.6396,-0.5287,-0.4132,-0.2995,-0.2361,-0.175,-0.1165,0.0,0.0,0.0,0.0,0.0,0.0,0.0,0.0,0.0,0.0,0.0,0.0,0.0,0.0,0.0,0.0,0.0,0.0,0.0,0.0,0.0,0.0,0.0,-1.2566,-1.4074,-1.5139,-1.5065,-1.7461,-1.8836,-1.8079,-1.9524,-2.0663,-2.0958,-2.0958,-2.1521,-2.2795,-2.2874,-2.3084,-2.3583,-2.3605,-2.3047,-2.196,-2.5813,-2.7742,-2.7742,-2.7742,-2.7742,-2.78,-2.8897,-2.8803,-2.7742,-2.7992,-2.7943,-2.7622,-2.7557,-2.7289,-2.6888,-2.63,-2.6539,-2.695,-2.4701,-2.3811,-2.3638,-2.247,-2.1599,-2.1051,-2.1014,-2.0603,-2.0051,-2.0036,-2.0036,-2.0021,-2.0005,-2.0041,-2.0041,-2.0041,-2.0041,-2.0041,-2.0041,-2.0041,-2.0096,-2.0342,-2.022,-2.0096,-2.0342,-1.963,-1.8728,-1.8158,-1.7664,-1.7163,-1.654,-1.6291,0.0,-1.6172,-1.5912,-1.5575,-1.526,-1.4011,-1.308,-1.2723,-1.096,-0.9873,-0.9825,-0.8901,-0.7866,-0.6819,-0.6418,-0.5304,-0.3384,-0.2308,-0.1938,-0.2331,0.0,0.0,0.0,0.0,0.0,0.0,0.0,0.0,0.0,0.0,0.0,0.0,0.0,0.0,0.0,0.0,0.0,0.0,0.0,0.0,0.0,-1.4478,-1.5801,-1.5565,-1.6291,-1.7361,-1.8799,-1.9648,-2.0177,-2.0289,-2.0719,-2.1422,-2.2415,-2.2495,-2.3023,-2.4269,-2.4333,-2.4781,-2.5792,-2.5616,-2.5557,-2.5569,-2.7797,-2.8938,-2.8938,-2.8938,-2.8938,-2.892,-2.9243,-2.9071,-2.8496,-2.859,-2.8446,-2.8174,-2.8156,-2.8002,-2.7648,-2.6433,-2.5895,-2.5697,-2.5062,-2.4585,-2.4164,-2.3079,-2.2452,-2.2062,-2.1789,-2.1592,-2.1364,-2.0877,-2.087,-2.0905,-2.0428,-2.0426,-2.0595,-2.0595,-2.0595,-2.0595,-2.0595,-2.0595,-2.0595,-2.0679,-2.0628,-2.0595,-2.0695,-2.0326,-1.9763,-1.9009,-1.8648,-1.8304,-1.7782,-1.7536,-1.7407,-1.7407,-1.6573,-1.5957,-1.5878,-1.473,-1.3658,-1.2758,-1.2202,-1.1471,-1.0438,-0.9535,-0.875,-0.8177,-0.7274,-0.6109,-0.47,-0.3628,-0.3018,0.0,0.0,0.0,0.0,0.0,0.0,0.0,0.0,0.0,0.0,0.0,0.0,0.0,0.0,0.0,0.0,0.0,0.0,0.0,0.0,0.0,0.0,-1.6853,-1.8253,-1.8639,-1.8746,-1.9252,-2.062,-2.0878,-2.1086,-2.1562,-2.1963,-2.2568,-2.3397,-2.3796,-2.4522,-2.5772,-2.5834,-2.6349,-2.7536,-2.741,-2.7548,-2.8012,-2.8943,-2.9407,-2.9407,-2.9407,-2.9407,-2.9407,-2.9407,-2.9181,-2.8785,-2.885,-2.8713,-2.8453,-2.8453,-2.8376,-2.8183,0.0,0.0,0.0,0.0,-2.5578,-2.5108,-2.4492,-2.4007,-2.3546,-2.3369,-2.3074,-2.2758,-2.2366,-2.2375,-2.2364,-2.1845,-2.1611,-2.1421,-2.1286,-2.1131,-2.0958,-2.0827,-2.0893,-2.0958,-2.0827,-2.0794,-2.0794,-2.0794,-2.0679,0.0,-1.9788,-1.9391,-1.902,-1.8553,-1.8293,-1.8109,-1.7922,-1.729,-1.6796,-1.6662,-1.5823,-1.4908,-1.3998,-1.3314,0.0,0.0,0.0,-0.9758,-0.8967,-0.7759,0.0,0.0,0.0,0.0,0.0,0.0,0.0,0.0,-0.2472,-0.2217,0.0,0.0,0.0,0.0,0.0,0.0,0.0,0.0,0.0,0.0,0.0,0.0,0.0,0.0,0.0,0.0,-1.8822,-2.0209,-2.1453,-2.1102,-2.0878,-2.1305,-2.1505,-2.1807,-2.2338,-2.3175,-2.3888,-2.4305,-2.5024,-2.6003,-2.7263,0.0,0.0,0.0,0.0,-2.9052,-2.9407,-2.9407,-2.9407,-2.9427,-2.9427,-2.9483,-2.9595,-2.9595,-2.9425,-2.9153,-2.9191,-2.9002,-2.873,-2.8639,-2.8578,-2.8504,-2.8102,-2.7992,-2.7974,-2.7224,-2.6624,-2.6193,-2.6193,0.0,0.0,-2.5245,-2.4813,-2.4248,-2.4165,-2.4131,-2.405,-2.3685,-2.3095,-2.2491,-2.2073,-2.1696,-2.1311,-2.0941,-2.1055,-2.1183,-2.0925,-2.0827,-2.0794,-2.0794,-2.0794,-2.0712,-2.0478,-1.9945,-1.9442,-1.9043,-1.8769,-1.8436,-1.8029,-1.7963,-1.7788,-1.7447,-1.6943,0.0,-1.5706,-1.4298,-1.3285,-1.2892,-1.191,-1.0761,-0.9573,-0.8308,-0.7674,-0.7767,-0.6525,-0.6041,-0.6436,-0.5699,-0.5421,-0.5498,-0.3573,-0.3008,0.0,0.0,0.0,0.0,0.0,0.0,0.0,0.0,0.0,0.0,0.0,0.0,0.0,0.0,0.0,-1.9199,-2.0527,-2.1628,-2.2226,-2.2186,-2.2158,-2.226,-2.2287,-2.2647,-2.3488,-2.3973,-2.4847,-2.6304,-2.6767,-2.7447,-2.8571,-2.8617,-2.8828,-2.927,-2.9332,-2.9392,-2.9488,-2.9488,-2.947,-2.9491,-2.9491,0.0,-3.0839,-3.0839,-3.1019,-3.1262,-3.0634,-3.0312,-3.015,-2.9481,-2.9093,-2.885,-2.8446,-2.8183,-2.7982,-2.7783,-2.7269,-2.6774,-2.6774,-2.6472,-2.6133,-2.6133,-2.6067,-2.5798,-2.5163,-2.4963,0.0,-2.4116,-2.3786,-2.3489,-2.254,-2.2264,-2.2005,-2.1343,-2.1055,-2.0958,-2.1151,-2.099,-2.0794,-2.0794,-2.0794,-2.0794,-2.0728,-2.0308,-1.9889,-1.9603,-1.9258,-1.8907,-1.8514,-1.8201,-1.7841,-1.7434,-1.7066,-1.6612,-1.6028,-1.5464,-1.4768,-1.3963,-1.271,-1.1683,-1.0937,-1.0193,-0.9708,-0.9526,-0.8209,-0.7466,-0.7367,-0.6623,-0.6241,-0.6283,-0.5449,-0.4944,0.0,0.0,0.0,0.0,0.0,0.0,0.0,0.0,0.0,0.0,0.0,-1.6551,-1.7641,0.0,-1.992,-2.1017,-2.1752,-2.2315,-2.2605,-2.2659,-2.2659,-2.2659,-2.2659,-2.3093,-2.4171,-2.4789,-2.575,-2.7272,-2.7893,-2.848,-2.9166,-2.923,-2.9293,-2.9453,-2.9472,-2.9511,-2.951,-2.951,-2.9696,-3.009,-3.009,-3.0633,-3.1607,-3.2019,-3.211,-3.1955,-3.1955,-3.1691,-3.1241,-3.0418,-2.9718,-2.9178,-2.8984,-2.8615,-2.8183,-2.8156,-2.7901,-2.7566,-2.7452,-2.7299,-2.7144,-2.6987,-2.6971,-2.6871,-2.6478,-2.6343,-2.6226,-2.5625,-2.5206,-2.4772,-2.4033,-2.3419,-2.282,-2.2271,-2.1709,-2.1293,-2.1309,-2.1023,-2.0794,-2.0794,-2.0794,-2.0794,-2.0794,-2.0628,-2.0308,-1.9975,-1.9717,-1.9413,-1.8945,-1.8717,-1.8447,-1.7988,-1.7787,-1.7356,-1.6561,-1.5786,-1.502,-1.4301,-1.3148,-1.2362,-1.2062,-1.128,-1.0756,-1.0554,-0.9641,-0.9096,-0.8888,-0.8036,-0.7669,-0.7853,-0.7291,-0.6653,0.0,0.0,0.0,0.0,0.0,0.0,0.0,0.0,-1.5863,-1.7238,-1.7987,-1.8783,-2.0145,-2.0829,-2.1508,-2.2476,-2.2623,-2.2659,-2.2868,-2.2952,-2.296,-2.296,-2.2935,-2.3485,-2.4866,-2.5584,-2.6553,-2.7959,-2.871,-2.9188,-2.9412,-2.9472,-2.9531,-2.9531,-2.968,-2.9849,-2.9999,-3.0167,-3.0672,-3.1476,-3.1476,-3.1907,-3.2788,-3.3421,-3.344,-3.2991,-3.3306,-3.2895,-3.1942,-3.1225,-3.0437,-2.9651,-2.9649,-2.92,-2.8597,-2.8522,-2.8446,-2.8324,-2.8102,-2.802,-2.7964,-2.7771,-2.7672,-2.763,-2.76,-2.7539,-2.7448,-2.7115,-2.6622,-2.6079,-2.5542,-2.4692,-2.3816,-2.3244,-2.2545,-2.1886,-2.1497,-2.1119,-2.086,-2.0794,-2.0794,-2.0794,-2.0794,-2.0794,-2.0662,-2.0273,-2.0139,-1.9879,-1.9427,-1.9332,-1.9058,-1.8577,-1.8475,-1.8042,-1.7073,-1.5994,-1.5144,-1.4574,-1.3743,-1.314,-1.2969,-1.2162,-1.1592,-1.1422,-1.0894,-1.0565,-1.0435,-0.94,-0.9026,-0.9283,-0.8753,-0.7929,-1.3285,-1.4586,-1.5993,-1.6797,-1.686,-1.7624,0.0,0.0,-1.9979,-2.1288,-2.1909,-2.2186,-2.2228,-2.2418,-2.2669,-2.296,-2.2977,-2.3003,-2.3217,-2.3445,-2.3606,-2.3606,-2.3477,-2.4118,-2.5846,-2.6387,-2.7253,-2.8824,-2.9277,-2.9453,-2.9492,-2.955,-2.9588,-2.9588,-3.0338,-3.109,-3.1803,-3.2572,-3.336,-3.4148,-3.4148,-3.4617,-3.5462,-3.5556,-3.5908,-3.6349,-3.4895,-3.3418,-3.1998,-3.1821,-3.1297,-3.0549,-3.0506,-2.9978,-2.9243,-2.9026,-2.8737,-2.846,-2.8435,-2.841,-2.8428,-2.8402,-2.8219,-2.802,-2.7954,-2.7789,-2.7557,-2.7448,-2.7396,-2.7078,-2.6093,-2.5723,-2.5278,-2.3852,-2.311,-2.2543,-2.1973,-2.1417,-2.099,-2.0827,-2.0794,-2.0794,-2.0794,-2.0794,-2.0794,-2.0728,-2.0677,-2.046,-2.0065,-1.9711,-1.9258,-1.8655,-1.8372,-1.7975,-1.7393,-1.6938,-1.6341,-1.5509,-1.5091,-1.4427,-1.3549,-1.3267,-1.2944,-1.2532,-1.1831,-1.1428,-1.1338,-1.0218,-0.9621,-0.9563,-0.9013,-0.8376,-1.7767,-1.8037,0.0,0.0,-2.0055,-2.0341,-2.1965,-2.1777,-2.1572,-2.2531,-2.2876,-2.2977,-2.2968,-2.3035,-2.3126,0.0,-2.3371,-2.3445,-2.3513,-2.3692,-2.3862,-2.4019,-2.4002,-2.4626,-2.6319,-2.6626,-2.7431,-2.9202,-2.9472,-2.955,-2.955,-2.9626,-2.987,-3.0339,-3.1165,-3.2011,-3.2856,-3.3682,-3.4526,-3.5353,-3.5353,-3.5784,-3.661,-3.708,-3.7211,-3.7,-3.5773,-3.4308,-3.2751,-3.2729,-3.22,-3.1352,-3.0865,-3.0732,-3.0711,-2.9617,-2.9138,-2.8989,-2.885,-2.8803,-2.8761,-2.8554,-2.841,-2.8324,-2.8298,-2.8102,-2.7886,-2.784,-2.776,-2.7512,-2.7061,-2.6601,-2.6103,-2.5444,-2.4235,-2.3211,-2.2936,-2.2106,-2.137,-2.126,-2.1166,-2.1055,-2.099,-2.0958,-2.0925,-2.0827,-2.0777,-2.0662,-2.0475,-2.0185,-1.9675,-1.8974,-1.8319,-1.7814,-1.7598,-1.7157,-1.6637,-1.6039,-1.5599,-1.5119,-1.4501,-1.3847,-1.3382,-1.3094,-1.2559,-1.2175,-1.2076,-1.125,-1.0635,-1.0285,-0.9666,-0.9099,-2.0038,0.0,0.0,-2.1711,-2.2282,-2.2486,-2.2435,-2.2417,-2.2576,-2.3045,-2.3193,-2.3247,-2.3389,-2.3412,-2.3458,-2.3594,-2.3912,-2.4127,-2.4127,-2.4292,-2.4486,-2.4653,-2.452,-2.5039,-2.6693,-2.6841,-2.7587,-2.9419,-2.9607,-2.9626,-2.9626,-2.9664,-3.0077,-3.0865,-3.1917,-3.2987,-3.4076,-3.5108,-3.6066,-3.6911,-3.6911,-3.723,-3.7793,-3.8394,-3.8206,-3.738,-3.6573,-3.5387,-3.4014,-3.3749,-3.3085,-3.2235,-3.1616,-3.1616,-3.1784,-3.0567,-3.0118,-3.0002,-2.9344,-2.9259,-2.9365,-2.8905,-2.8694,-2.8646,-2.8646,-2.8428,-2.8219,-2.8219,-2.802,-2.7829,-2.7829,-2.7326,-2.6772,-2.658,-2.5409,-2.4202,-2.3659,-2.2786,-2.198,-2.1587,-2.1432,-2.1324,-2.1119,-2.1103,-2.1023,-2.0827,-2.0794,-2.0761,-2.0744,-2.0373,-1.9869,-1.9101,-1.8358,-1.7882,-1.7841,-1.7406,-1.6976,-1.6625,-1.6083,-1.5644,-1.5266,-1.4305,-1.3705,-1.3467,-1.3007,-1.2686,-1.2529,-1.195,-1.1443,-1.1006,-1.0379,-0.9865,0.0,0.0,-2.2327,-2.1696,-2.2638,-2.3696,-2.3495,-2.35,-2.3482,-2.3319,-2.3401,-2.3544,-2.3667,-2.3692,-2.3735,-2.3883,-2.4663,-2.5256,-2.5256,-2.5486,-2.5651,-2.5668,-2.508,-2.5349,0.0,-2.7169,-2.788,-2.957,-2.9701,-2.9701,-2.9701,-2.9701,-3.0077,-3.0865,-3.2499,-3.4151,-3.5803,-3.7399,-3.8619,-3.9508,-3.9508,-3.9508,-3.9526,-3.9564,-3.9089,-3.8225,-3.7399,-3.6592,-3.5766,-3.4836,-3.3989,-3.324,-3.316,-3.267,-3.1998,-3.1942,-3.188,-3.1592,-2.9946,-2.9888,-3.0426,-2.9628,-2.92,-2.898,-2.898,-2.8761,-2.8504,-2.8504,-2.8298,-2.8102,-2.8102,-2.788,-2.749,-2.6771,-2.6406,-2.572,-2.3811,-2.3354,-2.2942,-2.1564,-2.1462,-2.1477,-2.1151,-2.1103,-2.1023,-2.0827,-2.0794,-2.0794,-2.0794,-2.017,-1.9493,-1.886,-1.862,-1.84,-1.8202,-1.7855,-1.7598,-1.7393,-1.6655,-1.6083,-1.5588,-1.4744,-1.4071,-1.3621,-1.3104,-1.2832,-1.2676,-1.2089,-1.1733,-1.1551,-1.1023,-1.0762,-2.2897,0.0,-2.3934,-2.4857,-2.5274,-2.5317,-2.4747,-2.466,-2.4475,-2.3825,-2.3735,-2.3798,-2.3941,-2.3961,-2.4001,-2.4135,-2.4949,-2.5579,-2.5579,-2.6207,-2.6499,-2.5972,-2.6174,0.0,0.0,0.0,0.0,-2.957,-2.9701,-3.0171,-3.1241,-3.1278,-3.2198,-3.417,-3.5277,-3.6122,-3.6686,-3.7756,-3.8169,-3.7925,-3.7925,-3.8206,-3.8732,-3.8732,-3.8281,-3.7493,-3.7211,-3.631,-3.5015,-3.4692,-3.4389,-3.4027,-3.3484,-3.3425,-3.3518,-3.2411,-3.2689,-3.3403,-3.1712,-3.1299,-3.1392,-3.053,-3.0188,-3.0012,-2.9431,-2.9071,-2.8827,-2.8827,-2.8597,-2.8324,-2.8156,-2.802,-2.7855,-2.7443,-2.6906,-2.6312,-2.5657,-2.4579,-2.3584,-2.313,-2.2416,-2.1866,-2.1691,-2.1526,-2.1325,-2.1023,-2.0893,-2.0728,-2.0545,-2.015,-1.9726,-1.931,-1.8936,-1.8683,-1.8606,-1.8372,-1.8055,-1.7639,-1.7144,-1.6667,-1.6083,-1.5254,-1.4777,-1.4593,-1.4082,-1.3658,-1.3286,-1.3074,-1.2638,-1.1918,-1.1633,-1.1266,-2.5051,-2.5355,-2.5286,-2.6635,-2.6784,-2.6362,-2.5513,-2.5329,-2.5109,-2.4185,-2.3783,-2.3657,-2.3787,-2.3565,-2.349,-2.3945,-2.5015,-2.5923,-2.6186,-2.7109,-2.753,-2.7038,-2.7179,-2.7456,0.0,0.0,0.0,-2.9678,-2.9983,-3.0772,-3.224,-3.2466,-3.3611,-3.5897,-3.6694,-3.7099,-3.7099,-3.7906,-3.7906,-3.7099,-3.7099,-3.7361,-3.7887,-3.8169,-3.785,-3.7099,-3.7099,-3.6329,-3.5033,-3.4733,-3.4561,-3.4483,-3.3977,-3.4089,-3.4427,-3.3315,-3.3618,-3.4292,-3.258,-3.2185,-3.2297,-3.1432,-3.0945,-3.0609,-3.0025,-2.9527,-2.9138,-2.9156,-2.8938,-2.8646,-2.8471,-2.8324,-2.8166,-2.7897,-2.7487,-2.7025,-2.658,-2.5638,-2.4736,-2.432,-2.3574,-2.2861,-2.2375,-2.1842,-2.1388,-2.1135,-2.099,-2.0778,-2.0444,-2.0166,-1.9884,-1.953,-1.9161,-1.886,-1.8822,-1.8683,-1.8411,-1.7895,-1.7557,-1.7186,-1.6697,-1.5788,-1.5266,-1.5266,-1.4617,-1.4071,-1.3621,-1.3621,-1.319,-1.2382,-1.2246,-1.199,-2.5012,-2.5579,-2.6408,-2.7059,-2.7193,-2.6897,-2.5838,-2.5653,-2.5393,-2.4228,-2.351,-2.308,0.0,0.0,-2.2324,-2.3266,-2.4926,-2.6355,-2.709,-2.8121,-2.8761,0.0,0.0,0.0,0.0,0.0,0.0,-2.9994,0.0,-3.1466,-3.276,-3.3242,-3.4334,-3.6198,-3.6804,-3.7126,-3.7122,-3.7774,-3.7737,-3.6967,-3.6967,-3.6986,-3.7042,-3.7831,-3.7756,-3.7024,-3.7024,-3.6573,-3.5766,-3.494,-3.4602,-3.4602,-3.4602,-3.4602,-3.4602,-3.4602,-3.4602,-3.4376,-3.2713,-3.2633,-3.3138,-3.2334,-3.1493,-3.0762,-3.0721,-3.0083,-2.9392,-2.9388,-2.9222,-2.9003,-2.9003,-2.8761,-2.8453,-2.821,-2.8102,-2.7796,-2.6662,-2.6487,-2.6271,-2.5119,-2.4782,-2.4343,-2.3254,-2.2159,-2.1391,-2.1231,-2.1183,-2.0973,-2.0478,-2.0185,-1.9919,-1.9603,-1.9325,-1.9064,-1.886,-1.8822,-1.8669,-1.8268,-1.7935,-1.7639,-1.7434,-1.6287,-1.5632,-1.5632,-1.4789,-1.4118,-1.3658,-1.3658,-1.3392,-1.2881,-1.2881,-1.2881,-2.6723,-2.7521,-2.8211,-2.8992,-2.8629,-2.7829,-2.6968,-2.633,-2.5319,-2.3198,-2.2619,-2.2125,0.0,0.0,0.0,-2.2562,-2.5191,0.0,-2.7316,-2.8726,0.0,-2.8916,0.0,-2.9627,-2.9844,-3.0458,0.0,0.0,-3.1609,-3.2233,-3.4438,-3.4677,-3.581,-3.8115,-3.7719,-3.7413,-3.731,-3.6158,-3.5428,-3.524,-3.524,-3.5578,-3.6216,-3.6423,-3.6404,-3.6216,-3.6216,-3.5709,-3.4902,-3.4677,-3.4602,-3.4602,-3.4602,-3.4602,-3.4602,-3.4602,-3.4602,-3.4545,-3.4092,-3.4052,-3.4089,-3.324,-3.2416,-3.1628,-3.0912,-3.0085,-2.9392,-2.9392,-2.9349,-2.9262,-2.9048,-2.8957,-2.8803,-2.8478,-2.8246,-2.8021,-2.7705,-2.7077,-2.6514,-2.619,-2.535,-2.456,-2.413,-2.3504,-2.3096,-2.3063,-2.2392,-2.163,-2.0791,-2.0444,-2.0289,-2.0189,-1.994,-1.9654,-1.9347,-1.9332,-1.9124,-1.8683,-1.8319,-1.7988,-1.7639,-1.6866,-1.6312,-1.6126,-1.5668,-1.4994,-1.4118,-1.4118,-1.3705,-1.2881,-1.2881,-1.2881,-2.7927,-2.8771,-2.9402,-2.9729,-2.9099,-2.8108,-2.6942,-2.5775,-2.4324,-2.22,-2.1185,0.0,0.0,0.0,0.0,0.0,0.0,0.0,-2.7388,-2.8753,-2.9634,0.0,-3.0037,0.0,-3.0386,-3.1171,-3.2053,0.0,-3.2718,-3.3377,-3.5316,-3.5628,-3.6588,-3.8399,-3.7898,-3.7392,-3.6958,-3.5533,-3.4812,-3.4792,-3.4792,-3.4996,-3.544,-3.5776,-3.5716,-3.5353,-3.5728,-3.5409,-3.4602,-3.4602,-3.4602,-3.4602,-3.4602,-3.4602,-3.4602,-3.4602,-3.4602,-3.4602,-3.4602,-3.4602,-3.4526,-3.4036,-3.3058,-3.1987,-3.1478,-3.0465,-2.9491,-2.9412,-2.9431,-2.939,-2.9222,-2.9178,-2.9097,-2.8785,-2.8597,-2.842,-2.8156,-2.7644,-2.7211,-2.6988,-2.6108,-2.5322,-2.5108,-2.457,-2.4113,-2.3918,-2.3309,-2.2652,-2.1929,-2.1255,-2.0969,-2.1295,-2.1038,-2.0609,-2.0013,-1.9983,-1.9641,-1.8836,-1.863,-1.8397,-1.8055,-1.731,-1.685,-1.671,-1.6132,-1.5424,-1.4628,-1.4628,-1.4129,-1.32,-1.32,-1.3113,-2.8645,-2.9426,-3.0018,-2.9604,-2.8894,-2.7824,-2.6207,-2.4584,-2.2881,-2.0992,0.0,-1.8335,-1.8014,-1.8989,-2.0114,-2.0921,0.0,-2.5746,-2.7424,-2.8506,-2.9466,-3.0326,-3.0539,-3.0707,-3.0912,-3.1646,-3.2488,-3.3475,-3.3983,-3.466,-3.567,-3.6145,-3.6767,-3.7577,-3.7533,-3.7075,-3.6274,-3.5493,-3.5081,-3.5015,-3.5032,-3.4963,-3.4868,-3.5546,-3.5388,-3.4661,-3.5409,-3.5296,-3.4602,-3.4602,-3.4602,-3.4602,-3.4602,-3.4602,-3.4602,-3.4602,-3.4602,-3.4602,-3.4602,-3.4602,-3.4602,-3.4602,-3.3475,-3.2105,-3.21,-3.0918,-2.9588,-2.9453,-2.9453,-2.9491,-2.9429,-2.9411,-2.9351,-2.9115,-2.9026,-2.8868,-2.8342,-2.8156,-2.7964,-2.7539,-2.6914,-2.6372,-2.6158,-2.5446,-2.4846,-2.454,-2.4115,-2.3769,-2.3506,-2.239,-2.1843,-2.2465,-2.227,-2.1797,-2.0918,-2.0835,-2.0315,-1.9224,-1.9118,-1.9002,-1.8796,-1.8004,-1.7547,-1.7463,-1.6604,-1.5894,-1.5349,-1.5246,-1.474,-1.3799,-1.3641,-1.3392,-2.8645,-2.9426,-2.9865,-2.887,-2.8012,-2.6996,-2.5386,-2.3724,0.0,0.0,-1.7822,-1.699,-1.4938,-1.7036,-1.9331,-2.0088,0.0,0.0,0.0,0.0,-2.9655,0.0,0.0,0.0,0.0,0.0,0.0,0.0,-3.5436,-3.5581,-3.5763,-3.5863,-3.5969,-3.6075,-3.6588,-3.6433,-3.5578,-3.5307,-3.5174,-3.5184,-3.5159,-3.513,-3.5054,-3.5096,-3.4983,-3.4768,-3.4814,-3.4733,-3.4602,-3.4602,-3.4602,-3.4602,-3.4602,-3.4602,-3.4602,-3.4602,-3.4602,-3.4602,-3.4602,-3.4602,-3.4602,-3.4602,-3.3475,-3.2105,-3.2105,-3.0939,-2.9588,-2.9569,-2.9531,-2.9492,-2.9491,-2.9472,-2.9453,-2.9332,-2.9166,-2.8971,-2.8868,-2.8446,-2.802,-2.7701,-2.7404,-2.7182,-2.7151,-2.631,-2.5831,-2.6413,-2.5093,-2.4248,-2.4779,-2.3568,-2.2665,-2.2844,-2.2771,-2.2577,-2.2207,-2.1927,-2.1558,-2.1055,-2.0775,-2.052,-2.0328,-1.9908,-1.938,-1.8777,-1.8234,-1.7478,-1.6581,-1.6018,-1.5432,-1.4833,-1.3978,-1.3573,-2.8645,-2.9426,-2.9827,-2.8681,-2.7805,-2.6545,-2.4049,0.0,0.0,0.0,0.0,-1.4658,-1.3899,0.0,0.0,0.0,0.0,0.0,0.0,0.0,0.0,0.0,0.0,0.0,0.0,0.0,0.0,-3.5033,-3.5538,-3.5799,-3.5799,-3.5793,-3.5794,-3.5747,-3.6037,-3.5974,-3.5546,-3.5492,-3.5444,-3.5399,-3.5406,-3.5339,-3.5197,-3.5146,-3.5047,-3.4944,-3.4889,-3.487,-3.487,-3.487,-3.487,-3.487,-3.487,-3.4812,-3.4751,-3.4751,-3.4689,-3.4602,-3.4602,-3.4602,-3.4602,-3.4602,-3.3475,-3.2105,-3.2105,-3.094,-2.9645,-2.9607,-2.9607,-2.9589,-2.9512,-2.9531,-2.9531,-2.9472,-2.923,-2.8993,-2.8989,-2.8522,-2.8075,-2.7926,-2.7713,-2.7569,-2.7569,-2.7135,-2.6874,-2.7178,-2.6326,-2.5696,-2.5747,-2.5064,-2.4277,-2.3649,-2.3824,-2.3752,-2.3087,-2.2716,-2.2249,-2.153,-2.1193,-2.0961,-2.0851,-2.0159,-1.9622,-1.9266,-1.8469,-1.7834,-1.7351,-1.7051,-1.6443,-1.5629,-1.5107,-1.445,-2.8638,-2.9339,-2.9575,-2.8452,-2.7691,-2.6333,-2.2838,-2.033,0.0,0.0,-1.3621,-1.2798,-1.3459,0.0,0.0,0.0,0.0,0.0,0.0,0.0,0.0,0.0,0.0,0.0,0.0,0.0,0.0,-3.47,-3.541,-3.5799,-3.5799,-3.5801,-3.5812,-3.5812,-3.5756,-3.5718,-3.5718,-3.5718,-3.5679,-3.5639,-3.5639,-3.5554,-3.538,-3.5353,-3.5264,-3.5127,-3.5127,-3.5111,-3.5114,-3.5111,-3.5111,-3.5111,-3.5111,-3.5047,-3.4963,-3.4945,-3.4831,-3.471,-3.4666,-3.4645,-3.4645,-3.4623,-3.3588,-3.2349,-3.2161,-3.1091,-2.9927,-2.9683,-2.9645,-2.9683,-2.9569,-2.9569,-2.9607,-2.955,-2.9312,-2.9082,-2.902,-2.8652,-2.8298,-2.8219,-2.7992,-2.78,-2.78,-2.7619,-2.7467,-2.7461,-2.7155,-2.6749,-2.6354,-2.6179,-2.5642,-2.4543,-2.4808,-2.4744,-2.3944,-2.3526,-2.2935,-2.2099,-2.1727,-2.1478,-2.1409,-2.058,-2.0034,-1.9809,-1.8969,-1.8434,-1.8203,-1.8031,-1.7509,-1.6646,-1.6385,-1.5499,-2.8603,-2.904,-2.8836,-2.7698,-2.7339,-2.6242,-2.2218,0.0,0.0,-1.4641,-1.3242,-1.2636,-1.2776,-1.4232,0.0,0.0,0.0,-2.2602,0.0,0.0,0.0,0.0,0.0,0.0,0.0,0.0,0.0,-3.5566,-3.576,-3.5799,-3.5799,-3.5791,-3.5791,-3.5791,-3.5791,-3.5801,-3.5794,-3.5801,-3.5793,-3.5775,-3.5773,-3.5747,-3.5667,-3.5535,-3.5419,-3.5283,-3.5215,-3.5189,-3.5181,-3.5189,-3.52,-3.52,-3.52,-3.5185,-3.5174,-3.51,-3.507,-3.5035,-3.4849,-3.4788,-3.4768,-3.4645,-3.4001,-3.3137,-3.2349,-3.1485,-3.064,-2.9908,-2.9701,-2.9701,-2.9683,-2.9701,-2.9664,-2.9607,-2.9531,-2.9394,-2.9148,-2.9042,-2.8929,-2.8603,-2.8342,-2.8129,-2.8075,-2.7321,-2.6929,-2.7566,-2.6869,-2.6273,-2.629,-2.6285,-2.5961,-2.5195,-2.522,-2.5224,-2.516,-2.4672,-2.4194,-2.38,-2.3372,-2.3025,-2.2759,-2.2624,-2.2126,-2.1254,-2.1014,-2.039,-1.9403,-1.8832,-1.8461,-1.835,-1.7286,-1.6436,-2.716,-2.779,-2.7885,-2.6847,-2.6613,-2.5546,-2.136,0.0,-1.7054,-1.378,-1.2046,-1.1427,-1.2491,-1.3311,-1.4795,0.0,0.0,0.0,0.0,0.0,0.0,0.0,0.0,0.0,0.0,0.0,-3.4004,-3.5663,-3.5799,-3.5799,-3.5799,-3.5799,-3.5799,-3.5799,-3.5799,-3.5791,-3.5801,-3.5791,-3.5791,-3.5801,-3.5791,-3.5793,-3.5757,-3.5689,-3.5629,-3.5535,-3.5504,-3.5512,-3.5488,-3.5512,-3.5492,-3.5492,-3.5492,-3.5456,-3.5366,-3.5254,-3.5184,-3.507,-3.4908,-3.483,-3.4788,-3.4747,-3.4459,-3.3869,-3.2518,-3.1541,-3.0734,-2.9927,-2.9701,-2.9701,-2.9701,-2.9701,-2.9683,-2.9683,-2.9607,-2.9531,-2.9433,-2.9251,-2.9064,-2.8929,-2.8529,-2.8183,-2.8156,-2.7649,-2.7368,-2.7648,-2.735,-2.7086,-2.6953,-2.6946,-2.6723,-2.6118,-2.5701,-2.547,-2.5486,-2.5005,-2.4549,-2.4177,-2.3681,-2.3246,-2.2888,-2.2615,-2.2278,-2.1874,-2.1527,-2.0944,-2.0207,-1.9939,-1.9409,-1.8697,-1.8264,-1.7478,-2.5779,-2.6653,-2.7109,-2.6342,-2.5991,-2.4774,0.0,-1.8478,-1.6271,-1.3254,-1.128,-1.0643,-1.2407,-1.2775,-1.3833,0.0,0.0,-1.9075,0.0,0.0,0.0,0.0,0.0,0.0,0.0,-3.3624,-3.4561,-3.5741,-3.5807,-3.5807,-3.583,-3.5807,-3.5799,-3.5799,-3.5799,-3.5799,-3.5799,-3.5799,-3.5799,-3.5799,-3.5799,-3.581,-3.5793,-3.5793,-3.5775,-3.5737,-3.5727,-3.5727,-3.5737,-3.5727,-3.5727,-3.5727,-3.5727,-3.5669,-3.5566,-3.5451,-3.5345,-3.5247,-3.5051,-3.4945,-3.4908,-3.4829,-3.4747,-3.4381,-3.2932,-3.1917,-3.1091,-3.0283,-2.987,-2.9701,-2.9701,-2.9701,-2.9701,-2.9701,-2.9664,-2.9626,-2.9626,-2.9453,-2.9272,-2.9251,-2.8795,-2.8394,-2.8342,-2.801,-2.776,-2.7701,-2.7701,-2.7642,-2.7509,-2.7434,-2.7215,-2.6759,-2.6225,-2.5844,-2.5712,-2.5301,-2.4855,-2.4467,-2.3937,-2.3465,-2.3053,-2.2646,-2.2324,-2.2184,-2.1827,-2.1382,-2.0845,-2.066,-2.0152,-1.9333,-1.9133,-1.8471,-2.4812,-2.5847,-2.6488,-2.6339,-2.5601,-2.4043,0.0,-1.8032,-1.5537,-1.3171,-1.1316,-1.065,-1.2467,-1.2806,-1.3642,-1.6203,-1.8069,0.0,0.0,0.0,0.0,0.0,0.0,0.0,0.0,-3.4397,-3.5889,-3.5908,-3.5845,0.0,-3.5903,-3.5845,-3.5799,-3.5799,-3.5799,-3.5799,-3.5799,-3.5799,-3.5799,-3.5799,-3.5799,-3.5799,-3.5791,-3.5791,-3.5801,-3.5803,-3.5801,-3.5801,-3.5803,-3.5801,-3.5791,-3.5791,-3.5791,-3.5791,-3.5782,-3.5718,-3.5688,-3.5657,-3.5321,-3.52,-3.5152,-3.4888,-3.4788,-3.4617,-3.3665,-3.278,-3.1917,-3.111,-3.0321,-2.9701,-2.9701,-2.9701,-2.9701,-2.9701,-2.9701,-2.9701,-2.9701,-2.9701,-2.9664,-2.9607,-2.9212,-2.8819,-2.8628,-2.8273,-2.794,-2.773,-2.7701,-2.7701,-2.7701,-2.7509,-2.731,-2.7038,-2.6759,-2.6399,-2.5934,-2.5733,-2.5362,-2.4815,-2.4467,-2.4036,-2.3406,-2.3053,-2.2661,-2.2231,-2.217,-2.1921,-2.1369,-2.0845,-2.061,-2.0547,-1.9901,-1.9214,-2.1491,-2.2384,-2.2861,-2.2163,-2.1809,-2.1039,-1.8802,-1.6829,-1.4935,-1.3089,-1.1354,-1.0711,-1.247,-1.2806,-1.4027,-1.7777,-1.8846,0.0,0.0,0.0,0.0,0.0,0.0,0.0,0.0,0.0,-3.59,-3.59,-3.5884,-3.5884,-3.5896,-3.5875,-3.5852,-3.5799,-3.5799,-3.5799,-3.5799,-3.5799,-3.5799,-3.5799,-3.5799,-3.5799,-3.5799,-3.5799,-3.5791,-3.5801,-3.5791,-3.5791,-3.5801,-3.5791,-3.5799,-3.5799,-3.5799,-3.5799,-3.5791,-3.5718,-3.5707,-3.5667,-3.547,-3.5378,-3.5307,-3.5136,-3.4981,-3.4699,-3.375,-3.2841,-3.1823,-3.0452,-2.9889,-2.9701,-2.9701,-2.9701,-2.9701,-2.9701,-2.9701,-2.9701,-2.9701,-2.9701,-2.9683,-2.9664,-2.9353,-2.9038,-2.8842,-2.8522,-2.8192,-2.795,-2.7911,-2.7864,-2.773,-2.7642,-2.7539,-2.731,-2.7038,-2.6657,-2.6168,-2.5934,-2.5642,-2.523,-2.4974,-2.4614,-2.4036,-2.3638,-2.3319,-2.3024,-2.2783,-2.2463,-2.1921,-2.1779,-2.1299,-2.061,-2.0271,-1.985,0.0,-1.9818,-2.0394,-2.0107,-1.9574,-1.8754,-1.7403,-1.5582,-1.3785,-1.2473,-1.1123,-1.0692,-1.247,-1.2806,-1.3872,-1.719,-1.8278,0.0,0.0,0.0,0.0,0.0,0.0,0.0,0.0,-3.4697,-3.5909,-3.5909,-3.5901,-3.5899,-3.5908,-3.5908,-3.5872,-3.5845,-3.5815,-3.5799,-3.5799,-3.5799,-3.5799,-3.5799,-3.5799,-3.5799,-3.5799,-3.5799,-3.5799,-3.5799,-3.5799,-3.5799,0.0,-3.5799,-3.5799,-3.5799,-3.5799,-3.5799,-3.5791,-3.5747,-3.5728,-3.5718,-3.5596,-3.555,-3.5489,-3.5336,-3.5133,-3.481,-3.3884,-3.2694,-3.1391,-3.0058,-2.9701,-2.9701,-2.9701,-2.9701,-2.9701,-2.9701,-2.9701,-2.9701,-2.9701,-2.9701,-2.9701,-2.9701,-2.9472,-2.9209,-2.9042,-2.8772,-2.8496,-2.821,-2.8101,-2.7989,-2.7836,-2.776,-2.7612,-2.7434,-2.7166,-2.6808,-2.638,-2.6151,-2.5881,-2.5626,-2.5346,-2.5013,-2.4508,-2.3964,-2.3608,-2.3406,-2.3053,-2.2752,-2.2463,-2.2278,-2.1636,-2.061,-2.051,-2.0169,0.0,-1.783,-1.8699,-1.9391,-1.8345,-1.6958,-1.63,-1.4252,0.0,-1.1545,-1.0703,-1.0692,-1.2623,-1.292,-1.3522,-1.5442,-1.7117,0.0,0.0,0.0,0.0,0.0,0.0,0.0,-3.2187,-3.4453,-3.5918,-3.5918,-3.5912,-3.5909,-3.5918,-3.5907,-3.5894,-3.5894,-3.5826,-3.5799,-3.5799,-3.5799,-3.5799,-3.5799,-3.5799,-3.5799,-3.5799,-3.5799,-3.5799,-3.5799,-3.5799,-3.5799,-3.5799,-3.5799,-3.5799,-3.5799,-3.5799,-3.5799,-3.5799,-3.5799,-3.5799,-3.5791,-3.5718,-3.5718,-3.5678,-3.547,-3.5239,-3.4874,-3.4069,-3.25,-3.0847,-3.0039,-2.9757,-2.972,-2.9701,-2.9701,-2.9701,-2.9701,-2.9701,-2.9701,-2.9701,-2.9701,-2.9701,-2.9701,-2.955,-2.9392,-2.923,-2.906,-2.8819,-2.8496,-2.8316,-2.8174,-2.8025,-2.7836,-2.7642,-2.7434,-2.7198,-2.6925,-2.664,-2.638,-2.6132,-2.5934,-2.5626,-2.5269,-2.4895,-2.4158,-2.3694,-2.3493,-2.3142,-2.2933,-2.2888,-2.2463,-2.1732,-2.0709,-2.066,-2.0359,-1.2313,0.0,-1.4896,-1.4462,-1.4048,-1.371,0.0,-1.2555,-1.1633,0.0,0.0,0.0,0.0,-1.4219,-1.5209,-1.9502,0.0,-2.15,0.0,0.0,0.0,0.0,0.0,-3.3088,-3.3092,-3.483,-3.5982,-3.5982,-3.5987,-3.5987,-3.5982,-3.5932,-3.5903,-3.5903,-3.5827,-3.5799,-3.5799,-3.5799,-3.5799,-3.5799,-3.5799,-3.5799,-3.5799,-3.5799,-3.5799,-3.5799,-3.5799,-3.5799,-3.5799,-3.5799,-3.5799,-3.5799,-3.5799,-3.5799,-3.5799,-3.5799,-3.5799,-3.5791,-3.5773,-3.5773,-3.5736,-3.5546,-3.495,-3.4299,-3.4031,-3.3051,-3.1863,-3.1015,-3.0281,-2.9755,-2.9701,-2.9701,-2.9701,-2.9701,-2.9701,-2.9701,-2.9701,-2.9701,-2.9701,-2.9701,-2.9664,-2.9569,-2.9373,-2.9312,-2.9188,-2.8819,-2.8664,-2.85,-2.8174,-2.8017,-2.7836,-2.7642,-2.7448,-2.7215,-2.6925,-2.6468,-2.6184,-2.6132,-2.6043,-2.5881,-2.5659,-2.5075,-2.4679,-2.4477,-2.3666,-2.3172,-2.2888,-2.2797,-2.2417,-2.1827,-2.1382,-2.0944,-1.0531,-1.2186,-1.38,-1.3755,-1.3449,-1.3258,-1.366,0.0,0.0,0.0,0.0,0.0,0.0,0.0,0.0,0.0,-2.1247,0.0,0.0,0.0,0.0,0.0,0.0,-3.2963,0.0,-3.4619,-3.5575,-3.5971,-3.6007,-3.6007,-3.5991,-3.5937,-3.5908,-3.5896,-3.5869,-3.5838,-3.5799,-3.5799,-3.5799,-3.5799,-3.5799,-3.5799,-3.5799,-3.5799,-3.5799,-3.5799,-3.5799,-3.5799,-3.5799,-3.5799,-3.5799,-3.5799,-3.5799,-3.5799,-3.5799,-3.5799,-3.5799,-3.5799,-3.5799,-3.5799,-3.5782,-3.566,-3.5259,-3.4844,-3.4788,-3.3766,-3.2435,-3.145,-3.0517,-2.979,-2.9756,-2.9719,-2.9701,-2.9701,-2.9701,-2.9701,-2.9701,-2.9701,-2.9701,-2.9701,-2.9701,-2.9683,-2.955,-2.9531,-2.9453,-2.9169,-2.9012,-2.8761,-2.8342,-2.8174,-2.7989,-2.773,-2.7509,-2.7341,-2.7215,-2.6691,-2.6345,-2.622,-2.622,-2.6096,-2.5897,-2.5476,-2.4958,-2.4297,-2.3779,-2.3334,-2.2888,-2.2888,-2.2661,-2.2184,-2.1921,-2.1479,-1.0287,-1.2243,-1.4258,-1.4462,-1.4258,-1.4163,-1.4749,0.0,0.0,0.0,0.0,0.0,0.0,0.0,0.0,0.0,0.0,0.0,0.0,0.0,0.0,0.0,-3.1571,0.0,-3.3328,-3.4199,-3.5057,-3.5929,-3.6001,-3.6001,-3.601,-3.5933,-3.5897,-3.5901,-3.5884,-3.5866,-3.5815,-3.5799,-3.5799,-3.5799,-3.5799,-3.5799,-3.5799,-3.5799,-3.5799,-3.5799,-3.5799,-3.5799,-3.5799,-3.5799,-3.5799,-3.5799,-3.5799,-3.5799,-3.5799,-3.5799,-3.5799,-3.5799,-3.5799,-3.5799,-3.5799,-3.5799,-3.5756,-3.5728,-3.5728,-3.4403,-3.2744,-3.1832,-3.0734,-2.9842,-2.9825,-2.9774,-2.972,-2.972,-2.972,-2.9701,-2.9701,-2.9701,-2.9701,-2.9701,-2.9701,-2.9701,-2.9701,-2.9701,-2.9645,-2.9472,-2.9332,-2.906,-2.8529,-2.8342,-2.812,-2.7789,-2.7569,-2.7434,-2.7404,-2.6957,-2.6537,-2.6274,-2.6203,-2.6096,-2.5897,-2.5626,-2.4965,-2.3906,-2.3822,-2.3493,-2.2978,-2.2933,-2.2706,-2.2324,-2.2231,-2.1969,-1.1645,-1.3966,-1.5341,-1.2571,-1.3392,-1.4729,0.0,0.0,0.0,0.0,0.0,0.0,0.0,0.0,0.0,0.0,0.0,0.0,0.0,0.0,0.0,-3.0703,0.0,-3.244,-3.3317,-3.4195,-3.5049,-3.5931,-3.6009,-3.5994,-3.6001,-3.5947,-3.5897,-3.5898,-3.5845,-3.5836,-3.5878,-3.583,-3.5799,-3.5799,-3.5799,-3.5799,-3.5799,-3.5799,-3.5799,-3.5799,-3.5799,-3.5799,-3.5799,-3.5799,-3.5799,-3.5799,-3.5799,-3.5799,-3.5799,-3.5799,-3.5799,-3.5799,-3.5799,-3.5799,-3.5799,-3.5799,-3.5791,-3.5782,-3.5782,-3.4506,-3.3025,-3.287,-3.1495,-3.0022,-2.9924,-2.9823,-2.979,-2.979,-2.9738,-2.9701,-2.9701,-2.9701,-2.9701,-2.9701,-2.9701,-2.9701,-2.9701,-2.9701,-2.9701,-2.9664,-2.9472,-2.923,-2.8865,-2.8554,-2.8255,-2.7979,-2.7777,-2.76,-2.7404,-2.712,-2.6825,-2.6554,-2.631,-2.6096,-2.5897,-2.5844,-2.5438,-2.4639,-2.4369,-2.3909,-2.3334,-2.3053,-2.2843,-2.2797,-2.237,-2.2184,-1.0834,-1.299,-1.4729,-1.3621,-1.5624,-1.7742,-1.7346,0.0,0.0,0.0,0.0,0.0,0.0,0.0,0.0,0.0,0.0,0.0,-2.9383,-2.9913,-3.0345,0.0,0.0,-3.1746,-3.2608,-3.3067,-3.3847,-3.5206,-3.487,-3.5006,-3.5951,-3.5516,-3.5457,-3.5897,-3.5877,-3.5857,-3.5841,-3.5813,-3.5794,-3.5799,-3.5799,-3.5799,-3.5799,-3.5799,-3.5799,-3.5799,-3.5799,-3.5799,-3.5799,-3.5799,-3.5799,-3.5799,-3.5799,-3.5799,-3.5799,-3.5799,-3.5799,-3.5799,-3.5799,-3.5799,-3.5799,-3.5799,-3.5799,-3.5721,-3.5236,-3.4165,-3.3006,-3.257,-3.1364,-3.0182,-3.0085,-3.0015,-2.994,-2.9874,-2.9823,-2.9808,-2.9755,-2.9737,-2.9738,-2.972,-2.9701,-2.9701,-2.9701,-2.9701,-2.9701,-2.9701,-2.9626,-2.9453,-2.9104,-2.8819,-2.8547,-2.8138,-2.7979,-2.7777,-2.7569,-2.7355,-2.699,-2.6415,-2.6274,-2.6168,-2.6059,-2.6043,-2.577,-2.5153,-2.4855,-2.4354,-2.3565,-2.329,-2.3098,-2.2888,-2.2661,-2.2555,-1.0383,-1.2269,-1.4316,-1.5188,0.0,-1.975,-2.0353,0.0,0.0,0.0,0.0,0.0,0.0,0.0,0.0,0.0,0.0,-2.9569,-2.9775,-3.0378,-3.0806,-3.0798,-3.0798,-3.1148,-3.203,-3.2099,-3.2742,-3.4281,-3.3789,-3.3984,-3.5318,-3.4753,-3.4768,-3.5593,-3.5597,-3.5664,-3.5825,-3.5814,-3.583,-3.5799,-3.5799,-3.5799,-3.5799,-3.5799,-3.5799,-3.5799,-3.5799,-3.5799,-3.5799,-3.5799,-3.5799,-3.5799,-3.5799,-3.5799,-3.5799,-3.5799,-3.5799,-3.5799,-3.5799,-3.5799,-3.5799,-3.5799,-3.5799,-3.5682,-3.5002,-3.4038,-3.3024,-3.2404,-3.1333,-3.0381,-3.0266,-3.0202,-3.009,-3.0,-2.9937,-2.9891,-2.9823,-2.9825,-2.979,-2.9738,-2.9701,-2.9701,-2.9701,-2.9701,-2.9701,-2.9701,-2.9701,-2.9589,-2.9291,-2.9042,-2.8748,-2.836,-2.8146,-2.7911,-2.7642,-2.7417,-2.7023,-2.6345,-2.6239,-2.622,-2.622,-2.622,-2.599,-2.5551,-2.5285,-2.4784,-2.3948,-2.3608,-2.3334,-2.3023,-2.2933,-2.2888,-1.1808,-1.3579,-1.5226,-1.6086,0.0,0.0,-2.0856,-2.0746,0.0,0.0,0.0,0.0,0.0,0.0,0.0,0.0,0.0,-2.9784,-3.0582,0.0,-3.0804,-3.0804,-3.0804,-3.1135,-3.2016,-3.2094,-3.2484,-3.3419,-3.3439,-3.3444,-3.3574,-3.3522,-3.3882,-3.4761,-3.4727,-3.5073,-3.5878,-3.5893,-3.5864,-3.5799,-3.5799,-3.5799,-3.5799,-3.5799,-3.5799,-3.5799,-3.5799,-3.5799,-3.5799,-3.5799,-3.5799,-3.5799,-3.5799,-3.5799,-3.5799,-3.5799,-3.5799,-3.5799,-3.5799,-3.5799,-3.5799,-3.5799,-3.5799,-3.5799,-3.5741,-3.4567,-3.3266,-3.3227,-3.1984,-3.0634,-3.0433,-3.0278,-3.0202,-3.0169,-3.0045,-2.9888,-2.9888,-2.9841,-2.9808,-2.979,-2.9738,-2.9701,-2.9701,-2.9701,-2.9701,-2.9701,-2.9701,-2.9626,-2.9412,-2.9104,-2.8837,-2.8676,-2.8273,-2.7853,-2.7465,-2.7166,-2.6892,-2.6572,-2.6345,-2.622,-2.622,-2.622,-2.6096,-2.5881,-2.5535,-2.5153,-2.4735,-2.4032,-2.3565,-2.3377,-2.3053,-2.2888,-1.0652,-1.2899,-1.5259,-1.6174,0.0,0.0,0.0,0.0,0.0,0.0,0.0,0.0,0.0,0.0,0.0,0.0,-2.8924,-2.9803,-3.0671,-3.0798,-3.0799,-3.0799,-3.0799,-3.0935,-3.1252,-3.1291,-3.1641,-3.2523,-3.209,-3.2265,-3.3346,-3.2893,-3.2991,-3.3858,-3.3871,-3.4246,-3.5078,-3.5087,-3.5342,-3.5853,-3.5852,-3.5864,-3.5855,-3.5866,-3.5857,-3.5857,-3.5826,-3.5799,-3.5799,-3.5799,-3.5799,-3.5799,-3.5799,-3.5799,-3.5799,-3.5799,-3.5799,-3.5799,-3.5799,-3.5799,-3.5799,-3.5799,-3.5799,-3.5605,-3.4556,-3.3798,-3.3079,-3.1992,-3.1215,-3.0676,-3.0548,-3.0482,-3.0419,-3.0285,-3.0196,-3.0133,-3.0034,-3.0007,-2.9943,-2.9825,-2.9773,-2.9756,-2.972,-2.9701,-2.9701,-2.9701,-2.9701,-2.9664,-2.9607,-2.9373,-2.9104,-2.8855,-2.8344,-2.7882,-2.763,-2.7386,-2.707,-2.6674,-2.6364,-2.622,-2.622,-2.622,-2.6168,-2.6096,-2.5844,-2.5551,-2.5192,-2.442,-2.3894,-2.3565,-2.3127,-2.2888,-1.027,-1.2406,-1.4908,0.0,0.0,0.0,0.0,0.0,0.0,0.0,0.0,0.0,0.0,0.0,0.0,0.0,-2.9101,-2.9798,-3.0673,-3.0808,-3.0799,-3.0799,-3.0799,-3.0799,-3.0799,-3.0799,-3.1057,-3.1641,-3.1135,-3.133,-3.2518,-3.2012,-3.209,-3.2971,-3.2989,-3.3395,-3.4217,-3.4217,-3.4517,-3.51,-3.5103,-3.5392,-3.5888,-3.5621,-3.5638,-3.5891,-3.5852,-3.5833,-3.5827,-3.5826,-3.5838,-3.5838,-3.5838,-3.5823,-3.5799,-3.5799,-3.5799,-3.5799,-3.5799,-3.5799,-3.5799,-3.5799,-3.5799,-3.5585,-3.4439,-3.372,-3.3041,-3.1856,-3.1118,-3.0683,-3.0645,-3.0613,-3.0577,-3.043,-3.0356,-3.0309,-3.0215,-3.0152,-3.0079,-2.9937,-2.9874,-2.9825,-2.9738,-2.9738,-2.9719,-2.9683,-2.9701,-2.9701,-2.9701,-2.9531,-2.927,-2.886,-2.8404,-2.7979,-2.773,-2.7552,-2.7307,-2.6891,-2.6521,-2.6274,-2.6203,-2.622,-2.622,-2.622,-2.6043,-2.5844,-2.5551,-2.4759,-2.423,-2.3879,-2.3231,-2.2888,-1.1098,-1.2433,0.0,0.0,0.0,0.0,0.0,0.0,0.0,0.0,0.0,0.0,0.0,0.0,0.0,-2.9228,-2.9491,-2.9808,-3.0677,-3.0806,-3.0799,-3.0799,-3.0799,-3.0799,-3.0799,-3.0799,-3.0799,-3.0799,-3.0799,-3.0799,-3.0799,-3.0799,-3.1193,-3.2055,-3.2094,-3.2506,-3.3378,-3.3398,-3.3387,-3.3396,-3.3398,-3.4256,-3.5855,-3.4983,-3.5069,-3.5888,-3.588,-3.5899,-3.5893,-3.589,-3.5889,-3.5889,-3.5889,-3.5866,-3.5799,-3.5799,-3.5799,-3.5799,-3.5799,-3.5799,-3.5799,-3.5799,-3.5799,-3.5799,-3.5779,-3.4614,-3.3293,-3.3274,-3.2031,-3.069,-3.069,-3.0645,-3.0604,-3.0595,-3.0501,-3.0402,-3.0402,-3.0309,-3.0196,-3.0196,-3.0045,-2.9891,-2.9806,-2.9808,-2.9773,-2.9701,-2.9701,-2.9701,-2.9701,-2.9531,-2.9228,-2.8755,-2.8456,-2.8156,-2.773,-2.7701,-2.7552,-2.7213,-2.6825,-2.6485,-2.6203,-2.622,-2.622,-2.622,-2.622,-2.6096,-2.5897,-2.5036,-2.4517,-2.4261,-2.3319,-2.2888,-1.1084,0.0,0.0,0.0,0.0,0.0,0.0,0.0,0.0,0.0,0.0,0.0,-2.9118,0.0,0.0,-2.9314,-2.9498,-2.979,-3.0685,-3.0808,-3.0799,-3.0799,-3.0799,-3.0799,-3.0799,-3.0799,-3.0799,-3.0799,-3.0799,-3.0799,-3.0799,-3.0799,-3.0916,-3.1174,-3.1198,-3.1608,-3.2473,-3.2498,-3.2783,-3.339,-3.2773,-3.3066,-3.4129,-3.3821,-3.3852,-3.4167,-3.474,-3.4983,-3.5034,-3.565,-3.59,-3.59,-3.59,-3.589,-3.5859,-3.5859,-3.5845,-3.5799,-3.5799,-3.5799,-3.5799,-3.5799,-3.5391,-3.4789,-3.4206,-3.3274,-3.2264,-3.1642,-3.1098,-3.069,-3.069,-3.0683,-3.0653,-3.0613,-3.0567,-3.0511,-3.0413,-3.037,-3.0314,-3.0209,-3.0142,-3.0041,-2.9842,-2.9808,-2.9773,-2.9701,-2.9701,-2.9701,-2.9701,-2.9645,-2.9453,-2.9038,-2.87,-2.8291,-2.776,-2.7701,-2.7672,-2.7552,-2.6989,-2.6521,-2.6203,-2.622,-2.622,-2.622,-2.622,-2.6168,-2.6096,-2.5323,-2.4799,-2.4477,-2.3638,-2.3127,-1.2451,0.0,0.0,0.0,0.0,0.0,0.0,0.0,0.0,0.0,0.0,0.0,-2.9941,-2.9292,0.0,-2.9865,-3.0024,-3.0197,-3.0726,-3.0799,-3.0799,-3.0799,-3.0799,-3.0799,-3.0799,-3.0799,-3.0799,-3.0799,-3.0799,-3.0799,-3.0799,-3.0799,-3.0799,-3.0799,-3.0794,-3.1046,-3.1578,-3.1576,-3.1858,-3.2352,-3.1838,-3.1867,-3.2383,-3.2684,-3.3034,-3.3435,-3.3919,-3.431,-3.4644,-3.5194,-3.5603,-3.5893,-3.5893,-3.5899,-3.5908,-3.5908,-3.587,-3.5833,-3.584,-3.5845,-3.5779,-3.5399,-3.4925,-3.4342,-3.3546,-3.2691,-3.1895,-3.137,-3.0962,-3.069,-3.069,-3.069,-3.0683,-3.0645,-3.0637,-3.0629,-3.0548,-3.0492,-3.0442,-3.0321,-3.026,-3.0174,-2.9959,-2.991,-2.9841,-2.9736,-2.9719,-2.9701,-2.9701,-2.9701,-2.9626,-2.9355,-2.8892,-2.844,-2.8101,-2.7847,-2.7701,-2.7701,-2.7321,-2.6825,-2.6203,-2.622,-2.622,-2.622,-2.622,-2.622,-2.622,-2.5454,-2.5013,-2.4799,-2.4021,-2.3436,0.0,0.0,0.0,0.0,0.0,0.0,0.0,0.0,0.0,0.0,0.0,-2.9777,-3.0641,-3.0144,-2.9882,-3.0674,-3.0806,-3.0799,-3.0799,-3.0799,-3.0799,-3.0799,-3.0799,-3.0799,-3.0799,-3.0799,-3.0799,-3.0799,-3.0799,-3.0799,-3.0799,-3.0799,-3.0804,-3.0804,-3.0801,-3.0806,-3.0798,-3.0801,-3.0799,-3.0798,-3.08,-3.0801,-3.0836,-3.1619,-3.2456,-3.3283,-3.3285,-3.3746,-3.4505,-3.4644,-3.514,-3.5798,-3.5876,-3.5918,-3.589,-3.589,-3.5909,-3.5884,-3.5802,-3.5783,-3.5636,-3.469,-3.4338,-3.4136,-3.339,-3.2574,-3.1875,-3.1875,-3.1312,-3.069,-3.069,-3.069,-3.069,-3.069,-3.069,-3.069,-3.069,-3.0653,-3.0567,-3.0443,-3.0348,-3.0267,-3.0128,-3.0068,-2.9969,-2.9803,-2.9737,-2.9701,-2.9701,-2.9701,-2.9701,-2.9701,-2.9048,-2.8587,-2.8587,-2.8045,-2.7701,-2.7701,-2.7701,-2.7289,-2.6364,-2.6274,-2.6239,-2.622,-2.6203,-2.6203,-2.622,-2.5492,-2.513,-2.5091,-2.4385,-2.3824,0.0,0.0,0.0,0.0,0.0,0.0,0.0,0.0,0.0,0.0,0.0,-2.9761,-3.0641,-3.0646,-3.0583,-3.0774,-3.0808,-3.0799,-3.0799,-3.0799,-3.0799,-3.0799,-3.0799,-3.0799,-3.0799,-3.0799,-3.0799,-3.0799,-3.0799,-3.0799,-3.0799,-3.0799,-3.0798,-3.0804,-3.0806,-3.0798,-3.08,-3.08,-3.0796,-3.0806,-3.0801,-3.0798,-3.0817,-3.0995,-3.1561,-3.2373,-3.2371,-3.2872,-3.3718,-3.4413,-3.4804,-3.5028,-3.5708,-3.5942,-3.5897,-3.5897,-3.5898,-3.5794,-3.5118,-3.4878,-3.4736,-3.3843,-3.3101,-3.2505,-3.2336,-3.1661,-3.0982,-3.0982,-3.0846,-3.069,-3.069,-3.069,-3.069,-3.069,-3.069,-3.069,-3.069,-3.0683,-3.0668,-3.0642,-3.0501,-3.0344,-3.0199,-3.0157,-3.0068,-2.9774,-2.9701,-2.9701,-2.9701,-2.9701,-2.9701,-2.9701,-2.9048,-2.8587,-2.8587,-2.8045,-2.7701,-2.7701,-2.7701,-2.7595,-2.74,-2.6891,-2.6486,-2.622,-2.6415,-2.6415,-2.622,-2.5897,-2.5492,-2.5091,-2.4775,-2.4369,0.0,0.0,0.0,0.0,0.0,0.0,0.0,0.0,0.0,0.0,0.0,-2.9049,-2.9487,-2.9903,-3.0175,-3.0175,-3.0526,-3.0799,-3.0799,-3.0799,-3.0799,-3.0799,-3.0799,-3.0799,-3.0799,-3.0799,-3.0799,-3.0799,-3.0799,-3.0808,-3.0806,-3.0793,-3.0798,-3.0791,-3.079,-3.0799,-3.0801,-3.0798,-3.0796,-3.0799,-3.08,-3.079,-3.0794,-3.0799,-3.1053,-3.1474,-3.1473,-3.1971,-3.2814,-3.3267,-3.3953,-3.4749,-3.5197,-3.5584,-3.5893,-3.5893,-3.5901,-3.5776,-3.4902,-3.4608,-3.439,-3.3095,-3.2367,-3.1929,-3.1488,-3.1059,-3.069,-3.069,-3.069,-3.069,-3.069,-3.069,-3.069,-3.069,-3.069,-3.069,-3.069,-3.069,-3.069,-3.069,-3.0626,-3.0462,-3.024,-3.0204,-3.0083,-2.9738,-2.9701,-2.9701,-2.9701,-2.9701,-2.9701,-2.9701,-2.9351,-2.898,-2.8637,-2.8309,-2.8017,-2.773,-2.7701,-2.7701,-2.7701,-2.7352,-2.7021,-2.6691,-2.664,-2.6554,-2.638,-2.6079,-2.577,-2.5492,-2.5185,-2.4791,0.0,0.0,0.0,0.0,0.0,0.0,0.0,0.0,0.0,0.0,-2.7422,-2.8092,-2.8186,-2.8797,-2.9279,-2.9279,-2.9883,-3.039,-3.0546,-3.0585,-3.0624,-3.0779,-3.0799,-3.0799,-3.0799,-3.0799,-3.0799,-3.0799,-3.0799,-3.0798,-3.0791,-3.081,-3.079,-3.0801,-3.0795,-3.0799,-3.08,-3.0796,-3.0796,-3.0799,-3.0796,-3.0799,-3.0793,-3.0804,-3.0799,-3.0799,-3.0799,-3.1213,-3.1899,-3.2045,-3.2946,-3.4272,-3.4564,-3.5086,-3.5671,-3.5671,-3.5671,-3.5524,-3.4513,-3.4171,-3.3902,-3.2307,-3.1796,-3.1664,-3.0942,-3.0717,-3.0704,-3.0704,-3.0697,-3.069,-3.069,-3.069,-3.069,-3.069,-3.069,-3.069,-3.069,-3.069,-3.069,-3.069,-3.0642,-3.054,-3.0253,-3.0204,-3.0098,-2.9827,-2.9738,-2.9701,-2.9701,-2.9701,-2.9701,-2.9701,-2.9701,-2.9392,-2.8662,-2.8587,-2.8388,-2.7904,-2.776,-2.7701,-2.7701,-2.7701,-2.7582,-2.7276,-2.6892,-2.664,-2.6606,-2.6151,-2.5934,-2.5881,-2.5508,-2.5185,0.0,0.0,0.0,0.0,0.0,0.0,0.0,0.0,0.0,0.0,-2.6562,-2.7381,-2.8076,-2.8294,-2.8368,-2.8368,-2.8466,-2.8812,-2.9572,-2.9669,-2.9942,-3.0701,-3.0799,-3.0799,-3.0799,-3.0799,-3.0799,-3.0799,-3.0799,-3.0798,-3.0791,-3.081,-3.0806,-3.0801,-3.08,-3.0798,-3.0808,-3.0796,-3.0799,-3.08,-3.0792,-3.0794,-3.0807,-3.0798,-3.0799,-3.0799,-3.0799,-3.0877,-3.1037,-3.1783,-3.2231,-3.2582,-3.4043,-3.4686,-3.4764,-3.4764,-3.4764,-3.455,-3.297,-3.2432,-3.2264,-3.1284,-3.0957,-3.093,-3.081,-3.0745,-3.0697,-3.0709,-3.0704,-3.069,-3.069,-3.069,-3.069,-3.069,-3.069,-3.069,-3.069,-3.069,-3.069,-3.069,-3.0481,-3.0253,-3.0218,-3.0204,-3.0171,-3.0128,-2.9895,-2.9701,-2.9701,-2.9701,-2.9701,-2.9701,-2.9701,-2.9392,-2.8662,-2.8587,-2.8562,-2.8466,-2.7989,-2.7701,-2.7701,-2.7701,-2.7672,-2.7624,-2.7181,-2.6825,-2.6606,-2.631,-2.6059,-2.5881,-2.5659,-2.5416,0.0,0.0,0.0,0.0,0.0,0.0,0.0,0.0,0.0,-2.5637,-2.5976,-2.6374,-2.6727,-2.7176,-2.7472,-2.7472,-2.7881,-2.8329,-2.8714,-2.9182,-2.9455,-2.9357,-2.9766,-2.9883,-2.9396,-2.9786,-3.0068,-3.0069,-3.052,-3.0794,-3.0797,-3.0794,-3.0799,-3.08,-3.0801,-3.0801,-3.08,-3.0796,-3.0795,-3.08,-3.0797,-3.0804,-3.0794,-3.0801,-3.0802,-3.0799,-3.0799,-3.0799,-3.0838,-3.1213,-3.1661,-3.2172,-3.2913,-3.3492,-3.3921,-3.3921,-3.3921,-3.3751,-3.2528,-3.2099,-3.1952,-3.1079,-3.0796,-3.0781,-3.0765,-3.0716,-3.0711,-3.0703,-3.0711,-3.069,-3.069,-3.0728,-3.0754,-3.0754,-3.0728,-3.069,-3.069,-3.069,-3.069,-3.069,-3.0419,-3.0204,-3.0204,-3.0204,-3.0204,-3.0204,-3.0068,-2.991,-2.9719,-2.9701,-2.9701,-2.9701,-2.9701,-2.9569,-2.9246,-2.8839,-2.8587,-2.8587,-2.8045,-2.7701,-2.7701,-2.7701,-2.7701,-2.7701,-2.7386,-2.707,-2.6825,-2.6537,-2.631,-2.6059,-2.5733,-2.553,0.0,0.0,0.0,0.0,0.0,0.0,0.0,0.0,0.0,0.0,-2.5637,-2.5681,-2.5693,-2.6194,-2.6595,-2.6595,-2.7145,-2.7636,-2.7842,-2.8431,-2.8708,-2.8251,-2.8773,-2.8909,-2.8271,-2.8782,-2.9262,-2.9471,-3.0108,-3.0579,-3.0781,-3.0799,-3.0799,-3.08,-3.0801,-3.08,-3.0801,-3.0796,-3.0792,-3.0797,-3.08,-3.0792,-3.0801,-3.0796,-3.0798,-3.0799,-3.0799,-3.0799,-3.0799,-3.0799,-3.1174,-3.1797,-3.2016,-3.2504,-3.3069,-3.3069,-3.3069,-3.2952,-3.207,-3.1778,-3.167,-3.1006,-3.0799,-3.0786,-3.0742,-3.073,-3.0723,-3.0725,-3.0698,-3.0704,-3.0716,-3.0763,-3.0801,-3.0801,-3.0745,-3.069,-3.069,-3.069,-3.069,-3.069,-3.0492,-3.0299,-3.0213,-3.0204,-3.0204,-3.0204,-3.0204,-3.0098,-2.9861,-2.9756,-2.9701,-2.9701,-2.9701,-2.9701,-2.9701,-2.9026,-2.8587,-2.8587,-2.8045,-2.7701,-2.7701,-2.7701,-2.7701,-2.7701,-2.7569,-2.7324,-2.7006,-2.6725,-2.645,-2.6168,-2.5844,-2.5696,0.0,0.0,0.0,0.0,0.0,0.0,0.0,0.0,0.0,-2.543,-2.5598,-2.5623,-2.5684,-2.5722,-2.5757,-2.5757,-2.5801,-2.61,-2.6852,-2.7066,-2.7404,-2.8115,-2.8251,-2.8251,-2.8193,-2.8236,-2.861,-2.9444,-2.9545,-2.9929,-3.0757,-3.081,-3.0799,-3.08,-3.08,-3.0797,-3.0804,-3.0796,-3.0795,-3.0801,-3.0801,-3.0796,-3.0796,-3.0801,-3.0798,-3.0799,-3.0799,-3.0799,-3.0799,-3.0799,-3.0838,-3.0955,-3.1778,-3.2133,-3.2172,-3.2172,-3.2172,-3.2036,-3.1174,-3.0877,-3.0857,-3.0804,-3.0804,-3.0808,-3.0793,-3.0796,-3.0799,-3.0796,-3.0745,-3.0704,-3.0781,-3.0799,-3.0801,-3.0801,-3.0745,-3.069,-3.069,-3.069,-3.069,-3.069,-3.0683,-3.0576,-3.0247,-3.0204,-3.0204,-3.0204,-3.0204,-3.0185,-3.019,-2.9893,-2.9701,-2.9701,-2.9701,-2.9701,-2.9701,-2.9026,-2.8587,-2.8587,-2.8045,-2.7701,-2.7701,-2.7701,-2.7701,-2.7701,-2.7701,-2.7461,-2.7006,-2.6725,-2.645,-2.6168,-2.597,-2.5881,0.0,0.0,0.0,0.0,0.0,0.0,0.0,0.0,-2.4383,-2.4705,-2.5213,-2.5616,-2.5683,-2.5703,-2.5707,-2.5704,-2.5701,-2.5801,-2.6095,-2.6607,-2.6848,-2.662,-2.7055,-2.716,-2.6654,-2.7108,-2.7566,-2.7872,-2.8364,-2.8821,-2.9171,-2.9146,-2.9408,-3.0018,-2.9998,-3.0231,-3.0781,-3.0797,-3.08,-3.0795,-3.08,-3.0797,-3.0796,-3.0801,-3.0798,-3.0799,-3.0799,-3.0799,-3.0799,-3.0799,-3.0799,-3.0838,-3.1135,-3.1271,-3.1271,-3.1271,-3.1271,-3.1213,-3.0916,-3.0799,-3.0799,-3.0799,-3.0799,-3.0799,-3.0799,-3.0798,-3.0792,-3.0793,-3.0785,-3.0771,-3.0796,-3.0801,-3.0799,-3.081,-3.075,-3.0697,-3.0704,-3.0711,-3.069,-3.069,-3.069,-3.0593,-3.0266,-3.0204,-3.0204,-3.0204,-3.0204,-3.0204,-3.0204,-3.0098,-3.0022,-3.0022,-2.9827,-2.9701,-2.9701,-2.9026,-2.8587,-2.8587,-2.8388,-2.8156,-2.7904,-2.7904,-2.7818,-2.7683,-2.7701,-2.7552,-2.7279,-2.699,-2.6725,-2.645,-2.6063,-2.5897,-1.1463,0.0,0.0,0.0,0.0,0.0,0.0,0.0,-2.2911,-2.4054,-2.4771,-2.5297,-2.5604,-2.5672,-2.5697,-2.5707,-2.5701,-2.5707,-2.5693,-2.6169,-2.6295,-2.5757,-2.6161,-2.6289,-2.5753,-2.6227,-2.6688,-2.6978,-2.7497,-2.7929,-2.8258,-2.8254,-2.8647,-2.9531,-2.9524,-2.9929,-3.0797,-3.0808,-3.0793,-3.0801,-3.0799,-3.0795,-3.079,-3.0799,-3.0798,-3.0799,-3.0799,-3.0799,-3.0799,-3.0799,-3.0799,-3.0799,-3.0799,-3.0799,-3.0799,-3.0799,-3.0799,-3.0799,-3.0799,-3.0799,-3.0799,-3.0799,-3.0799,-3.0799,-3.0799,-3.0799,-3.079,-3.0797,-3.0801,-3.0801,-3.0801,-3.0801,-3.0796,-3.0801,-3.0778,-3.073,-3.0695,-3.0698,-3.069,-3.069,-3.069,-3.0593,-3.0266,-3.0204,-3.0204,-3.0204,-3.0204,-3.0204,-3.0204,-3.0204,-3.0204,-3.0204,-2.9991,-2.9827,-2.972,-2.9026,-2.8587,-2.8587,-2.8536,-2.8388,-2.8101,-2.8091,-2.7961,-2.7789,-2.7806,-2.7719,-2.7509,-2.7166,-2.6859,-2.6589,-2.6187,-2.597,0.0,0.0,0.0,0.0,0.0,0.0,0.0,0.0,-2.0083,-2.3445,-2.4214,-2.4534,-2.5366,-2.5602,-2.5654,-2.5668,-2.5684,-2.5698,-2.5701,-2.5693,-2.5696,-2.5701,-2.5694,-2.5696,-2.5701,-2.5701,-2.6055,-2.689,-2.6951,-2.73,-2.808,-2.8203,-2.8613,-2.9407,-2.9468,-2.9918,-3.0757,-3.0796,-3.0796,-3.0796,-3.0796,-3.081,-3.0794,-3.0791,-3.0798,-3.0799,-3.0799,-3.0799,-3.0799,-3.0799,-3.0799,-3.0799,-3.0799,-3.0799,-3.0799,-3.0799,-3.0799,-3.0799,-3.0799,-3.0799,-3.0799,-3.0799,-3.0799,-3.0799,-3.0799,-3.0799,-3.081,-3.0798,-3.0801,-3.0801,-3.0801,-3.0801,-3.0796,-3.0804,-3.0794,-3.0782,-3.0711,-3.071,-3.069,-3.069,-3.069,-3.0593,-3.026,-3.0218,-3.0204,-3.0204,-3.0204,-3.0204,-3.0204,-3.0204,-3.0204,-3.0204,-3.0204,-3.0068,-2.9719,-2.9026,-2.8612,-2.8612,-2.844,-2.8317,-2.8291,-2.8255,-2.8136,-2.7996,-2.8014,-2.7893,-2.7701,-2.7244,-2.6875,-2.6623,-2.6345,-2.6096,-1.0253,0.0,0.0,0.0,0.0,0.0,0.0,0.0,0.0,-2.0156,-2.1126,-2.2035,-2.3521,-2.4314,-2.4764,-2.4757,-2.5288,-2.5707,-2.5694,-2.5701,-2.5707,-2.5698,-2.5703,-2.5705,-2.5701,-2.5701,-2.5801,-2.6032,-2.6052,-2.6167,-2.6384,-2.701,-2.7433,-2.7615,-2.8842,-2.9623,-2.9858,-3.0478,-3.0804,-3.0801,-3.0801,-3.0801,-3.0791,-3.081,-3.0793,-3.0799,-3.0799,-3.0799,-3.0799,-3.0799,-3.0799,-3.0799,-3.0799,-3.0799,-3.0799,-3.0799,-3.0799,-3.0799,-3.0799,-3.0799,-3.0799,-3.0799,-3.0799,-3.0799,-3.0799,-3.0799,-3.0808,-3.0804,-3.08,-3.0801,-3.0801,-3.0801,-3.0799,-3.0796,-3.0794,-3.0791,-3.0785,-3.0725,-3.069,-3.069,-3.069,-3.0676,-3.0585,-3.0371,-3.0204,-3.0204,-3.0204,-3.0204,-3.0204,-3.0204,-3.0204,-3.0204,-3.0204,-3.0068,-2.9719,-2.9026,-2.8687,-2.8863,-2.8644,-2.8466,-2.838,-2.8353,-2.8246,-2.7996,-2.8014,-2.7893,-2.7701,-2.7417,-2.7135,-2.6892,-2.6399,-2.6168,0.0,0.0,0.0,0.0,0.0,0.0,-1.4503,-1.5255,0.0,0.0,-1.9593,-2.05,-2.2246,-2.2979,-2.3437,-2.3796,-2.4583,-2.5288,-2.5654,-2.5696,-2.5704,-2.5698,-2.5705,-2.5691,-2.5691,-2.5702,-2.5703,-2.5703,-2.5696,-2.5694,-2.5703,-2.6171,-2.6612,-2.6922,-2.7891,-2.8759,-2.9494,-3.0,-3.0442,-3.0794,-3.0793,-3.0793,-3.0794,-3.0793,-3.0799,-3.0799,-3.0799,-3.0799,-3.0799,-3.0799,-3.0799,-3.0799,-3.0799,-3.0799,-3.0799,-3.0799,-3.0799,-3.0799,-3.0799,-3.0799,-3.0799,-3.0799,-3.0799,-3.0799,-3.0799,-3.0799,-3.0799,-3.0799,-3.0795,-3.0801,-3.0801,-3.0801,-3.0801,-3.0801,-3.0801,-3.0801,-3.0801,-3.074,-3.069,-3.069,-3.069,-3.069,-3.069,-3.0549,-3.0371,-3.0213,-3.0204,-3.0204,-3.0204,-3.0204,-3.0204,-3.0204,-3.0204,-3.0083,-2.9808,-2.9188,-2.8892,-2.9012,-2.8767,-2.8562,-2.8484,-2.8484,-2.8353,-2.8081,-2.8081,-2.795,-2.7701,-2.7509,-2.7215,-2.6825,-2.6555,-2.6329,0.0,0.0,0.0,0.0,0.0,0.0,-1.6375,-1.5511,-1.4817,0.0,-1.8496,-1.903,-2.0779,-2.124,-2.1619,-2.2419,-2.3414,-2.4446,-2.5427,-2.564,-2.5698,-2.5696,-2.5691,-2.5698,-2.5698,-2.5703,-2.57,-2.5691,-2.5707,-2.5707,-2.5709,-2.5703,-2.6052,-2.6829,-2.6897,-2.7647,-2.9201,-2.9299,-2.9786,-3.0662,-3.0662,-3.0701,-3.0799,-3.0799,-3.0799,-3.0799,-3.0799,-3.0799,-3.0799,-3.0799,-3.0799,-3.0799,-3.0799,-3.0799,-3.0799,-3.0799,-3.0799,-3.0799,-3.0799,-3.0799,-3.0799,-3.0799,-3.0799,-3.0799,-3.0799,-3.0799,-3.0804,-3.0793,-3.0796,-3.0801,-3.0801,-3.0801,-3.0801,-3.0801,-3.0801,-3.0801,-3.0801,-3.075,-3.0711,-3.0697,-3.069,-3.069,-3.069,-3.0668,-3.053,-3.0253,-3.0204,-3.0204,-3.0204,-3.0204,-3.0204,-3.0204,-3.0204,-3.0128,-2.9956,-2.9456,-2.9148,-2.9107,-2.8821,-2.8612,-2.8587,-2.8587,-2.8484,-2.8228,-2.8201,-2.7982,-2.7526,-2.7426,-2.7152,-2.6725,-2.6556,-2.6319,0.0,0.0,0.0,0.0,0.0,0.0,-1.3034,-1.2917,-1.3245,0.0,-1.4048,-1.4573,-1.6322,-1.7752,-1.8726,-1.8964,-2.0859,-2.2851,-2.443,-2.5266,-2.5693,-2.5691,-2.5693,-2.5705,-2.5705,-2.5702,-2.5702,-2.5701,-2.5694,-2.5693,-2.5701,-2.5703,-2.578,-2.5959,-2.6613,-2.7124,-2.7394,-2.8095,-2.889,-2.9747,-2.9747,-3.0117,-3.0799,-3.0799,-3.0799,-3.0799,-3.0799,-3.0799,-3.0799,-3.0799,-3.0799,-3.0799,-3.0799,-3.0799,-3.0799,-3.0799,-3.0799,-3.0799,-3.0799,-3.0799,-3.0799,-3.0799,-3.0799,-3.0799,-3.0799,-3.0799,-3.0793,-3.0801,-3.08,-3.0801,-3.0801,-3.0801,-3.0801,-3.0801,-3.0801,-3.0801,-3.0801,-3.0791,-3.0767,-3.0717,-3.069,-3.069,-3.069,-3.0472,-3.0292,-3.0199,-3.0204,-3.0204,-3.0204,-3.0204,-3.0204,-3.0204,-3.0204,-3.0171,-3.0142,-2.9789,-2.9492,-2.9272,-2.8984,-2.8785,-2.8612,-2.8587,-2.851,-2.8353,-2.8146,-2.7543,-2.649,-2.6987,-2.7307,-2.7444,-2.5845,-2.5045,0.0,0.0,0.0,-1.6155,0.0,0.0,0.0,-1.3751,-1.3684,-1.4529,-1.4037,-1.3978,-1.5724,-1.6369,-1.6814,-1.7273,-1.9498,-2.1301,-2.1736,-2.3306,-2.4405,-2.4391,-2.4403,-2.4569,-2.5008,-2.5058,-2.5233,-2.5679,-2.5691,-2.5691,-2.5697,-2.5703,-2.5702,-2.5693,-2.6122,-2.6532,-2.6907,-2.7336,-2.7998,-2.8851,-2.8851,-2.9299,-3.0156,-3.0156,-3.039,-3.0799,-3.0799,-3.0799,-3.0799,-3.0799,-3.0799,-3.0799,-3.0799,-3.0799,-3.0799,-3.0799,-3.0799,-3.0799,-3.0799,-3.0799,-3.0799,-3.0799,-3.0799,-3.0799,-3.0799,-3.0799,-3.0793,-3.0801,-3.08,-3.0798,-3.0806,-3.0801,-3.0801,-3.0801,-3.0801,-3.0801,-3.0801,-3.0801,-3.0794,-3.0754,-3.0722,-3.069,-3.069,-3.0419,-3.0204,-3.0204,-3.0204,-3.0204,-3.0204,-3.0204,-3.0204,-3.0204,-3.0204,-3.0204,-3.0204,-2.994,-2.9664,-2.9314,-2.8666,-2.8213,-2.8015,-2.7634,-2.7446,-2.7546,-2.7317,-2.7126,-2.6946,-2.651,-2.6469,-2.6725,-2.5374,-2.4491,0.0,0.0,0.0,0.0,0.0,-1.6353,0.0,0.0,0.0,0.0,0.0,0.0,0.0,0.0,0.0,0.0,0.0,0.0,0.0,-2.0565,0.0,-2.2557,-2.2906,-2.3304,-2.3844,-2.375,-2.4078,-2.5123,-2.5045,-2.5105,-2.5437,-2.5605,-2.5699,-2.5698,-2.569,-2.6015,-2.6654,-2.6673,-2.7102,-2.7959,-2.7959,-2.8485,-2.9494,-2.9494,-2.9981,-3.0799,-3.0799,-3.0799,-3.0799,-3.0799,-3.0799,-3.0799,-3.0799,-3.0799,-3.0799,-3.0799,-3.0799,-3.0799,-3.0799,-3.0799,-3.0799,-3.0799,-3.0799,-3.0799,-3.0799,-3.0799,-3.0793,-3.0794,-3.081,-3.08,-3.081,-3.0801,-3.0801,-3.0801,-3.0801,-3.0801,-3.0801,-3.0801,-3.0801,-3.0801,-3.076,-3.069,-3.069,-3.0491,-3.026,-3.0199,-3.0204,-3.0204,-3.0204,-3.0204,-3.0204,-3.0204,-3.0204,-3.0204,-3.0204,-3.0019,-2.977,-2.9415,-2.8384,-2.7657,-2.7489,-2.6752,-2.6363,-2.6426,-2.6675,-2.6809,-2.6806,-2.5394,-2.4815,-2.5026,-2.4538,-2.3833,0.0,0.0,0.0,0.0,-1.8977,0.0,0.0,0.0,-1.4861,-1.3517,0.0,0.0,0.0,0.0,0.0,0.0,0.0,0.0,-1.5947,-1.7372,-1.9062,-2.0617,-2.2153,-2.2839,-2.2166,-2.1406,-2.1615,-2.3267,-2.2671,-2.2929,-2.4471,-2.5273,-2.5696,-2.5703,-2.5698,-2.5743,-2.5835,-2.5835,-2.6244,-2.7043,-2.7043,-2.792,-2.9494,-2.9494,-2.9981,-3.0799,-3.0799,-3.0799,-3.0799,-3.0799,-3.0799,-3.0799,-3.0799,-3.0799,-3.0799,-3.0799,-3.0799,-3.0799,-3.0799,-3.0799,-3.0799,-3.0799,-3.0799,-3.0799,-3.0799,-3.0799,-3.0793,-3.0794,-3.081,-3.08,-3.081,-3.0801,-3.0801,-3.0801,-3.0801,-3.0801,-3.0801,-3.0801,-3.0801,-3.0801,-3.076,-3.069,-3.069,-3.0668,-3.053,-3.0253,-3.0204,-3.0204,-3.0204,-3.0204,-3.0204,-3.0204,-3.0204,-3.0204,-3.0204,-3.0019,-2.9855,-2.9751,-2.863,-2.7893,-2.7679,-2.7186,-2.6423,-2.5374,-2.7331,-2.6777,-2.3628,-2.2677,-2.2224,-2.2262,-2.2411,-2.2303,0.0,0.0,0.0,0.0,0.0,0.0,-1.623,0.0,-1.5331,0.0,0.0,0.0,0.0,0.0,0.0,0.0,-1.4153,0.0,0.0,0.0,-1.7072,0.0,0.0,0.0,-2.0931,-2.071,-2.1212,-2.2966,-2.1865,-2.2067,-2.4276,-2.4745,-2.5187,-2.5681,-2.5707,-2.5691,-2.5699,-2.5699,-2.5874,-2.6205,-2.6205,-2.7102,-2.8753,-2.8753,-2.9494,-3.0799,-3.0764,-3.0739,-3.0739,-3.0742,-3.0742,-3.0739,-3.0739,-3.0769,-3.0799,-3.0799,-3.0799,-3.0799,-3.0799,-3.0799,-3.0799,-3.0799,-3.0799,-3.0799,-3.0799,-3.0799,-3.0793,-3.0794,-3.0794,-3.0801,-3.0793,-3.0801,-3.0801,-3.0801,-3.0801,-3.0801,-3.0801,-3.0801,-3.0801,-3.0801,-3.0781,-3.076,-3.0704,-3.0549,-3.0352,-3.0213,-3.0204,-3.0204,-3.0204,-3.0204,-3.0204,-3.0204,-3.0204,-3.0204,-3.0204,-3.0128,-3.0019,-2.9872,-2.8027,-2.6498,-2.5485,-2.5252,-2.4896,-2.4396,-2.533,-2.5064,-2.3491,-2.2975,-2.2616,-2.2439,-2.2124,-2.1911,-2.0565,0.0,0.0,0.0,0.0,0.0,0.0,0.0,0.0,0.0,0.0,0.0,0.0,0.0,0.0,0.0,0.0,-1.4047,0.0,-1.389,0.0,0.0,0.0,0.0,0.0,-1.9168,-1.9675,-2.1886,-2.0495,-2.0759,-2.3535,-2.4137,-2.4692,-2.532,-2.5574,-2.5699,-2.5699,-2.5699,-2.5699,-2.5699,-2.5699,-2.6459,-2.7842,-2.7842,-2.8792,-3.0448,-3.0383,-3.0508,-3.0697,-3.0704,-3.0691,-3.0703,-3.0703,-3.0734,-3.0769,-3.0799,-3.0799,-3.0799,-3.0799,-3.0799,-3.0799,-3.0799,-3.0799,-3.0799,-3.0799,-3.0799,-3.0808,-3.0801,-3.0806,-3.0794,-3.0796,-3.0801,-3.0801,-3.0801,-3.0801,-3.0801,-3.0801,-3.0801,-3.0801,-3.0801,-3.0788,-3.0754,-3.0711,-3.0419,-3.0204,-3.0204,-3.0204,-3.0204,-3.0204,-3.0204,-3.0204,-3.0204,-3.0204,-3.0204,-3.0204,-3.0204,-3.0049,-2.9697,-2.7592,-2.559,-2.3868,-2.3795,-2.3795,-2.3795,-2.3795,-2.3732,-2.3624,-2.3307,-2.3017,-2.2652,-2.2198,-2.1957,0.0,-2.1149,0.0,-1.8672,0.0,0.0,0.0,0.0,-1.7683,0.0,0.0,0.0,0.0,0.0,0.0,0.0,0.0,0.0,0.0,0.0,0.0,0.0,0.0,0.0,0.0,-1.5789,-1.5728,-1.9158,-1.781,-1.832,-2.1696,-2.348,-2.4417,-2.4436,-2.5251,-2.5699,-2.5699,-2.5699,-2.5699,-2.5699,-2.5699,-2.6147,-2.6946,-2.6946,-2.7901,-2.9533,-2.9547,-2.9983,-3.0697,-3.0704,-3.0691,-3.0703,-3.0703,-3.0703,-3.0709,-3.0774,-3.0799,-3.0799,-3.0799,-3.0799,-3.0799,-3.0799,-3.0799,-3.0799,-3.0799,-3.0799,-3.0799,-3.0804,-3.0804,-3.0794,-3.0796,-3.0801,-3.0801,-3.0801,-3.0801,-3.0801,-3.0801,-3.0801,-3.0801,-3.0801,-3.074,-3.0697,-3.0697,-3.0419,-3.0204,-3.0204,-3.0204,-3.0204,-3.0204,-3.0204,-3.0204,-3.0204,-3.0204,-3.0204,-3.0204,-3.0204,-2.9902,-2.9172,-2.7647,-2.5882,-2.3889,-2.3795,-2.3795,-2.3795,-2.3795,-2.358,-2.3116,-2.2789,-2.2449,-2.213,-2.236,-2.2343,-2.1143,-2.1932,-2.2124,-2.0142,-1.9848,-1.9376,-1.6834,-1.7168,0.0,0.0,0.0,0.0,0.0,0.0,0.0,0.0,0.0,0.0,0.0,0.0,0.0,0.0,0.0,0.0,0.0,0.0,-1.5684,-1.7456,-1.7022,-1.7949,-2.0796,-2.2589,-2.3805,-2.4374,-2.5251,-2.5699,-2.5699,-2.5699,-2.5699,-2.5699,-2.5699,-2.6128,-2.6907,-2.6907,-2.7541,-2.8676,-2.9207,-2.957,-2.9814,-3.0397,-3.0629,-3.063,-3.063,-3.0658,-3.0703,-3.0769,-3.0769,-3.0739,-3.0774,-3.0799,-3.0799,-3.0799,-3.0799,-3.0799,-3.0799,-3.0794,-3.0801,-3.0801,-3.0796,-3.08,-3.0808,-3.0801,-3.0801,-3.0801,-3.0801,-3.0801,-3.0801,-3.0801,-3.0801,-3.0801,-3.076,-3.069,-3.069,-3.0602,-3.0471,-3.0226,-3.0204,-3.0204,-3.0204,-3.0204,-3.0204,-3.0204,-3.0204,-3.0204,-3.0204,-3.0204,-2.9869,-2.9075,-2.6384,-2.4522,-2.3834,-2.3795,-2.3795,-2.3795,-2.3795,-2.3732,-2.3562,-2.3405,-2.3188,-2.2884,-2.2747,-2.2453,-2.1433,-2.209,-2.2284,-2.1201,-2.0883,-2.0292,-1.8088,-1.8506,-1.9093,-1.8232,0.0,0.0,0.0,0.0,0.0,0.0,0.0,0.0,0.0,-1.1764,0.0,0.0,0.0,0.0,0.0,0.0,-1.4756,-1.6566,-1.6414,-1.7361,0.0,-2.2006,-2.3363,-2.3929,-2.5075,-2.5699,-2.5699,-2.5699,-2.5699,-2.5699,-2.5699,-2.5972,-2.6478,-2.645,-2.6909,-2.779,-2.8592,-2.9082,-2.9369,-3.0229,-3.0606,-3.0602,-3.0602,-3.0642,-3.0672,-3.0734,-3.0745,-3.0739,-3.0794,-3.0799,-3.0799,-3.0799,-3.0799,-3.0799,-3.0799,-3.0807,-3.0797,-3.0797,-3.08,-3.0801,-3.0801,-3.0801,-3.0801,-3.0801,-3.0801,-3.0801,-3.0801,-3.0796,-3.0791,-3.0791,-3.0765,-3.0724,-3.0697,-3.069,-3.0585,-3.0253,-3.0204,-3.0204,-3.0204,-3.0204,-3.0204,-3.0204,-3.0204,-3.0204,-3.0204,-3.0204,-2.9872,-2.9044,-2.6312,-2.4638,-2.4457,-2.4034,-2.3795,-2.3795,-2.3795,-2.3753,-2.3689,-2.3553,-2.3342,-2.3095,-2.2738,-2.2343]}]]